<?xml version="1.0" encoding="UTF-8" standalone="no" ?>
<gpx xmlns="http://www.topografix.com/GPX/1/1" xmlns:xsi="http://www.w3.org/2001/XMLSchema-instance" xsi:schemaLocation="http://www.topografix.com/GPX/1/1 http://www.topografix.com/GPX/1/1/gpx.xsd" version="1.1" creator="VisuGPX - https://www.visugpx.com">
  <metadata>
    <name>sé déniv vallon</name>
    <desc><![CDATA[sé déniv vallon
sé déniv vallon
sé déniv vallon]]></desc>
  </metadata>
  <trk>
    <name><![CDATA[Saut alti Gps norma]]></name>
    <trkseg>
      <trkpt lat="48.99922" lon="0.86068">
        <ele>154</ele>
        <time>2017-12-20T13:54:27Z</time>
      </trkpt>
      <trkpt lat="48.99929" lon="0.86072">
        <ele>154</ele>
        <time>2017-12-20T13:54:30Z</time>
      </trkpt>
      <trkpt lat="48.99934" lon="0.86075">
        <ele>154</ele>
        <time>2017-12-20T13:54:32Z</time>
      </trkpt>
      <trkpt lat="48.99944" lon="0.86076">
        <ele>154</ele>
        <time>2017-12-20T13:54:34Z</time>
      </trkpt>
      <trkpt lat="48.99949" lon="0.8608">
        <ele>154</ele>
        <time>2017-12-20T13:54:35Z</time>
      </trkpt>
      <trkpt lat="48.99954" lon="0.86084">
        <ele>154</ele>
        <time>2017-12-20T13:54:36Z</time>
      </trkpt>
      <trkpt lat="48.99963" lon="0.86092">
        <ele>154</ele>
        <time>2017-12-20T13:54:38Z</time>
      </trkpt>
      <trkpt lat="48.99969" lon="0.86095">
        <ele>154</ele>
        <time>2017-12-20T13:54:39Z</time>
      </trkpt>
      <trkpt lat="48.99974" lon="0.86099">
        <ele>154</ele>
        <time>2017-12-20T13:54:40Z</time>
      </trkpt>
      <trkpt lat="48.9998" lon="0.86102">
        <ele>154</ele>
        <time>2017-12-20T13:54:41Z</time>
      </trkpt>
      <trkpt lat="48.99986" lon="0.86105">
        <ele>154</ele>
        <time>2017-12-20T13:54:42Z</time>
      </trkpt>
      <trkpt lat="48.99991" lon="0.86108">
        <ele>154</ele>
        <time>2017-12-20T13:54:43Z</time>
      </trkpt>
      <trkpt lat="48.99996" lon="0.86112">
        <ele>154</ele>
        <time>2017-12-20T13:54:44Z</time>
      </trkpt>
      <trkpt lat="49" lon="0.86118">
        <ele>154</ele>
        <time>2017-12-20T13:54:45Z</time>
      </trkpt>
      <trkpt lat="49.00003" lon="0.8613">
        <ele>154</ele>
        <time>2017-12-20T13:54:47Z</time>
      </trkpt>
      <trkpt lat="49" lon="0.86142">
        <ele>155</ele>
        <time>2017-12-20T13:54:49Z</time>
      </trkpt>
      <trkpt lat="48.99998" lon="0.86149">
        <ele>155</ele>
        <time>2017-12-20T13:54:50Z</time>
      </trkpt>
      <trkpt lat="48.99995" lon="0.86154">
        <ele>156</ele>
        <time>2017-12-20T13:54:51Z</time>
      </trkpt>
      <trkpt lat="48.99991" lon="0.8616">
        <ele>156</ele>
        <time>2017-12-20T13:54:52Z</time>
      </trkpt>
      <trkpt lat="48.99987" lon="0.86165">
        <ele>156</ele>
        <time>2017-12-20T13:54:53Z</time>
      </trkpt>
      <trkpt lat="48.99983" lon="0.86169">
        <ele>155</ele>
        <time>2017-12-20T13:54:54Z</time>
      </trkpt>
      <trkpt lat="48.99976" lon="0.8618">
        <ele>155</ele>
        <time>2017-12-20T13:54:56Z</time>
      </trkpt>
      <trkpt lat="48.99973" lon="0.86187">
        <ele>154</ele>
        <time>2017-12-20T13:54:57Z</time>
      </trkpt>
      <trkpt lat="48.99971" lon="0.86195">
        <ele>154</ele>
        <time>2017-12-20T13:54:58Z</time>
      </trkpt>
      <trkpt lat="48.99968" lon="0.86203">
        <ele>154</ele>
        <time>2017-12-20T13:54:59Z</time>
      </trkpt>
      <trkpt lat="48.99966" lon="0.86211">
        <ele>154</ele>
        <time>2017-12-20T13:55:00Z</time>
      </trkpt>
      <trkpt lat="48.99963" lon="0.86218">
        <ele>154</ele>
        <time>2017-12-20T13:55:01Z</time>
      </trkpt>
      <trkpt lat="48.99961" lon="0.86226">
        <ele>154</ele>
        <time>2017-12-20T13:55:02Z</time>
      </trkpt>
      <trkpt lat="48.99958" lon="0.86235">
        <ele>155</ele>
        <time>2017-12-20T13:55:03Z</time>
      </trkpt>
      <trkpt lat="48.99957" lon="0.86243">
        <ele>155</ele>
        <time>2017-12-20T13:55:04Z</time>
      </trkpt>
      <trkpt lat="48.99955" lon="0.86251">
        <ele>155</ele>
        <time>2017-12-20T13:55:05Z</time>
      </trkpt>
      <trkpt lat="48.99953" lon="0.86259">
        <ele>155</ele>
        <time>2017-12-20T13:55:06Z</time>
      </trkpt>
      <trkpt lat="48.99952" lon="0.86266">
        <ele>156</ele>
        <time>2017-12-20T13:55:07Z</time>
      </trkpt>
      <trkpt lat="48.99951" lon="0.86273">
        <ele>156</ele>
        <time>2017-12-20T13:55:08Z</time>
      </trkpt>
      <trkpt lat="48.99951" lon="0.86281">
        <ele>156</ele>
        <time>2017-12-20T13:55:09Z</time>
      </trkpt>
      <trkpt lat="48.99952" lon="0.86288">
        <ele>156</ele>
        <time>2017-12-20T13:55:10Z</time>
      </trkpt>
      <trkpt lat="48.99954" lon="0.86294">
        <ele>156</ele>
        <time>2017-12-20T13:55:11Z</time>
      </trkpt>
      <trkpt lat="48.99958" lon="0.863">
        <ele>157</ele>
        <time>2017-12-20T13:55:12Z</time>
      </trkpt>
      <trkpt lat="48.99962" lon="0.86304">
        <ele>157</ele>
        <time>2017-12-20T13:55:13Z</time>
      </trkpt>
      <trkpt lat="48.99966" lon="0.86309">
        <ele>156</ele>
        <time>2017-12-20T13:55:14Z</time>
      </trkpt>
      <trkpt lat="48.9997" lon="0.86313">
        <ele>156</ele>
        <time>2017-12-20T13:55:15Z</time>
      </trkpt>
      <trkpt lat="48.99974" lon="0.86317">
        <ele>156</ele>
        <time>2017-12-20T13:55:16Z</time>
      </trkpt>
      <trkpt lat="48.99978" lon="0.86321">
        <ele>155</ele>
        <time>2017-12-20T13:55:17Z</time>
      </trkpt>
      <trkpt lat="48.99982" lon="0.86325">
        <ele>155</ele>
        <time>2017-12-20T13:55:18Z</time>
      </trkpt>
      <trkpt lat="48.99989" lon="0.86331">
        <ele>154</ele>
        <time>2017-12-20T13:55:20Z</time>
      </trkpt>
      <trkpt lat="48.99996" lon="0.86339">
        <ele>155</ele>
        <time>2017-12-20T13:55:22Z</time>
      </trkpt>
      <trkpt lat="49.00001" lon="0.86347">
        <ele>155</ele>
        <time>2017-12-20T13:55:24Z</time>
      </trkpt>
      <trkpt lat="49.00001" lon="0.86354">
        <ele>155</ele>
        <time>2017-12-20T13:55:25Z</time>
      </trkpt>
      <trkpt lat="48.99997" lon="0.86362">
        <ele>155</ele>
        <time>2017-12-20T13:55:26Z</time>
      </trkpt>
      <trkpt lat="48.99994" lon="0.8637">
        <ele>155</ele>
        <time>2017-12-20T13:55:27Z</time>
      </trkpt>
      <trkpt lat="48.9999" lon="0.86377">
        <ele>154</ele>
        <time>2017-12-20T13:55:28Z</time>
      </trkpt>
      <trkpt lat="48.99985" lon="0.86382">
        <ele>155</ele>
        <time>2017-12-20T13:55:29Z</time>
      </trkpt>
      <trkpt lat="48.99981" lon="0.86389">
        <ele>155</ele>
        <time>2017-12-20T13:55:30Z</time>
      </trkpt>
      <trkpt lat="48.99975" lon="0.86397">
        <ele>155</ele>
        <time>2017-12-20T13:55:31Z</time>
      </trkpt>
      <trkpt lat="48.99969" lon="0.86406">
        <ele>154</ele>
        <time>2017-12-20T13:55:32Z</time>
      </trkpt>
      <trkpt lat="48.99964" lon="0.86415">
        <ele>153</ele>
        <time>2017-12-20T13:55:33Z</time>
      </trkpt>
      <trkpt lat="48.99958" lon="0.86424">
        <ele>153</ele>
        <time>2017-12-20T13:55:34Z</time>
      </trkpt>
      <trkpt lat="48.99954" lon="0.86434">
        <ele>153</ele>
        <time>2017-12-20T13:55:35Z</time>
      </trkpt>
      <trkpt lat="48.99948" lon="0.86443">
        <ele>152</ele>
        <time>2017-12-20T13:55:36Z</time>
      </trkpt>
      <trkpt lat="48.99943" lon="0.86453">
        <ele>152</ele>
        <time>2017-12-20T13:55:37Z</time>
      </trkpt>
      <trkpt lat="48.99938" lon="0.86464">
        <ele>152</ele>
        <time>2017-12-20T13:55:38Z</time>
      </trkpt>
      <trkpt lat="48.99933" lon="0.86475">
        <ele>153</ele>
        <time>2017-12-20T13:55:39Z</time>
      </trkpt>
      <trkpt lat="48.99927" lon="0.86485">
        <ele>153</ele>
        <time>2017-12-20T13:55:40Z</time>
      </trkpt>
      <trkpt lat="48.99922" lon="0.86495">
        <ele>152</ele>
        <time>2017-12-20T13:55:41Z</time>
      </trkpt>
      <trkpt lat="48.99918" lon="0.86504">
        <ele>152</ele>
        <time>2017-12-20T13:55:42Z</time>
      </trkpt>
      <trkpt lat="48.99913" lon="0.86512">
        <ele>152</ele>
        <time>2017-12-20T13:55:43Z</time>
      </trkpt>
      <trkpt lat="48.99909" lon="0.86521">
        <ele>153</ele>
        <time>2017-12-20T13:55:44Z</time>
      </trkpt>
      <trkpt lat="48.99905" lon="0.8653">
        <ele>153</ele>
        <time>2017-12-20T13:55:45Z</time>
      </trkpt>
      <trkpt lat="48.999" lon="0.86539">
        <ele>152</ele>
        <time>2017-12-20T13:55:46Z</time>
      </trkpt>
      <trkpt lat="48.99895" lon="0.86549">
        <ele>152</ele>
        <time>2017-12-20T13:55:47Z</time>
      </trkpt>
      <trkpt lat="48.99891" lon="0.86559">
        <ele>152</ele>
        <time>2017-12-20T13:55:48Z</time>
      </trkpt>
      <trkpt lat="48.99886" lon="0.86568">
        <ele>152</ele>
        <time>2017-12-20T13:55:49Z</time>
      </trkpt>
      <trkpt lat="48.99882" lon="0.86576">
        <ele>152</ele>
        <time>2017-12-20T13:55:50Z</time>
      </trkpt>
      <trkpt lat="48.99878" lon="0.86586">
        <ele>152</ele>
        <time>2017-12-20T13:55:51Z</time>
      </trkpt>
      <trkpt lat="48.99873" lon="0.86594">
        <ele>152</ele>
        <time>2017-12-20T13:55:52Z</time>
      </trkpt>
      <trkpt lat="48.99869" lon="0.86603">
        <ele>152</ele>
        <time>2017-12-20T13:55:53Z</time>
      </trkpt>
      <trkpt lat="48.99865" lon="0.86612">
        <ele>152</ele>
        <time>2017-12-20T13:55:54Z</time>
      </trkpt>
      <trkpt lat="48.9986" lon="0.86622">
        <ele>152</ele>
        <time>2017-12-20T13:55:55Z</time>
      </trkpt>
      <trkpt lat="48.99855" lon="0.86631">
        <ele>152</ele>
        <time>2017-12-20T13:55:56Z</time>
      </trkpt>
      <trkpt lat="48.99851" lon="0.8664">
        <ele>152</ele>
        <time>2017-12-20T13:55:57Z</time>
      </trkpt>
      <trkpt lat="48.99846" lon="0.86649">
        <ele>151</ele>
        <time>2017-12-20T13:55:58Z</time>
      </trkpt>
      <trkpt lat="48.99841" lon="0.86659">
        <ele>151</ele>
        <time>2017-12-20T13:55:59Z</time>
      </trkpt>
      <trkpt lat="48.99837" lon="0.86668">
        <ele>151</ele>
        <time>2017-12-20T13:56:00Z</time>
      </trkpt>
      <trkpt lat="48.99832" lon="0.86677">
        <ele>151</ele>
        <time>2017-12-20T13:56:01Z</time>
      </trkpt>
      <trkpt lat="48.99828" lon="0.86687">
        <ele>151</ele>
        <time>2017-12-20T13:56:02Z</time>
      </trkpt>
      <trkpt lat="48.99823" lon="0.86697">
        <ele>150</ele>
        <time>2017-12-20T13:56:03Z</time>
      </trkpt>
      <trkpt lat="48.99818" lon="0.86706">
        <ele>150</ele>
        <time>2017-12-20T13:56:04Z</time>
      </trkpt>
      <trkpt lat="48.99814" lon="0.86715">
        <ele>150</ele>
        <time>2017-12-20T13:56:05Z</time>
      </trkpt>
      <trkpt lat="48.9981" lon="0.86724">
        <ele>150</ele>
        <time>2017-12-20T13:56:06Z</time>
      </trkpt>
      <trkpt lat="48.99806" lon="0.86733">
        <ele>150</ele>
        <time>2017-12-20T13:56:07Z</time>
      </trkpt>
      <trkpt lat="48.99801" lon="0.86742">
        <ele>150</ele>
        <time>2017-12-20T13:56:08Z</time>
      </trkpt>
      <trkpt lat="48.99796" lon="0.86752">
        <ele>150</ele>
        <time>2017-12-20T13:56:09Z</time>
      </trkpt>
      <trkpt lat="48.99791" lon="0.86761">
        <ele>150</ele>
        <time>2017-12-20T13:56:10Z</time>
      </trkpt>
      <trkpt lat="48.99787" lon="0.86771">
        <ele>150</ele>
        <time>2017-12-20T13:56:11Z</time>
      </trkpt>
      <trkpt lat="48.99782" lon="0.86781">
        <ele>150</ele>
        <time>2017-12-20T13:56:12Z</time>
      </trkpt>
      <trkpt lat="48.99777" lon="0.86791">
        <ele>150</ele>
        <time>2017-12-20T13:56:13Z</time>
      </trkpt>
      <trkpt lat="48.99773" lon="0.868">
        <ele>150</ele>
        <time>2017-12-20T13:56:14Z</time>
      </trkpt>
      <trkpt lat="48.99768" lon="0.86809">
        <ele>149</ele>
        <time>2017-12-20T13:56:15Z</time>
      </trkpt>
      <trkpt lat="48.99764" lon="0.86818">
        <ele>149</ele>
        <time>2017-12-20T13:56:16Z</time>
      </trkpt>
      <trkpt lat="48.99759" lon="0.86829">
        <ele>149</ele>
        <time>2017-12-20T13:56:17Z</time>
      </trkpt>
      <trkpt lat="48.99754" lon="0.86838">
        <ele>149</ele>
        <time>2017-12-20T13:56:18Z</time>
      </trkpt>
      <trkpt lat="48.9975" lon="0.86847">
        <ele>149</ele>
        <time>2017-12-20T13:56:19Z</time>
      </trkpt>
      <trkpt lat="48.99746" lon="0.86856">
        <ele>149</ele>
        <time>2017-12-20T13:56:20Z</time>
      </trkpt>
      <trkpt lat="48.99742" lon="0.86865">
        <ele>149</ele>
        <time>2017-12-20T13:56:21Z</time>
      </trkpt>
      <trkpt lat="48.99738" lon="0.86874">
        <ele>149</ele>
        <time>2017-12-20T13:56:22Z</time>
      </trkpt>
      <trkpt lat="48.99733" lon="0.86883">
        <ele>149</ele>
        <time>2017-12-20T13:56:23Z</time>
      </trkpt>
      <trkpt lat="48.99729" lon="0.86892">
        <ele>149</ele>
        <time>2017-12-20T13:56:24Z</time>
      </trkpt>
      <trkpt lat="48.99725" lon="0.86902">
        <ele>149</ele>
        <time>2017-12-20T13:56:25Z</time>
      </trkpt>
      <trkpt lat="48.99721" lon="0.86911">
        <ele>149</ele>
        <time>2017-12-20T13:56:26Z</time>
      </trkpt>
      <trkpt lat="48.99716" lon="0.8692">
        <ele>150</ele>
        <time>2017-12-20T13:56:27Z</time>
      </trkpt>
      <trkpt lat="48.99712" lon="0.86929">
        <ele>150</ele>
        <time>2017-12-20T13:56:28Z</time>
      </trkpt>
      <trkpt lat="48.9971" lon="0.8694">
        <ele>150</ele>
        <time>2017-12-20T13:56:29Z</time>
      </trkpt>
      <trkpt lat="48.9971" lon="0.86951">
        <ele>150</ele>
        <time>2017-12-20T13:56:30Z</time>
      </trkpt>
      <trkpt lat="48.99711" lon="0.86961">
        <ele>150</ele>
        <time>2017-12-20T13:56:31Z</time>
      </trkpt>
      <trkpt lat="48.99713" lon="0.86972">
        <ele>149</ele>
        <time>2017-12-20T13:56:32Z</time>
      </trkpt>
      <trkpt lat="48.99717" lon="0.86981">
        <ele>149</ele>
        <time>2017-12-20T13:56:33Z</time>
      </trkpt>
      <trkpt lat="48.99722" lon="0.8699">
        <ele>149</ele>
        <time>2017-12-20T13:56:34Z</time>
      </trkpt>
      <trkpt lat="48.99727" lon="0.86997">
        <ele>149</ele>
        <time>2017-12-20T13:56:35Z</time>
      </trkpt>
      <trkpt lat="48.99732" lon="0.87004">
        <ele>149</ele>
        <time>2017-12-20T13:56:36Z</time>
      </trkpt>
      <trkpt lat="48.99736" lon="0.87013">
        <ele>148</ele>
        <time>2017-12-20T13:56:37Z</time>
      </trkpt>
      <trkpt lat="48.9974" lon="0.87021">
        <ele>148</ele>
        <time>2017-12-20T13:56:38Z</time>
      </trkpt>
      <trkpt lat="48.99743" lon="0.8703">
        <ele>149</ele>
        <time>2017-12-20T13:56:39Z</time>
      </trkpt>
      <trkpt lat="48.99747" lon="0.87039">
        <ele>149</ele>
        <time>2017-12-20T13:56:40Z</time>
      </trkpt>
      <trkpt lat="48.99751" lon="0.87047">
        <ele>149</ele>
        <time>2017-12-20T13:56:41Z</time>
      </trkpt>
      <trkpt lat="48.99755" lon="0.87054">
        <ele>149</ele>
        <time>2017-12-20T13:56:42Z</time>
      </trkpt>
      <trkpt lat="48.99759" lon="0.87062">
        <ele>149</ele>
        <time>2017-12-20T13:56:43Z</time>
      </trkpt>
      <trkpt lat="48.99762" lon="0.87071">
        <ele>149</ele>
        <time>2017-12-20T13:56:44Z</time>
      </trkpt>
      <trkpt lat="48.99765" lon="0.87079">
        <ele>149</ele>
        <time>2017-12-20T13:56:45Z</time>
      </trkpt>
      <trkpt lat="48.99769" lon="0.87087">
        <ele>150</ele>
        <time>2017-12-20T13:56:46Z</time>
      </trkpt>
      <trkpt lat="48.99773" lon="0.87094">
        <ele>150</ele>
        <time>2017-12-20T13:56:47Z</time>
      </trkpt>
      <trkpt lat="48.99777" lon="0.87101">
        <ele>150</ele>
        <time>2017-12-20T13:56:48Z</time>
      </trkpt>
      <trkpt lat="48.99781" lon="0.87109">
        <ele>150</ele>
        <time>2017-12-20T13:56:49Z</time>
      </trkpt>
      <trkpt lat="48.99784" lon="0.87116">
        <ele>151</ele>
        <time>2017-12-20T13:56:50Z</time>
      </trkpt>
      <trkpt lat="48.99787" lon="0.87124">
        <ele>151</ele>
        <time>2017-12-20T13:56:51Z</time>
      </trkpt>
      <trkpt lat="48.9979" lon="0.87131">
        <ele>151</ele>
        <time>2017-12-20T13:56:52Z</time>
      </trkpt>
      <trkpt lat="48.99794" lon="0.87138">
        <ele>151</ele>
        <time>2017-12-20T13:56:53Z</time>
      </trkpt>
      <trkpt lat="48.99797" lon="0.87144">
        <ele>152</ele>
        <time>2017-12-20T13:56:54Z</time>
      </trkpt>
      <trkpt lat="48.99801" lon="0.87151">
        <ele>152</ele>
        <time>2017-12-20T13:56:55Z</time>
      </trkpt>
      <trkpt lat="48.99805" lon="0.87158">
        <ele>152</ele>
        <time>2017-12-20T13:56:56Z</time>
      </trkpt>
      <trkpt lat="48.99809" lon="0.87165">
        <ele>152</ele>
        <time>2017-12-20T13:56:57Z</time>
      </trkpt>
      <trkpt lat="48.99812" lon="0.87171">
        <ele>152</ele>
        <time>2017-12-20T13:56:58Z</time>
      </trkpt>
      <trkpt lat="48.99815" lon="0.87179">
        <ele>152</ele>
        <time>2017-12-20T13:56:59Z</time>
      </trkpt>
      <trkpt lat="48.99819" lon="0.87187">
        <ele>153</ele>
        <time>2017-12-20T13:57:00Z</time>
      </trkpt>
      <trkpt lat="48.99823" lon="0.87194">
        <ele>154</ele>
        <time>2017-12-20T13:57:01Z</time>
      </trkpt>
      <trkpt lat="48.99826" lon="0.87201">
        <ele>154</ele>
        <time>2017-12-20T13:57:02Z</time>
      </trkpt>
      <trkpt lat="48.99829" lon="0.87207">
        <ele>154</ele>
        <time>2017-12-20T13:57:03Z</time>
      </trkpt>
      <trkpt lat="48.99831" lon="0.87214">
        <ele>154</ele>
        <time>2017-12-20T13:57:04Z</time>
      </trkpt>
      <trkpt lat="48.99834" lon="0.87221">
        <ele>155</ele>
        <time>2017-12-20T13:57:05Z</time>
      </trkpt>
      <trkpt lat="48.99837" lon="0.87229">
        <ele>155</ele>
        <time>2017-12-20T13:57:06Z</time>
      </trkpt>
      <trkpt lat="48.99839" lon="0.87236">
        <ele>155</ele>
        <time>2017-12-20T13:57:07Z</time>
      </trkpt>
      <trkpt lat="48.99842" lon="0.87243">
        <ele>155</ele>
        <time>2017-12-20T13:57:08Z</time>
      </trkpt>
      <trkpt lat="48.99844" lon="0.87251">
        <ele>155</ele>
        <time>2017-12-20T13:57:09Z</time>
      </trkpt>
      <trkpt lat="48.99846" lon="0.87259">
        <ele>155</ele>
        <time>2017-12-20T13:57:10Z</time>
      </trkpt>
      <trkpt lat="48.99849" lon="0.87266">
        <ele>155</ele>
        <time>2017-12-20T13:57:11Z</time>
      </trkpt>
      <trkpt lat="48.99854" lon="0.87278">
        <ele>155</ele>
        <time>2017-12-20T13:57:13Z</time>
      </trkpt>
      <trkpt lat="48.99856" lon="0.87284">
        <ele>155</ele>
        <time>2017-12-20T13:57:14Z</time>
      </trkpt>
      <trkpt lat="48.99858" lon="0.87291">
        <ele>155</ele>
        <time>2017-12-20T13:57:15Z</time>
      </trkpt>
      <trkpt lat="48.99859" lon="0.87297">
        <ele>155</ele>
        <time>2017-12-20T13:57:16Z</time>
      </trkpt>
      <trkpt lat="48.99862" lon="0.87304">
        <ele>155</ele>
        <time>2017-12-20T13:57:17Z</time>
      </trkpt>
      <trkpt lat="48.99865" lon="0.8731">
        <ele>155</ele>
        <time>2017-12-20T13:57:18Z</time>
      </trkpt>
      <trkpt lat="48.99868" lon="0.87321">
        <ele>155</ele>
        <time>2017-12-20T13:57:20Z</time>
      </trkpt>
      <trkpt lat="48.99871" lon="0.87327">
        <ele>155</ele>
        <time>2017-12-20T13:57:21Z</time>
      </trkpt>
      <trkpt lat="48.99873" lon="0.87333">
        <ele>155</ele>
        <time>2017-12-20T13:57:22Z</time>
      </trkpt>
      <trkpt lat="48.99874" lon="0.87341">
        <ele>155</ele>
        <time>2017-12-20T13:57:23Z</time>
      </trkpt>
      <trkpt lat="48.99876" lon="0.87351">
        <ele>154</ele>
        <time>2017-12-20T13:57:24Z</time>
      </trkpt>
      <trkpt lat="48.99878" lon="0.87363">
        <ele>153</ele>
        <time>2017-12-20T13:57:25Z</time>
      </trkpt>
      <trkpt lat="48.9988" lon="0.87373">
        <ele>153</ele>
        <time>2017-12-20T13:57:26Z</time>
      </trkpt>
      <trkpt lat="48.99882" lon="0.87384">
        <ele>153</ele>
        <time>2017-12-20T13:57:27Z</time>
      </trkpt>
      <trkpt lat="48.99884" lon="0.87395">
        <ele>153</ele>
        <time>2017-12-20T13:57:28Z</time>
      </trkpt>
      <trkpt lat="48.99887" lon="0.87405">
        <ele>153</ele>
        <time>2017-12-20T13:57:29Z</time>
      </trkpt>
      <trkpt lat="48.99889" lon="0.87415">
        <ele>153</ele>
        <time>2017-12-20T13:57:30Z</time>
      </trkpt>
      <trkpt lat="48.99891" lon="0.87424">
        <ele>153</ele>
        <time>2017-12-20T13:57:31Z</time>
      </trkpt>
      <trkpt lat="48.99894" lon="0.87433">
        <ele>153</ele>
        <time>2017-12-20T13:57:32Z</time>
      </trkpt>
      <trkpt lat="48.99896" lon="0.87442">
        <ele>153</ele>
        <time>2017-12-20T13:57:33Z</time>
      </trkpt>
      <trkpt lat="48.99897" lon="0.8745">
        <ele>153</ele>
        <time>2017-12-20T13:57:34Z</time>
      </trkpt>
      <trkpt lat="48.999" lon="0.87459">
        <ele>153</ele>
        <time>2017-12-20T13:57:35Z</time>
      </trkpt>
      <trkpt lat="48.99902" lon="0.87467">
        <ele>153</ele>
        <time>2017-12-20T13:57:36Z</time>
      </trkpt>
      <trkpt lat="48.99904" lon="0.87476">
        <ele>153</ele>
        <time>2017-12-20T13:57:37Z</time>
      </trkpt>
      <trkpt lat="48.99906" lon="0.87484">
        <ele>153</ele>
        <time>2017-12-20T13:57:38Z</time>
      </trkpt>
      <trkpt lat="48.99908" lon="0.87492">
        <ele>153</ele>
        <time>2017-12-20T13:57:39Z</time>
      </trkpt>
      <trkpt lat="48.99911" lon="0.87501">
        <ele>153</ele>
        <time>2017-12-20T13:57:40Z</time>
      </trkpt>
      <trkpt lat="48.99913" lon="0.87509">
        <ele>153</ele>
        <time>2017-12-20T13:57:41Z</time>
      </trkpt>
      <trkpt lat="48.99915" lon="0.87518">
        <ele>153</ele>
        <time>2017-12-20T13:57:42Z</time>
      </trkpt>
      <trkpt lat="48.99917" lon="0.87526">
        <ele>153</ele>
        <time>2017-12-20T13:57:43Z</time>
      </trkpt>
      <trkpt lat="48.99919" lon="0.87535">
        <ele>153</ele>
        <time>2017-12-20T13:57:44Z</time>
      </trkpt>
      <trkpt lat="48.99921" lon="0.87543">
        <ele>153</ele>
        <time>2017-12-20T13:57:45Z</time>
      </trkpt>
      <trkpt lat="48.99923" lon="0.87551">
        <ele>153</ele>
        <time>2017-12-20T13:57:46Z</time>
      </trkpt>
      <trkpt lat="48.99926" lon="0.87559">
        <ele>153</ele>
        <time>2017-12-20T13:57:47Z</time>
      </trkpt>
      <trkpt lat="48.99928" lon="0.87567">
        <ele>153</ele>
        <time>2017-12-20T13:57:48Z</time>
      </trkpt>
      <trkpt lat="48.99931" lon="0.87575">
        <ele>153</ele>
        <time>2017-12-20T13:57:49Z</time>
      </trkpt>
      <trkpt lat="48.99933" lon="0.87583">
        <ele>153</ele>
        <time>2017-12-20T13:57:50Z</time>
      </trkpt>
      <trkpt lat="48.99935" lon="0.87591">
        <ele>153</ele>
        <time>2017-12-20T13:57:51Z</time>
      </trkpt>
      <trkpt lat="48.99937" lon="0.87599">
        <ele>153</ele>
        <time>2017-12-20T13:57:52Z</time>
      </trkpt>
      <trkpt lat="48.9994" lon="0.87607">
        <ele>153</ele>
        <time>2017-12-20T13:57:53Z</time>
      </trkpt>
      <trkpt lat="48.99942" lon="0.87615">
        <ele>153</ele>
        <time>2017-12-20T13:57:54Z</time>
      </trkpt>
      <trkpt lat="48.99944" lon="0.87624">
        <ele>153</ele>
        <time>2017-12-20T13:57:55Z</time>
      </trkpt>
      <trkpt lat="48.99947" lon="0.87632">
        <ele>153</ele>
        <time>2017-12-20T13:57:56Z</time>
      </trkpt>
      <trkpt lat="48.99949" lon="0.87641">
        <ele>153</ele>
        <time>2017-12-20T13:57:57Z</time>
      </trkpt>
      <trkpt lat="48.99951" lon="0.87649">
        <ele>153</ele>
        <time>2017-12-20T13:57:58Z</time>
      </trkpt>
      <trkpt lat="48.99953" lon="0.87658">
        <ele>153</ele>
        <time>2017-12-20T13:57:59Z</time>
      </trkpt>
      <trkpt lat="48.99955" lon="0.87667">
        <ele>153</ele>
        <time>2017-12-20T13:58:00Z</time>
      </trkpt>
      <trkpt lat="48.99957" lon="0.87675">
        <ele>153</ele>
        <time>2017-12-20T13:58:01Z</time>
      </trkpt>
      <trkpt lat="48.99959" lon="0.87683">
        <ele>153</ele>
        <time>2017-12-20T13:58:02Z</time>
      </trkpt>
      <trkpt lat="48.99961" lon="0.87692">
        <ele>153</ele>
        <time>2017-12-20T13:58:03Z</time>
      </trkpt>
      <trkpt lat="48.99963" lon="0.877">
        <ele>152</ele>
        <time>2017-12-20T13:58:04Z</time>
      </trkpt>
      <trkpt lat="48.99965" lon="0.87708">
        <ele>152</ele>
        <time>2017-12-20T13:58:05Z</time>
      </trkpt>
      <trkpt lat="48.99968" lon="0.87715">
        <ele>152</ele>
        <time>2017-12-20T13:58:06Z</time>
      </trkpt>
      <trkpt lat="48.9997" lon="0.87724">
        <ele>152</ele>
        <time>2017-12-20T13:58:07Z</time>
      </trkpt>
      <trkpt lat="48.99972" lon="0.87732">
        <ele>152</ele>
        <time>2017-12-20T13:58:08Z</time>
      </trkpt>
      <trkpt lat="48.99974" lon="0.8774">
        <ele>152</ele>
        <time>2017-12-20T13:58:09Z</time>
      </trkpt>
      <trkpt lat="48.99976" lon="0.87748">
        <ele>152</ele>
        <time>2017-12-20T13:58:10Z</time>
      </trkpt>
      <trkpt lat="48.99978" lon="0.87755">
        <ele>152</ele>
        <time>2017-12-20T13:58:11Z</time>
      </trkpt>
      <trkpt lat="48.9998" lon="0.87763">
        <ele>152</ele>
        <time>2017-12-20T13:58:12Z</time>
      </trkpt>
      <trkpt lat="48.99982" lon="0.87771">
        <ele>152</ele>
        <time>2017-12-20T13:58:13Z</time>
      </trkpt>
      <trkpt lat="48.99984" lon="0.87778">
        <ele>152</ele>
        <time>2017-12-20T13:58:14Z</time>
      </trkpt>
      <trkpt lat="48.99986" lon="0.87787">
        <ele>152</ele>
        <time>2017-12-20T13:58:15Z</time>
      </trkpt>
      <trkpt lat="48.99988" lon="0.87795">
        <ele>151</ele>
        <time>2017-12-20T13:58:16Z</time>
      </trkpt>
      <trkpt lat="48.9999" lon="0.87803">
        <ele>151</ele>
        <time>2017-12-20T13:58:17Z</time>
      </trkpt>
      <trkpt lat="48.99992" lon="0.87811">
        <ele>151</ele>
        <time>2017-12-20T13:58:18Z</time>
      </trkpt>
      <trkpt lat="48.99994" lon="0.8782">
        <ele>151</ele>
        <time>2017-12-20T13:58:19Z</time>
      </trkpt>
      <trkpt lat="48.99996" lon="0.87829">
        <ele>151</ele>
        <time>2017-12-20T13:58:20Z</time>
      </trkpt>
      <trkpt lat="48.99998" lon="0.87838">
        <ele>151</ele>
        <time>2017-12-20T13:58:21Z</time>
      </trkpt>
      <trkpt lat="49" lon="0.87847">
        <ele>151</ele>
        <time>2017-12-20T13:58:22Z</time>
      </trkpt>
      <trkpt lat="49.00002" lon="0.87856">
        <ele>151</ele>
        <time>2017-12-20T13:58:23Z</time>
      </trkpt>
      <trkpt lat="49.00005" lon="0.87864">
        <ele>151</ele>
        <time>2017-12-20T13:58:24Z</time>
      </trkpt>
      <trkpt lat="49.00007" lon="0.87873">
        <ele>151</ele>
        <time>2017-12-20T13:58:25Z</time>
      </trkpt>
      <trkpt lat="49.00009" lon="0.87882">
        <ele>150</ele>
        <time>2017-12-20T13:58:26Z</time>
      </trkpt>
      <trkpt lat="49.00011" lon="0.8789">
        <ele>150</ele>
        <time>2017-12-20T13:58:27Z</time>
      </trkpt>
      <trkpt lat="49.00014" lon="0.87899">
        <ele>150</ele>
        <time>2017-12-20T13:58:28Z</time>
      </trkpt>
      <trkpt lat="49.00016" lon="0.87908">
        <ele>150</ele>
        <time>2017-12-20T13:58:29Z</time>
      </trkpt>
      <trkpt lat="49.00018" lon="0.87916">
        <ele>150</ele>
        <time>2017-12-20T13:58:30Z</time>
      </trkpt>
      <trkpt lat="49.0002" lon="0.87924">
        <ele>150</ele>
        <time>2017-12-20T13:58:31Z</time>
      </trkpt>
      <trkpt lat="49.00023" lon="0.87932">
        <ele>150</ele>
        <time>2017-12-20T13:58:32Z</time>
      </trkpt>
      <trkpt lat="49.00025" lon="0.87941">
        <ele>150</ele>
        <time>2017-12-20T13:58:33Z</time>
      </trkpt>
      <trkpt lat="49.00027" lon="0.87949">
        <ele>150</ele>
        <time>2017-12-20T13:58:34Z</time>
      </trkpt>
      <trkpt lat="49.00029" lon="0.87958">
        <ele>149</ele>
        <time>2017-12-20T13:58:35Z</time>
      </trkpt>
      <trkpt lat="49.00031" lon="0.87967">
        <ele>149</ele>
        <time>2017-12-20T13:58:36Z</time>
      </trkpt>
      <trkpt lat="49.00033" lon="0.87975">
        <ele>149</ele>
        <time>2017-12-20T13:58:37Z</time>
      </trkpt>
      <trkpt lat="49.00036" lon="0.87983">
        <ele>149</ele>
        <time>2017-12-20T13:58:38Z</time>
      </trkpt>
      <trkpt lat="49.00037" lon="0.87992">
        <ele>149</ele>
        <time>2017-12-20T13:58:39Z</time>
      </trkpt>
      <trkpt lat="49.0004" lon="0.88">
        <ele>149</ele>
        <time>2017-12-20T13:58:40Z</time>
      </trkpt>
      <trkpt lat="49.00042" lon="0.88008">
        <ele>149</ele>
        <time>2017-12-20T13:58:41Z</time>
      </trkpt>
      <trkpt lat="49.00044" lon="0.88017">
        <ele>149</ele>
        <time>2017-12-20T13:58:42Z</time>
      </trkpt>
      <trkpt lat="49.00046" lon="0.88025">
        <ele>149</ele>
        <time>2017-12-20T13:58:43Z</time>
      </trkpt>
      <trkpt lat="49.00048" lon="0.88033">
        <ele>150</ele>
        <time>2017-12-20T13:58:44Z</time>
      </trkpt>
      <trkpt lat="49.0005" lon="0.88041">
        <ele>150</ele>
        <time>2017-12-20T13:58:45Z</time>
      </trkpt>
      <trkpt lat="49.00052" lon="0.88048">
        <ele>150</ele>
        <time>2017-12-20T13:58:46Z</time>
      </trkpt>
      <trkpt lat="49.00054" lon="0.88056">
        <ele>150</ele>
        <time>2017-12-20T13:58:47Z</time>
      </trkpt>
      <trkpt lat="49.00056" lon="0.88063">
        <ele>150</ele>
        <time>2017-12-20T13:58:48Z</time>
      </trkpt>
      <trkpt lat="49.00057" lon="0.8807">
        <ele>150</ele>
        <time>2017-12-20T13:58:49Z</time>
      </trkpt>
      <trkpt lat="49.00059" lon="0.88076">
        <ele>150</ele>
        <time>2017-12-20T13:58:50Z</time>
      </trkpt>
      <trkpt lat="49.00061" lon="0.88083">
        <ele>151</ele>
        <time>2017-12-20T13:58:51Z</time>
      </trkpt>
      <trkpt lat="49.00063" lon="0.88089">
        <ele>151</ele>
        <time>2017-12-20T13:58:52Z</time>
      </trkpt>
      <trkpt lat="49.00065" lon="0.88096">
        <ele>151</ele>
        <time>2017-12-20T13:58:53Z</time>
      </trkpt>
      <trkpt lat="49.00068" lon="0.88102">
        <ele>151</ele>
        <time>2017-12-20T13:58:54Z</time>
      </trkpt>
      <trkpt lat="49.00074" lon="0.88112">
        <ele>152</ele>
        <time>2017-12-20T13:58:56Z</time>
      </trkpt>
      <trkpt lat="49.00081" lon="0.8812">
        <ele>152</ele>
        <time>2017-12-20T13:58:58Z</time>
      </trkpt>
      <trkpt lat="49.00087" lon="0.88125">
        <ele>152</ele>
        <time>2017-12-20T13:59:00Z</time>
      </trkpt>
      <trkpt lat="49.00093" lon="0.88132">
        <ele>152</ele>
        <time>2017-12-20T13:59:02Z</time>
      </trkpt>
      <trkpt lat="49.00096" lon="0.88139">
        <ele>152</ele>
        <time>2017-12-20T13:59:04Z</time>
      </trkpt>
      <trkpt lat="49.00095" lon="0.88149">
        <ele>152</ele>
        <time>2017-12-20T13:59:07Z</time>
      </trkpt>
      <trkpt lat="49.00092" lon="0.88154">
        <ele>153</ele>
        <time>2017-12-20T13:59:09Z</time>
      </trkpt>
      <trkpt lat="49.00087" lon="0.88161">
        <ele>153</ele>
        <time>2017-12-20T13:59:11Z</time>
      </trkpt>
      <trkpt lat="49.00081" lon="0.88165">
        <ele>153</ele>
        <time>2017-12-20T13:59:13Z</time>
      </trkpt>
      <trkpt lat="49.00073" lon="0.8817">
        <ele>153</ele>
        <time>2017-12-20T13:59:15Z</time>
      </trkpt>
      <trkpt lat="49.00066" lon="0.88177">
        <ele>153</ele>
        <time>2017-12-20T13:59:17Z</time>
      </trkpt>
      <trkpt lat="49.00059" lon="0.88182">
        <ele>153</ele>
        <time>2017-12-20T13:59:19Z</time>
      </trkpt>
      <trkpt lat="49.00051" lon="0.88187">
        <ele>153</ele>
        <time>2017-12-20T13:59:21Z</time>
      </trkpt>
      <trkpt lat="49.00043" lon="0.88192">
        <ele>153</ele>
        <time>2017-12-20T13:59:23Z</time>
      </trkpt>
      <trkpt lat="49.00039" lon="0.88194">
        <ele>153</ele>
        <time>2017-12-20T13:59:24Z</time>
      </trkpt>
      <trkpt lat="49.00034" lon="0.88197">
        <ele>153</ele>
        <time>2017-12-20T13:59:25Z</time>
      </trkpt>
      <trkpt lat="49.00029" lon="0.882">
        <ele>153</ele>
        <time>2017-12-20T13:59:26Z</time>
      </trkpt>
      <trkpt lat="49.00025" lon="0.88202">
        <ele>153</ele>
        <time>2017-12-20T13:59:27Z</time>
      </trkpt>
      <trkpt lat="49.00017" lon="0.88206">
        <ele>153</ele>
        <time>2017-12-20T13:59:29Z</time>
      </trkpt>
      <trkpt lat="49.00009" lon="0.88208">
        <ele>154</ele>
        <time>2017-12-20T13:59:31Z</time>
      </trkpt>
      <trkpt lat="49.00001" lon="0.8821">
        <ele>154</ele>
        <time>2017-12-20T13:59:33Z</time>
      </trkpt>
      <trkpt lat="48.99992" lon="0.88211">
        <ele>154</ele>
        <time>2017-12-20T13:59:35Z</time>
      </trkpt>
      <trkpt lat="48.99988" lon="0.88212">
        <ele>154</ele>
        <time>2017-12-20T13:59:36Z</time>
      </trkpt>
      <trkpt lat="48.99979" lon="0.88213">
        <ele>154</ele>
        <time>2017-12-20T13:59:38Z</time>
      </trkpt>
      <trkpt lat="48.99974" lon="0.88214">
        <ele>154</ele>
        <time>2017-12-20T13:59:39Z</time>
      </trkpt>
      <trkpt lat="48.9997" lon="0.88214">
        <ele>155</ele>
        <time>2017-12-20T13:59:40Z</time>
      </trkpt>
      <trkpt lat="48.99965" lon="0.88215">
        <ele>155</ele>
        <time>2017-12-20T13:59:41Z</time>
      </trkpt>
      <trkpt lat="48.9996" lon="0.88216">
        <ele>155</ele>
        <time>2017-12-20T13:59:42Z</time>
      </trkpt>
      <trkpt lat="48.99955" lon="0.88217">
        <ele>155</ele>
        <time>2017-12-20T13:59:43Z</time>
      </trkpt>
      <trkpt lat="48.99951" lon="0.88218">
        <ele>155</ele>
        <time>2017-12-20T13:59:44Z</time>
      </trkpt>
      <trkpt lat="48.99942" lon="0.88219">
        <ele>155</ele>
        <time>2017-12-20T13:59:46Z</time>
      </trkpt>
      <trkpt lat="48.99934" lon="0.88222">
        <ele>155</ele>
        <time>2017-12-20T13:59:48Z</time>
      </trkpt>
      <trkpt lat="48.99927" lon="0.88227">
        <ele>155</ele>
        <time>2017-12-20T13:59:50Z</time>
      </trkpt>
      <trkpt lat="48.99923" lon="0.8823">
        <ele>155</ele>
        <time>2017-12-20T13:59:51Z</time>
      </trkpt>
      <trkpt lat="48.99918" lon="0.88233">
        <ele>155</ele>
        <time>2017-12-20T13:59:52Z</time>
      </trkpt>
      <trkpt lat="48.99911" lon="0.88238">
        <ele>155</ele>
        <time>2017-12-20T13:59:54Z</time>
      </trkpt>
      <trkpt lat="48.99903" lon="0.88243">
        <ele>155</ele>
        <time>2017-12-20T13:59:56Z</time>
      </trkpt>
      <trkpt lat="48.99897" lon="0.88245">
        <ele>155</ele>
        <time>2017-12-20T13:59:58Z</time>
      </trkpt>
      <trkpt lat="48.99889" lon="0.88249">
        <ele>155</ele>
        <time>2017-12-20T14:00:00Z</time>
      </trkpt>
      <trkpt lat="48.99883" lon="0.88254">
        <ele>155</ele>
        <time>2017-12-20T14:00:02Z</time>
      </trkpt>
      <trkpt lat="48.99875" lon="0.88258">
        <ele>155</ele>
        <time>2017-12-20T14:00:04Z</time>
      </trkpt>
      <trkpt lat="48.99871" lon="0.88261">
        <ele>155</ele>
        <time>2017-12-20T14:00:05Z</time>
      </trkpt>
      <trkpt lat="48.99866" lon="0.88264">
        <ele>155</ele>
        <time>2017-12-20T14:00:06Z</time>
      </trkpt>
      <trkpt lat="48.99858" lon="0.88268">
        <ele>156</ele>
        <time>2017-12-20T14:00:08Z</time>
      </trkpt>
      <trkpt lat="48.9985" lon="0.88274">
        <ele>156</ele>
        <time>2017-12-20T14:00:10Z</time>
      </trkpt>
      <trkpt lat="48.99842" lon="0.88278">
        <ele>156</ele>
        <time>2017-12-20T14:00:12Z</time>
      </trkpt>
      <trkpt lat="48.99838" lon="0.88282">
        <ele>156</ele>
        <time>2017-12-20T14:00:13Z</time>
      </trkpt>
      <trkpt lat="48.9983" lon="0.88287">
        <ele>156</ele>
        <time>2017-12-20T14:00:15Z</time>
      </trkpt>
      <trkpt lat="48.99825" lon="0.8829">
        <ele>156</ele>
        <time>2017-12-20T14:00:16Z</time>
      </trkpt>
      <trkpt lat="48.99818" lon="0.88297">
        <ele>157</ele>
        <time>2017-12-20T14:00:18Z</time>
      </trkpt>
      <trkpt lat="48.99813" lon="0.883">
        <ele>157</ele>
        <time>2017-12-20T14:00:19Z</time>
      </trkpt>
      <trkpt lat="48.99805" lon="0.88305">
        <ele>156</ele>
        <time>2017-12-20T14:00:21Z</time>
      </trkpt>
      <trkpt lat="48.99801" lon="0.88308">
        <ele>156</ele>
        <time>2017-12-20T14:00:22Z</time>
      </trkpt>
      <trkpt lat="48.99793" lon="0.88314">
        <ele>156</ele>
        <time>2017-12-20T14:00:24Z</time>
      </trkpt>
      <trkpt lat="48.99786" lon="0.88319">
        <ele>156</ele>
        <time>2017-12-20T14:00:26Z</time>
      </trkpt>
      <trkpt lat="48.99781" lon="0.88324">
        <ele>156</ele>
        <time>2017-12-20T14:00:27Z</time>
      </trkpt>
      <trkpt lat="48.99775" lon="0.88328">
        <ele>156</ele>
        <time>2017-12-20T14:00:29Z</time>
      </trkpt>
      <trkpt lat="48.99769" lon="0.88331">
        <ele>156</ele>
        <time>2017-12-20T14:00:31Z</time>
      </trkpt>
      <trkpt lat="48.99762" lon="0.88334">
        <ele>155</ele>
        <time>2017-12-20T14:00:33Z</time>
      </trkpt>
      <trkpt lat="48.99757" lon="0.88335">
        <ele>155</ele>
        <time>2017-12-20T14:00:35Z</time>
      </trkpt>
      <trkpt lat="48.99751" lon="0.88337">
        <ele>155</ele>
        <time>2017-12-20T14:00:37Z</time>
      </trkpt>
      <trkpt lat="48.99746" lon="0.88342">
        <ele>155</ele>
        <time>2017-12-20T14:00:39Z</time>
      </trkpt>
      <trkpt lat="48.9974" lon="0.88345">
        <ele>154</ele>
        <time>2017-12-20T14:00:41Z</time>
      </trkpt>
      <trkpt lat="48.99735" lon="0.8835">
        <ele>154</ele>
        <time>2017-12-20T14:00:44Z</time>
      </trkpt>
      <trkpt lat="48.9973" lon="0.88353">
        <ele>154</ele>
        <time>2017-12-20T14:00:47Z</time>
      </trkpt>
      <trkpt lat="48.99726" lon="0.88358">
        <ele>154</ele>
        <time>2017-12-20T14:00:50Z</time>
      </trkpt>
      <trkpt lat="48.99721" lon="0.88359">
        <ele>154</ele>
        <time>2017-12-20T14:00:56Z</time>
      </trkpt>
      <trkpt lat="48.99716" lon="0.88363">
        <ele>154</ele>
        <time>2017-12-20T14:00:59Z</time>
      </trkpt>
      <trkpt lat="48.99709" lon="0.88363">
        <ele>154</ele>
        <time>2017-12-20T14:01:02Z</time>
      </trkpt>
      <trkpt lat="48.99702" lon="0.88364">
        <ele>154</ele>
        <time>2017-12-20T14:01:04Z</time>
      </trkpt>
      <trkpt lat="48.99695" lon="0.88366">
        <ele>154</ele>
        <time>2017-12-20T14:01:06Z</time>
      </trkpt>
      <trkpt lat="48.9969" lon="0.88367">
        <ele>154</ele>
        <time>2017-12-20T14:01:08Z</time>
      </trkpt>
      <trkpt lat="48.9968" lon="0.88369">
        <ele>154</ele>
        <time>2017-12-20T14:01:10Z</time>
      </trkpt>
      <trkpt lat="48.99675" lon="0.8837">
        <ele>154</ele>
        <time>2017-12-20T14:01:11Z</time>
      </trkpt>
      <trkpt lat="48.99671" lon="0.88371">
        <ele>155</ele>
        <time>2017-12-20T14:01:12Z</time>
      </trkpt>
      <trkpt lat="48.99663" lon="0.88373">
        <ele>155</ele>
        <time>2017-12-20T14:01:14Z</time>
      </trkpt>
      <trkpt lat="48.99659" lon="0.88373">
        <ele>155</ele>
        <time>2017-12-20T14:01:16Z</time>
      </trkpt>
      <trkpt lat="48.99651" lon="0.88376">
        <ele>154</ele>
        <time>2017-12-20T14:01:18Z</time>
      </trkpt>
      <trkpt lat="48.99644" lon="0.88378">
        <ele>154</ele>
        <time>2017-12-20T14:01:20Z</time>
      </trkpt>
      <trkpt lat="48.99635" lon="0.8838">
        <ele>154</ele>
        <time>2017-12-20T14:01:22Z</time>
      </trkpt>
      <trkpt lat="48.99628" lon="0.88382">
        <ele>154</ele>
        <time>2017-12-20T14:01:24Z</time>
      </trkpt>
      <trkpt lat="48.9962" lon="0.88384">
        <ele>153</ele>
        <time>2017-12-20T14:01:26Z</time>
      </trkpt>
      <trkpt lat="48.99616" lon="0.88384">
        <ele>153</ele>
        <time>2017-12-20T14:01:27Z</time>
      </trkpt>
      <trkpt lat="48.99609" lon="0.88386">
        <ele>153</ele>
        <time>2017-12-20T14:01:29Z</time>
      </trkpt>
      <trkpt lat="48.99602" lon="0.88389">
        <ele>153</ele>
        <time>2017-12-20T14:01:31Z</time>
      </trkpt>
      <trkpt lat="48.99593" lon="0.88393">
        <ele>153</ele>
        <time>2017-12-20T14:01:33Z</time>
      </trkpt>
      <trkpt lat="48.99587" lon="0.88396">
        <ele>154</ele>
        <time>2017-12-20T14:01:34Z</time>
      </trkpt>
      <trkpt lat="48.99582" lon="0.88399">
        <ele>154</ele>
        <time>2017-12-20T14:01:35Z</time>
      </trkpt>
      <trkpt lat="48.99576" lon="0.88401">
        <ele>154</ele>
        <time>2017-12-20T14:01:36Z</time>
      </trkpt>
      <trkpt lat="48.99571" lon="0.88403">
        <ele>153</ele>
        <time>2017-12-20T14:01:37Z</time>
      </trkpt>
      <trkpt lat="48.99565" lon="0.88406">
        <ele>153</ele>
        <time>2017-12-20T14:01:38Z</time>
      </trkpt>
      <trkpt lat="48.99559" lon="0.88408">
        <ele>153</ele>
        <time>2017-12-20T14:01:39Z</time>
      </trkpt>
      <trkpt lat="48.99553" lon="0.8841">
        <ele>153</ele>
        <time>2017-12-20T14:01:40Z</time>
      </trkpt>
      <trkpt lat="48.99547" lon="0.88412">
        <ele>153</ele>
        <time>2017-12-20T14:01:41Z</time>
      </trkpt>
      <trkpt lat="48.99542" lon="0.88416">
        <ele>153</ele>
        <time>2017-12-20T14:01:42Z</time>
      </trkpt>
      <trkpt lat="48.99536" lon="0.88417">
        <ele>153</ele>
        <time>2017-12-20T14:01:43Z</time>
      </trkpt>
      <trkpt lat="48.9953" lon="0.88419">
        <ele>153</ele>
        <time>2017-12-20T14:01:44Z</time>
      </trkpt>
      <trkpt lat="48.99525" lon="0.88421">
        <ele>153</ele>
        <time>2017-12-20T14:01:45Z</time>
      </trkpt>
      <trkpt lat="48.9952" lon="0.88423">
        <ele>153</ele>
        <time>2017-12-20T14:01:46Z</time>
      </trkpt>
      <trkpt lat="48.99515" lon="0.88426">
        <ele>153</ele>
        <time>2017-12-20T14:01:47Z</time>
      </trkpt>
      <trkpt lat="48.99511" lon="0.88429">
        <ele>153</ele>
        <time>2017-12-20T14:01:48Z</time>
      </trkpt>
      <trkpt lat="48.99507" lon="0.88433">
        <ele>153</ele>
        <time>2017-12-20T14:01:49Z</time>
      </trkpt>
      <trkpt lat="48.99502" lon="0.88438">
        <ele>152</ele>
        <time>2017-12-20T14:01:50Z</time>
      </trkpt>
      <trkpt lat="48.99498" lon="0.88441">
        <ele>152</ele>
        <time>2017-12-20T14:01:51Z</time>
      </trkpt>
      <trkpt lat="48.9949" lon="0.88448">
        <ele>152</ele>
        <time>2017-12-20T14:01:53Z</time>
      </trkpt>
      <trkpt lat="48.99485" lon="0.88453">
        <ele>152</ele>
        <time>2017-12-20T14:01:54Z</time>
      </trkpt>
      <trkpt lat="48.9948" lon="0.88457">
        <ele>152</ele>
        <time>2017-12-20T14:01:55Z</time>
      </trkpt>
      <trkpt lat="48.99476" lon="0.88462">
        <ele>152</ele>
        <time>2017-12-20T14:01:56Z</time>
      </trkpt>
      <trkpt lat="48.99472" lon="0.88467">
        <ele>152</ele>
        <time>2017-12-20T14:01:57Z</time>
      </trkpt>
      <trkpt lat="48.99468" lon="0.88472">
        <ele>152</ele>
        <time>2017-12-20T14:01:58Z</time>
      </trkpt>
      <trkpt lat="48.99463" lon="0.88478">
        <ele>151</ele>
        <time>2017-12-20T14:01:59Z</time>
      </trkpt>
      <trkpt lat="48.99458" lon="0.88483">
        <ele>151</ele>
        <time>2017-12-20T14:02:00Z</time>
      </trkpt>
      <trkpt lat="48.99454" lon="0.88489">
        <ele>151</ele>
        <time>2017-12-20T14:02:01Z</time>
      </trkpt>
      <trkpt lat="48.9945" lon="0.88493">
        <ele>151</ele>
        <time>2017-12-20T14:02:02Z</time>
      </trkpt>
      <trkpt lat="48.99446" lon="0.88498">
        <ele>151</ele>
        <time>2017-12-20T14:02:03Z</time>
      </trkpt>
      <trkpt lat="48.99442" lon="0.88503">
        <ele>151</ele>
        <time>2017-12-20T14:02:04Z</time>
      </trkpt>
      <trkpt lat="48.99439" lon="0.88509">
        <ele>151</ele>
        <time>2017-12-20T14:02:05Z</time>
      </trkpt>
      <trkpt lat="48.9943" lon="0.88516">
        <ele>151</ele>
        <time>2017-12-20T14:02:07Z</time>
      </trkpt>
      <trkpt lat="48.99426" lon="0.8852">
        <ele>151</ele>
        <time>2017-12-20T14:02:08Z</time>
      </trkpt>
      <trkpt lat="48.99418" lon="0.88527">
        <ele>151</ele>
        <time>2017-12-20T14:02:10Z</time>
      </trkpt>
      <trkpt lat="48.99414" lon="0.88532">
        <ele>151</ele>
        <time>2017-12-20T14:02:11Z</time>
      </trkpt>
      <trkpt lat="48.9941" lon="0.88536">
        <ele>151</ele>
        <time>2017-12-20T14:02:12Z</time>
      </trkpt>
      <trkpt lat="48.99405" lon="0.8854">
        <ele>152</ele>
        <time>2017-12-20T14:02:13Z</time>
      </trkpt>
      <trkpt lat="48.994" lon="0.88543">
        <ele>152</ele>
        <time>2017-12-20T14:02:14Z</time>
      </trkpt>
      <trkpt lat="48.99395" lon="0.88543">
        <ele>153</ele>
        <time>2017-12-20T14:02:15Z</time>
      </trkpt>
      <trkpt lat="48.99389" lon="0.88543">
        <ele>154</ele>
        <time>2017-12-20T14:02:16Z</time>
      </trkpt>
      <trkpt lat="48.99383" lon="0.88543">
        <ele>154</ele>
        <time>2017-12-20T14:02:17Z</time>
      </trkpt>
      <trkpt lat="48.99377" lon="0.88544">
        <ele>155</ele>
        <time>2017-12-20T14:02:18Z</time>
      </trkpt>
      <trkpt lat="48.99371" lon="0.88544">
        <ele>155</ele>
        <time>2017-12-20T14:02:19Z</time>
      </trkpt>
      <trkpt lat="48.99364" lon="0.88544">
        <ele>154</ele>
        <time>2017-12-20T14:02:20Z</time>
      </trkpt>
      <trkpt lat="48.99358" lon="0.88544">
        <ele>154</ele>
        <time>2017-12-20T14:02:21Z</time>
      </trkpt>
      <trkpt lat="48.99352" lon="0.88544">
        <ele>155</ele>
        <time>2017-12-20T14:02:22Z</time>
      </trkpt>
      <trkpt lat="48.99345" lon="0.88544">
        <ele>155</ele>
        <time>2017-12-20T14:02:23Z</time>
      </trkpt>
      <trkpt lat="48.9934" lon="0.88543">
        <ele>155</ele>
        <time>2017-12-20T14:02:24Z</time>
      </trkpt>
      <trkpt lat="48.99334" lon="0.88542">
        <ele>154</ele>
        <time>2017-12-20T14:02:25Z</time>
      </trkpt>
      <trkpt lat="48.99328" lon="0.88541">
        <ele>154</ele>
        <time>2017-12-20T14:02:26Z</time>
      </trkpt>
      <trkpt lat="48.99322" lon="0.88538">
        <ele>153</ele>
        <time>2017-12-20T14:02:27Z</time>
      </trkpt>
      <trkpt lat="48.99316" lon="0.88536">
        <ele>153</ele>
        <time>2017-12-20T14:02:28Z</time>
      </trkpt>
      <trkpt lat="48.9931" lon="0.88534">
        <ele>153</ele>
        <time>2017-12-20T14:02:29Z</time>
      </trkpt>
      <trkpt lat="48.99305" lon="0.88532">
        <ele>152</ele>
        <time>2017-12-20T14:02:30Z</time>
      </trkpt>
      <trkpt lat="48.99299" lon="0.88531">
        <ele>151</ele>
        <time>2017-12-20T14:02:31Z</time>
      </trkpt>
      <trkpt lat="48.99292" lon="0.88528">
        <ele>151</ele>
        <time>2017-12-20T14:02:32Z</time>
      </trkpt>
      <trkpt lat="48.99287" lon="0.88526">
        <ele>150</ele>
        <time>2017-12-20T14:02:33Z</time>
      </trkpt>
      <trkpt lat="48.9928" lon="0.88524">
        <ele>150</ele>
        <time>2017-12-20T14:02:34Z</time>
      </trkpt>
      <trkpt lat="48.99274" lon="0.88521">
        <ele>149</ele>
        <time>2017-12-20T14:02:35Z</time>
      </trkpt>
      <trkpt lat="48.99266" lon="0.88518">
        <ele>149</ele>
        <time>2017-12-20T14:02:36Z</time>
      </trkpt>
      <trkpt lat="48.9926" lon="0.88516">
        <ele>149</ele>
        <time>2017-12-20T14:02:37Z</time>
      </trkpt>
      <trkpt lat="48.99255" lon="0.88514">
        <ele>148</ele>
        <time>2017-12-20T14:02:38Z</time>
      </trkpt>
      <trkpt lat="48.99248" lon="0.88512">
        <ele>147</ele>
        <time>2017-12-20T14:02:39Z</time>
      </trkpt>
      <trkpt lat="48.99242" lon="0.8851">
        <ele>147</ele>
        <time>2017-12-20T14:02:40Z</time>
      </trkpt>
      <trkpt lat="48.99235" lon="0.88509">
        <ele>147</ele>
        <time>2017-12-20T14:02:41Z</time>
      </trkpt>
      <trkpt lat="48.99229" lon="0.88507">
        <ele>147</ele>
        <time>2017-12-20T14:02:42Z</time>
      </trkpt>
      <trkpt lat="48.99223" lon="0.88506">
        <ele>147</ele>
        <time>2017-12-20T14:02:43Z</time>
      </trkpt>
      <trkpt lat="48.99216" lon="0.88505">
        <ele>147</ele>
        <time>2017-12-20T14:02:44Z</time>
      </trkpt>
      <trkpt lat="48.9921" lon="0.88505">
        <ele>147</ele>
        <time>2017-12-20T14:02:45Z</time>
      </trkpt>
      <trkpt lat="48.99203" lon="0.88504">
        <ele>147</ele>
        <time>2017-12-20T14:02:46Z</time>
      </trkpt>
      <trkpt lat="48.99196" lon="0.88503">
        <ele>146</ele>
        <time>2017-12-20T14:02:47Z</time>
      </trkpt>
      <trkpt lat="48.99189" lon="0.88501">
        <ele>146</ele>
        <time>2017-12-20T14:02:48Z</time>
      </trkpt>
      <trkpt lat="48.99183" lon="0.885">
        <ele>146</ele>
        <time>2017-12-20T14:02:49Z</time>
      </trkpt>
      <trkpt lat="48.99177" lon="0.88498">
        <ele>146</ele>
        <time>2017-12-20T14:02:50Z</time>
      </trkpt>
      <trkpt lat="48.99171" lon="0.88498">
        <ele>146</ele>
        <time>2017-12-20T14:02:51Z</time>
      </trkpt>
      <trkpt lat="48.99165" lon="0.88497">
        <ele>146</ele>
        <time>2017-12-20T14:02:52Z</time>
      </trkpt>
      <trkpt lat="48.99159" lon="0.88496">
        <ele>146</ele>
        <time>2017-12-20T14:02:53Z</time>
      </trkpt>
      <trkpt lat="48.99153" lon="0.88496">
        <ele>146</ele>
        <time>2017-12-20T14:02:54Z</time>
      </trkpt>
      <trkpt lat="48.99147" lon="0.88496">
        <ele>146</ele>
        <time>2017-12-20T14:02:55Z</time>
      </trkpt>
      <trkpt lat="48.9914" lon="0.88496">
        <ele>145</ele>
        <time>2017-12-20T14:02:56Z</time>
      </trkpt>
      <trkpt lat="48.99133" lon="0.88496">
        <ele>145</ele>
        <time>2017-12-20T14:02:57Z</time>
      </trkpt>
      <trkpt lat="48.99127" lon="0.88496">
        <ele>145</ele>
        <time>2017-12-20T14:02:58Z</time>
      </trkpt>
      <trkpt lat="48.9912" lon="0.88497">
        <ele>145</ele>
        <time>2017-12-20T14:02:59Z</time>
      </trkpt>
      <trkpt lat="48.99113" lon="0.88498">
        <ele>145</ele>
        <time>2017-12-20T14:03:00Z</time>
      </trkpt>
      <trkpt lat="48.99106" lon="0.885">
        <ele>145</ele>
        <time>2017-12-20T14:03:01Z</time>
      </trkpt>
      <trkpt lat="48.99099" lon="0.88502">
        <ele>144</ele>
        <time>2017-12-20T14:03:02Z</time>
      </trkpt>
      <trkpt lat="48.99093" lon="0.88504">
        <ele>144</ele>
        <time>2017-12-20T14:03:03Z</time>
      </trkpt>
      <trkpt lat="48.99086" lon="0.88507">
        <ele>144</ele>
        <time>2017-12-20T14:03:04Z</time>
      </trkpt>
      <trkpt lat="48.99079" lon="0.88509">
        <ele>144</ele>
        <time>2017-12-20T14:03:05Z</time>
      </trkpt>
      <trkpt lat="48.99073" lon="0.88511">
        <ele>144</ele>
        <time>2017-12-20T14:03:06Z</time>
      </trkpt>
      <trkpt lat="48.99067" lon="0.88515">
        <ele>144</ele>
        <time>2017-12-20T14:03:07Z</time>
      </trkpt>
      <trkpt lat="48.9906" lon="0.88518">
        <ele>144</ele>
        <time>2017-12-20T14:03:08Z</time>
      </trkpt>
      <trkpt lat="48.99055" lon="0.88523">
        <ele>144</ele>
        <time>2017-12-20T14:03:09Z</time>
      </trkpt>
      <trkpt lat="48.99048" lon="0.88526">
        <ele>144</ele>
        <time>2017-12-20T14:03:10Z</time>
      </trkpt>
      <trkpt lat="48.99043" lon="0.88529">
        <ele>145</ele>
        <time>2017-12-20T14:03:11Z</time>
      </trkpt>
      <trkpt lat="48.99036" lon="0.88533">
        <ele>145</ele>
        <time>2017-12-20T14:03:12Z</time>
      </trkpt>
      <trkpt lat="48.99031" lon="0.88538">
        <ele>145</ele>
        <time>2017-12-20T14:03:13Z</time>
      </trkpt>
      <trkpt lat="48.99026" lon="0.88543">
        <ele>145</ele>
        <time>2017-12-20T14:03:14Z</time>
      </trkpt>
      <trkpt lat="48.99022" lon="0.88549">
        <ele>145</ele>
        <time>2017-12-20T14:03:15Z</time>
      </trkpt>
      <trkpt lat="48.99017" lon="0.88554">
        <ele>146</ele>
        <time>2017-12-20T14:03:16Z</time>
      </trkpt>
      <trkpt lat="48.99012" lon="0.88559">
        <ele>146</ele>
        <time>2017-12-20T14:03:17Z</time>
      </trkpt>
      <trkpt lat="48.99007" lon="0.88564">
        <ele>146</ele>
        <time>2017-12-20T14:03:18Z</time>
      </trkpt>
      <trkpt lat="48.99003" lon="0.88568">
        <ele>147</ele>
        <time>2017-12-20T14:03:19Z</time>
      </trkpt>
      <trkpt lat="48.98998" lon="0.88572">
        <ele>147</ele>
        <time>2017-12-20T14:03:20Z</time>
      </trkpt>
      <trkpt lat="48.98993" lon="0.88575">
        <ele>147</ele>
        <time>2017-12-20T14:03:21Z</time>
      </trkpt>
      <trkpt lat="48.98988" lon="0.88579">
        <ele>147</ele>
        <time>2017-12-20T14:03:22Z</time>
      </trkpt>
      <trkpt lat="48.98984" lon="0.88582">
        <ele>148</ele>
        <time>2017-12-20T14:03:23Z</time>
      </trkpt>
      <trkpt lat="48.98979" lon="0.88586">
        <ele>148</ele>
        <time>2017-12-20T14:03:24Z</time>
      </trkpt>
      <trkpt lat="48.98974" lon="0.88588">
        <ele>148</ele>
        <time>2017-12-20T14:03:25Z</time>
      </trkpt>
      <trkpt lat="48.9897" lon="0.88591">
        <ele>148</ele>
        <time>2017-12-20T14:03:26Z</time>
      </trkpt>
      <trkpt lat="48.98964" lon="0.88593">
        <ele>148</ele>
        <time>2017-12-20T14:03:27Z</time>
      </trkpt>
      <trkpt lat="48.98959" lon="0.88595">
        <ele>148</ele>
        <time>2017-12-20T14:03:28Z</time>
      </trkpt>
      <trkpt lat="48.98955" lon="0.88596">
        <ele>148</ele>
        <time>2017-12-20T14:03:29Z</time>
      </trkpt>
      <trkpt lat="48.9895" lon="0.88597">
        <ele>148</ele>
        <time>2017-12-20T14:03:30Z</time>
      </trkpt>
      <trkpt lat="48.98945" lon="0.88599">
        <ele>148</ele>
        <time>2017-12-20T14:03:31Z</time>
      </trkpt>
      <trkpt lat="48.98936" lon="0.88602">
        <ele>148</ele>
        <time>2017-12-20T14:03:33Z</time>
      </trkpt>
      <trkpt lat="48.98931" lon="0.88604">
        <ele>148</ele>
        <time>2017-12-20T14:03:34Z</time>
      </trkpt>
      <trkpt lat="48.98926" lon="0.88605">
        <ele>148</ele>
        <time>2017-12-20T14:03:35Z</time>
      </trkpt>
      <trkpt lat="48.98921" lon="0.88606">
        <ele>148</ele>
        <time>2017-12-20T14:03:36Z</time>
      </trkpt>
      <trkpt lat="48.98916" lon="0.88608">
        <ele>148</ele>
        <time>2017-12-20T14:03:37Z</time>
      </trkpt>
      <trkpt lat="48.98912" lon="0.88611">
        <ele>148</ele>
        <time>2017-12-20T14:03:38Z</time>
      </trkpt>
      <trkpt lat="48.98907" lon="0.88613">
        <ele>148</ele>
        <time>2017-12-20T14:03:39Z</time>
      </trkpt>
      <trkpt lat="48.98902" lon="0.88616">
        <ele>148</ele>
        <time>2017-12-20T14:03:40Z</time>
      </trkpt>
      <trkpt lat="48.98897" lon="0.88619">
        <ele>148</ele>
        <time>2017-12-20T14:03:41Z</time>
      </trkpt>
      <trkpt lat="48.98892" lon="0.88621">
        <ele>147</ele>
        <time>2017-12-20T14:03:42Z</time>
      </trkpt>
      <trkpt lat="48.98887" lon="0.88624">
        <ele>148</ele>
        <time>2017-12-20T14:03:43Z</time>
      </trkpt>
      <trkpt lat="48.98882" lon="0.88626">
        <ele>148</ele>
        <time>2017-12-20T14:03:44Z</time>
      </trkpt>
      <trkpt lat="48.98877" lon="0.88629">
        <ele>148</ele>
        <time>2017-12-20T14:03:45Z</time>
      </trkpt>
      <trkpt lat="48.98873" lon="0.88632">
        <ele>148</ele>
        <time>2017-12-20T14:03:46Z</time>
      </trkpt>
      <trkpt lat="48.98869" lon="0.88634">
        <ele>148</ele>
        <time>2017-12-20T14:03:47Z</time>
      </trkpt>
      <trkpt lat="48.98859" lon="0.88639">
        <ele>149</ele>
        <time>2017-12-20T14:03:49Z</time>
      </trkpt>
      <trkpt lat="48.98852" lon="0.88643">
        <ele>149</ele>
        <time>2017-12-20T14:03:51Z</time>
      </trkpt>
      <trkpt lat="48.98848" lon="0.88652">
        <ele>149</ele>
        <time>2017-12-20T14:03:53Z</time>
      </trkpt>
      <trkpt lat="48.98848" lon="0.8866">
        <ele>149</ele>
        <time>2017-12-20T14:03:54Z</time>
      </trkpt>
      <trkpt lat="48.98848" lon="0.88669">
        <ele>149</ele>
        <time>2017-12-20T14:03:55Z</time>
      </trkpt>
      <trkpt lat="48.98848" lon="0.88677">
        <ele>149</ele>
        <time>2017-12-20T14:03:56Z</time>
      </trkpt>
      <trkpt lat="48.98848" lon="0.88687">
        <ele>148</ele>
        <time>2017-12-20T14:03:57Z</time>
      </trkpt>
      <trkpt lat="48.98848" lon="0.88697">
        <ele>148</ele>
        <time>2017-12-20T14:03:58Z</time>
      </trkpt>
      <trkpt lat="48.98849" lon="0.88708">
        <ele>148</ele>
        <time>2017-12-20T14:03:59Z</time>
      </trkpt>
      <trkpt lat="48.98849" lon="0.8872">
        <ele>147</ele>
        <time>2017-12-20T14:04:00Z</time>
      </trkpt>
      <trkpt lat="48.98849" lon="0.88731">
        <ele>147</ele>
        <time>2017-12-20T14:04:01Z</time>
      </trkpt>
      <trkpt lat="48.9885" lon="0.88743">
        <ele>147</ele>
        <time>2017-12-20T14:04:02Z</time>
      </trkpt>
      <trkpt lat="48.9885" lon="0.88755">
        <ele>147</ele>
        <time>2017-12-20T14:04:03Z</time>
      </trkpt>
      <trkpt lat="48.9885" lon="0.88767">
        <ele>146</ele>
        <time>2017-12-20T14:04:04Z</time>
      </trkpt>
      <trkpt lat="48.98851" lon="0.88779">
        <ele>146</ele>
        <time>2017-12-20T14:04:05Z</time>
      </trkpt>
      <trkpt lat="48.98851" lon="0.88791">
        <ele>146</ele>
        <time>2017-12-20T14:04:06Z</time>
      </trkpt>
      <trkpt lat="48.98851" lon="0.88803">
        <ele>146</ele>
        <time>2017-12-20T14:04:07Z</time>
      </trkpt>
      <trkpt lat="48.98852" lon="0.88815">
        <ele>146</ele>
        <time>2017-12-20T14:04:08Z</time>
      </trkpt>
      <trkpt lat="48.98851" lon="0.88827">
        <ele>145</ele>
        <time>2017-12-20T14:04:09Z</time>
      </trkpt>
      <trkpt lat="48.98852" lon="0.88839">
        <ele>145</ele>
        <time>2017-12-20T14:04:10Z</time>
      </trkpt>
      <trkpt lat="48.98852" lon="0.8885">
        <ele>145</ele>
        <time>2017-12-20T14:04:11Z</time>
      </trkpt>
      <trkpt lat="48.98852" lon="0.88862">
        <ele>145</ele>
        <time>2017-12-20T14:04:12Z</time>
      </trkpt>
      <trkpt lat="48.98851" lon="0.88873">
        <ele>145</ele>
        <time>2017-12-20T14:04:13Z</time>
      </trkpt>
      <trkpt lat="48.98851" lon="0.88884">
        <ele>145</ele>
        <time>2017-12-20T14:04:14Z</time>
      </trkpt>
      <trkpt lat="48.9885" lon="0.88894">
        <ele>145</ele>
        <time>2017-12-20T14:04:15Z</time>
      </trkpt>
      <trkpt lat="48.9885" lon="0.88905">
        <ele>144</ele>
        <time>2017-12-20T14:04:16Z</time>
      </trkpt>
      <trkpt lat="48.98849" lon="0.88915">
        <ele>144</ele>
        <time>2017-12-20T14:04:17Z</time>
      </trkpt>
      <trkpt lat="48.98848" lon="0.88925">
        <ele>144</ele>
        <time>2017-12-20T14:04:18Z</time>
      </trkpt>
      <trkpt lat="48.98847" lon="0.88936">
        <ele>144</ele>
        <time>2017-12-20T14:04:19Z</time>
      </trkpt>
      <trkpt lat="48.98846" lon="0.88946">
        <ele>144</ele>
        <time>2017-12-20T14:04:20Z</time>
      </trkpt>
      <trkpt lat="48.98845" lon="0.88956">
        <ele>144</ele>
        <time>2017-12-20T14:04:21Z</time>
      </trkpt>
      <trkpt lat="48.98845" lon="0.88967">
        <ele>144</ele>
        <time>2017-12-20T14:04:22Z</time>
      </trkpt>
      <trkpt lat="48.98844" lon="0.88977">
        <ele>144</ele>
        <time>2017-12-20T14:04:23Z</time>
      </trkpt>
      <trkpt lat="48.98842" lon="0.88987">
        <ele>143</ele>
        <time>2017-12-20T14:04:24Z</time>
      </trkpt>
      <trkpt lat="48.98842" lon="0.88998">
        <ele>143</ele>
        <time>2017-12-20T14:04:25Z</time>
      </trkpt>
      <trkpt lat="48.98842" lon="0.89008">
        <ele>143</ele>
        <time>2017-12-20T14:04:26Z</time>
      </trkpt>
      <trkpt lat="48.9884" lon="0.89018">
        <ele>143</ele>
        <time>2017-12-20T14:04:27Z</time>
      </trkpt>
      <trkpt lat="48.9884" lon="0.89029">
        <ele>143</ele>
        <time>2017-12-20T14:04:28Z</time>
      </trkpt>
      <trkpt lat="48.98839" lon="0.89039">
        <ele>143</ele>
        <time>2017-12-20T14:04:29Z</time>
      </trkpt>
      <trkpt lat="48.98838" lon="0.89049">
        <ele>143</ele>
        <time>2017-12-20T14:04:30Z</time>
      </trkpt>
      <trkpt lat="48.98838" lon="0.89059">
        <ele>143</ele>
        <time>2017-12-20T14:04:31Z</time>
      </trkpt>
      <trkpt lat="48.98837" lon="0.89069">
        <ele>143</ele>
        <time>2017-12-20T14:04:32Z</time>
      </trkpt>
      <trkpt lat="48.98836" lon="0.89079">
        <ele>143</ele>
        <time>2017-12-20T14:04:33Z</time>
      </trkpt>
      <trkpt lat="48.98835" lon="0.89089">
        <ele>142</ele>
        <time>2017-12-20T14:04:34Z</time>
      </trkpt>
      <trkpt lat="48.98833" lon="0.89098">
        <ele>142</ele>
        <time>2017-12-20T14:04:35Z</time>
      </trkpt>
      <trkpt lat="48.98832" lon="0.89107">
        <ele>142</ele>
        <time>2017-12-20T14:04:36Z</time>
      </trkpt>
      <trkpt lat="48.98831" lon="0.89117">
        <ele>143</ele>
        <time>2017-12-20T14:04:37Z</time>
      </trkpt>
      <trkpt lat="48.9883" lon="0.89126">
        <ele>144</ele>
        <time>2017-12-20T14:04:38Z</time>
      </trkpt>
      <trkpt lat="48.9883" lon="0.89135">
        <ele>145</ele>
        <time>2017-12-20T14:04:39Z</time>
      </trkpt>
      <trkpt lat="48.98829" lon="0.89144">
        <ele>146</ele>
        <time>2017-12-20T14:04:40Z</time>
      </trkpt>
      <trkpt lat="48.98829" lon="0.89152">
        <ele>146</ele>
        <time>2017-12-20T14:04:41Z</time>
      </trkpt>
      <trkpt lat="48.98829" lon="0.8916">
        <ele>146</ele>
        <time>2017-12-20T14:04:42Z</time>
      </trkpt>
      <trkpt lat="48.98829" lon="0.89168">
        <ele>146</ele>
        <time>2017-12-20T14:04:43Z</time>
      </trkpt>
      <trkpt lat="48.98828" lon="0.89177">
        <ele>146</ele>
        <time>2017-12-20T14:04:44Z</time>
      </trkpt>
      <trkpt lat="48.98828" lon="0.89185">
        <ele>147</ele>
        <time>2017-12-20T14:04:45Z</time>
      </trkpt>
      <trkpt lat="48.98827" lon="0.89192">
        <ele>147</ele>
        <time>2017-12-20T14:04:46Z</time>
      </trkpt>
      <trkpt lat="48.98827" lon="0.89206">
        <ele>147</ele>
        <time>2017-12-20T14:04:48Z</time>
      </trkpt>
      <trkpt lat="48.98827" lon="0.89214">
        <ele>147</ele>
        <time>2017-12-20T14:04:49Z</time>
      </trkpt>
      <trkpt lat="48.98827" lon="0.89221">
        <ele>147</ele>
        <time>2017-12-20T14:04:50Z</time>
      </trkpt>
      <trkpt lat="48.98826" lon="0.89234">
        <ele>148</ele>
        <time>2017-12-20T14:04:52Z</time>
      </trkpt>
      <trkpt lat="48.98825" lon="0.89246">
        <ele>148</ele>
        <time>2017-12-20T14:04:54Z</time>
      </trkpt>
      <trkpt lat="48.98824" lon="0.89258">
        <ele>149</ele>
        <time>2017-12-20T14:04:56Z</time>
      </trkpt>
      <trkpt lat="48.98822" lon="0.89265">
        <ele>149</ele>
        <time>2017-12-20T14:04:57Z</time>
      </trkpt>
      <trkpt lat="48.98822" lon="0.89273">
        <ele>149</ele>
        <time>2017-12-20T14:04:58Z</time>
      </trkpt>
      <trkpt lat="48.98821" lon="0.89281">
        <ele>150</ele>
        <time>2017-12-20T14:04:59Z</time>
      </trkpt>
      <trkpt lat="48.9882" lon="0.89288">
        <ele>150</ele>
        <time>2017-12-20T14:05:00Z</time>
      </trkpt>
      <trkpt lat="48.98819" lon="0.89295">
        <ele>151</ele>
        <time>2017-12-20T14:05:01Z</time>
      </trkpt>
      <trkpt lat="48.98819" lon="0.89302">
        <ele>152</ele>
        <time>2017-12-20T14:05:02Z</time>
      </trkpt>
      <trkpt lat="48.98817" lon="0.8931">
        <ele>152</ele>
        <time>2017-12-20T14:05:03Z</time>
      </trkpt>
      <trkpt lat="48.98817" lon="0.89317">
        <ele>153</ele>
        <time>2017-12-20T14:05:04Z</time>
      </trkpt>
      <trkpt lat="48.98816" lon="0.89324">
        <ele>153</ele>
        <time>2017-12-20T14:05:05Z</time>
      </trkpt>
      <trkpt lat="48.98814" lon="0.89332">
        <ele>153</ele>
        <time>2017-12-20T14:05:06Z</time>
      </trkpt>
      <trkpt lat="48.98813" lon="0.89341">
        <ele>153</ele>
        <time>2017-12-20T14:05:07Z</time>
      </trkpt>
      <trkpt lat="48.98813" lon="0.89349">
        <ele>153</ele>
        <time>2017-12-20T14:05:08Z</time>
      </trkpt>
      <trkpt lat="48.98813" lon="0.89356">
        <ele>152</ele>
        <time>2017-12-20T14:05:09Z</time>
      </trkpt>
      <trkpt lat="48.98811" lon="0.89369">
        <ele>151</ele>
        <time>2017-12-20T14:05:11Z</time>
      </trkpt>
      <trkpt lat="48.98811" lon="0.89377">
        <ele>151</ele>
        <time>2017-12-20T14:05:12Z</time>
      </trkpt>
      <trkpt lat="48.9881" lon="0.8939">
        <ele>150</ele>
        <time>2017-12-20T14:05:14Z</time>
      </trkpt>
      <trkpt lat="48.98809" lon="0.89404">
        <ele>151</ele>
        <time>2017-12-20T14:05:16Z</time>
      </trkpt>
      <trkpt lat="48.98809" lon="0.89412">
        <ele>151</ele>
        <time>2017-12-20T14:05:17Z</time>
      </trkpt>
      <trkpt lat="48.98809" lon="0.89424">
        <ele>151</ele>
        <time>2017-12-20T14:05:19Z</time>
      </trkpt>
      <trkpt lat="48.98809" lon="0.89432">
        <ele>151</ele>
        <time>2017-12-20T14:05:20Z</time>
      </trkpt>
      <trkpt lat="48.98809" lon="0.89439">
        <ele>151</ele>
        <time>2017-12-20T14:05:21Z</time>
      </trkpt>
      <trkpt lat="48.98809" lon="0.89446">
        <ele>151</ele>
        <time>2017-12-20T14:05:22Z</time>
      </trkpt>
      <trkpt lat="48.98809" lon="0.89454">
        <ele>152</ele>
        <time>2017-12-20T14:05:23Z</time>
      </trkpt>
      <trkpt lat="48.98809" lon="0.89462">
        <ele>152</ele>
        <time>2017-12-20T14:05:24Z</time>
      </trkpt>
      <trkpt lat="48.98808" lon="0.89469">
        <ele>152</ele>
        <time>2017-12-20T14:05:25Z</time>
      </trkpt>
      <trkpt lat="48.98807" lon="0.89478">
        <ele>152</ele>
        <time>2017-12-20T14:05:26Z</time>
      </trkpt>
      <trkpt lat="48.98806" lon="0.89487">
        <ele>152</ele>
        <time>2017-12-20T14:05:27Z</time>
      </trkpt>
      <trkpt lat="48.98804" lon="0.89495">
        <ele>152</ele>
        <time>2017-12-20T14:05:28Z</time>
      </trkpt>
      <trkpt lat="48.98801" lon="0.8951">
        <ele>151</ele>
        <time>2017-12-20T14:05:30Z</time>
      </trkpt>
      <trkpt lat="48.988" lon="0.8952">
        <ele>151</ele>
        <time>2017-12-20T14:05:31Z</time>
      </trkpt>
      <trkpt lat="48.98798" lon="0.89531">
        <ele>151</ele>
        <time>2017-12-20T14:05:32Z</time>
      </trkpt>
      <trkpt lat="48.98797" lon="0.89543">
        <ele>151</ele>
        <time>2017-12-20T14:05:33Z</time>
      </trkpt>
      <trkpt lat="48.98794" lon="0.89555">
        <ele>152</ele>
        <time>2017-12-20T14:05:34Z</time>
      </trkpt>
      <trkpt lat="48.98792" lon="0.89566">
        <ele>152</ele>
        <time>2017-12-20T14:05:35Z</time>
      </trkpt>
      <trkpt lat="48.9879" lon="0.89576">
        <ele>152</ele>
        <time>2017-12-20T14:05:36Z</time>
      </trkpt>
      <trkpt lat="48.98788" lon="0.89583">
        <ele>152</ele>
        <time>2017-12-20T14:05:37Z</time>
      </trkpt>
      <trkpt lat="48.98786" lon="0.89592">
        <ele>153</ele>
        <time>2017-12-20T14:05:38Z</time>
      </trkpt>
      <trkpt lat="48.98783" lon="0.896">
        <ele>153</ele>
        <time>2017-12-20T14:05:39Z</time>
      </trkpt>
      <trkpt lat="48.98781" lon="0.89607">
        <ele>153</ele>
        <time>2017-12-20T14:05:40Z</time>
      </trkpt>
      <trkpt lat="48.98779" lon="0.89614">
        <ele>153</ele>
        <time>2017-12-20T14:05:41Z</time>
      </trkpt>
      <trkpt lat="48.98776" lon="0.89622">
        <ele>153</ele>
        <time>2017-12-20T14:05:42Z</time>
      </trkpt>
      <trkpt lat="48.98774" lon="0.89629">
        <ele>153</ele>
        <time>2017-12-20T14:05:43Z</time>
      </trkpt>
      <trkpt lat="48.98771" lon="0.89636">
        <ele>153</ele>
        <time>2017-12-20T14:05:44Z</time>
      </trkpt>
      <trkpt lat="48.98768" lon="0.89644">
        <ele>153</ele>
        <time>2017-12-20T14:05:45Z</time>
      </trkpt>
      <trkpt lat="48.98766" lon="0.89651">
        <ele>152</ele>
        <time>2017-12-20T14:05:46Z</time>
      </trkpt>
      <trkpt lat="48.98763" lon="0.89658">
        <ele>152</ele>
        <time>2017-12-20T14:05:47Z</time>
      </trkpt>
      <trkpt lat="48.9876" lon="0.89665">
        <ele>152</ele>
        <time>2017-12-20T14:05:48Z</time>
      </trkpt>
      <trkpt lat="48.98757" lon="0.89673">
        <ele>152</ele>
        <time>2017-12-20T14:05:49Z</time>
      </trkpt>
      <trkpt lat="48.98753" lon="0.89679">
        <ele>152</ele>
        <time>2017-12-20T14:05:50Z</time>
      </trkpt>
      <trkpt lat="48.9875" lon="0.89687">
        <ele>152</ele>
        <time>2017-12-20T14:05:51Z</time>
      </trkpt>
      <trkpt lat="48.98747" lon="0.89694">
        <ele>152</ele>
        <time>2017-12-20T14:05:52Z</time>
      </trkpt>
      <trkpt lat="48.98744" lon="0.897">
        <ele>152</ele>
        <time>2017-12-20T14:05:53Z</time>
      </trkpt>
      <trkpt lat="48.98742" lon="0.89707">
        <ele>152</ele>
        <time>2017-12-20T14:05:54Z</time>
      </trkpt>
      <trkpt lat="48.98737" lon="0.89714">
        <ele>151</ele>
        <time>2017-12-20T14:05:55Z</time>
      </trkpt>
      <trkpt lat="48.98734" lon="0.8972">
        <ele>151</ele>
        <time>2017-12-20T14:05:56Z</time>
      </trkpt>
      <trkpt lat="48.98731" lon="0.89727">
        <ele>151</ele>
        <time>2017-12-20T14:05:57Z</time>
      </trkpt>
      <trkpt lat="48.98727" lon="0.89734">
        <ele>151</ele>
        <time>2017-12-20T14:05:58Z</time>
      </trkpt>
      <trkpt lat="48.98724" lon="0.8974">
        <ele>151</ele>
        <time>2017-12-20T14:05:59Z</time>
      </trkpt>
      <trkpt lat="48.9872" lon="0.89747">
        <ele>151</ele>
        <time>2017-12-20T14:06:00Z</time>
      </trkpt>
      <trkpt lat="48.98716" lon="0.89753">
        <ele>151</ele>
        <time>2017-12-20T14:06:01Z</time>
      </trkpt>
      <trkpt lat="48.98713" lon="0.8976">
        <ele>151</ele>
        <time>2017-12-20T14:06:02Z</time>
      </trkpt>
      <trkpt lat="48.98709" lon="0.89767">
        <ele>151</ele>
        <time>2017-12-20T14:06:03Z</time>
      </trkpt>
      <trkpt lat="48.98705" lon="0.89773">
        <ele>151</ele>
        <time>2017-12-20T14:06:04Z</time>
      </trkpt>
      <trkpt lat="48.98701" lon="0.8978">
        <ele>151</ele>
        <time>2017-12-20T14:06:05Z</time>
      </trkpt>
      <trkpt lat="48.98698" lon="0.89788">
        <ele>151</ele>
        <time>2017-12-20T14:06:06Z</time>
      </trkpt>
      <trkpt lat="48.98695" lon="0.89794">
        <ele>151</ele>
        <time>2017-12-20T14:06:07Z</time>
      </trkpt>
      <trkpt lat="48.98692" lon="0.89801">
        <ele>151</ele>
        <time>2017-12-20T14:06:08Z</time>
      </trkpt>
      <trkpt lat="48.98689" lon="0.89808">
        <ele>151</ele>
        <time>2017-12-20T14:06:09Z</time>
      </trkpt>
      <trkpt lat="48.98686" lon="0.89814">
        <ele>151</ele>
        <time>2017-12-20T14:06:10Z</time>
      </trkpt>
      <trkpt lat="48.98684" lon="0.8982">
        <ele>151</ele>
        <time>2017-12-20T14:06:11Z</time>
      </trkpt>
      <trkpt lat="48.98679" lon="0.89831">
        <ele>152</ele>
        <time>2017-12-20T14:06:13Z</time>
      </trkpt>
      <trkpt lat="48.98674" lon="0.89842">
        <ele>152</ele>
        <time>2017-12-20T14:06:15Z</time>
      </trkpt>
      <trkpt lat="48.98669" lon="0.89852">
        <ele>152</ele>
        <time>2017-12-20T14:06:17Z</time>
      </trkpt>
      <trkpt lat="48.98665" lon="0.89861">
        <ele>152</ele>
        <time>2017-12-20T14:06:19Z</time>
      </trkpt>
      <trkpt lat="48.9866" lon="0.8987">
        <ele>152</ele>
        <time>2017-12-20T14:06:21Z</time>
      </trkpt>
      <trkpt lat="48.98656" lon="0.89878">
        <ele>152</ele>
        <time>2017-12-20T14:06:23Z</time>
      </trkpt>
      <trkpt lat="48.98652" lon="0.89886">
        <ele>152</ele>
        <time>2017-12-20T14:06:25Z</time>
      </trkpt>
      <trkpt lat="48.98649" lon="0.89893">
        <ele>152</ele>
        <time>2017-12-20T14:06:27Z</time>
      </trkpt>
      <trkpt lat="48.98645" lon="0.89901">
        <ele>152</ele>
        <time>2017-12-20T14:06:29Z</time>
      </trkpt>
      <trkpt lat="48.98642" lon="0.8991">
        <ele>151</ele>
        <time>2017-12-20T14:06:31Z</time>
      </trkpt>
      <trkpt lat="48.98638" lon="0.89919">
        <ele>151</ele>
        <time>2017-12-20T14:06:33Z</time>
      </trkpt>
      <trkpt lat="48.98635" lon="0.8993">
        <ele>151</ele>
        <time>2017-12-20T14:06:35Z</time>
      </trkpt>
      <trkpt lat="48.98632" lon="0.8994">
        <ele>151</ele>
        <time>2017-12-20T14:06:37Z</time>
      </trkpt>
      <trkpt lat="48.9863" lon="0.89951">
        <ele>152</ele>
        <time>2017-12-20T14:06:39Z</time>
      </trkpt>
      <trkpt lat="48.98628" lon="0.89963">
        <ele>152</ele>
        <time>2017-12-20T14:06:41Z</time>
      </trkpt>
      <trkpt lat="48.98626" lon="0.89976">
        <ele>152</ele>
        <time>2017-12-20T14:06:43Z</time>
      </trkpt>
      <trkpt lat="48.98626" lon="0.89983">
        <ele>152</ele>
        <time>2017-12-20T14:06:44Z</time>
      </trkpt>
      <trkpt lat="48.98624" lon="0.8999">
        <ele>152</ele>
        <time>2017-12-20T14:06:45Z</time>
      </trkpt>
      <trkpt lat="48.98623" lon="0.90003">
        <ele>152</ele>
        <time>2017-12-20T14:06:47Z</time>
      </trkpt>
      <trkpt lat="48.98621" lon="0.9001">
        <ele>153</ele>
        <time>2017-12-20T14:06:48Z</time>
      </trkpt>
      <trkpt lat="48.98617" lon="0.90029">
        <ele>153</ele>
        <time>2017-12-20T14:06:51Z</time>
      </trkpt>
      <trkpt lat="48.98615" lon="0.90036">
        <ele>153</ele>
        <time>2017-12-20T14:06:52Z</time>
      </trkpt>
      <trkpt lat="48.98614" lon="0.90042">
        <ele>153</ele>
        <time>2017-12-20T14:06:53Z</time>
      </trkpt>
      <trkpt lat="48.98612" lon="0.90049">
        <ele>152</ele>
        <time>2017-12-20T14:06:54Z</time>
      </trkpt>
      <trkpt lat="48.98609" lon="0.90062">
        <ele>152</ele>
        <time>2017-12-20T14:06:56Z</time>
      </trkpt>
      <trkpt lat="48.98606" lon="0.90074">
        <ele>153</ele>
        <time>2017-12-20T14:06:58Z</time>
      </trkpt>
      <trkpt lat="48.98604" lon="0.90081">
        <ele>153</ele>
        <time>2017-12-20T14:06:59Z</time>
      </trkpt>
      <trkpt lat="48.98602" lon="0.90088">
        <ele>153</ele>
        <time>2017-12-20T14:07:00Z</time>
      </trkpt>
      <trkpt lat="48.986" lon="0.90095">
        <ele>152</ele>
        <time>2017-12-20T14:07:01Z</time>
      </trkpt>
      <trkpt lat="48.98598" lon="0.90102">
        <ele>152</ele>
        <time>2017-12-20T14:07:02Z</time>
      </trkpt>
      <trkpt lat="48.98596" lon="0.90109">
        <ele>152</ele>
        <time>2017-12-20T14:07:03Z</time>
      </trkpt>
      <trkpt lat="48.98594" lon="0.90116">
        <ele>152</ele>
        <time>2017-12-20T14:07:04Z</time>
      </trkpt>
      <trkpt lat="48.98592" lon="0.90123">
        <ele>152</ele>
        <time>2017-12-20T14:07:05Z</time>
      </trkpt>
      <trkpt lat="48.9859" lon="0.9013">
        <ele>152</ele>
        <time>2017-12-20T14:07:06Z</time>
      </trkpt>
      <trkpt lat="48.98588" lon="0.90137">
        <ele>152</ele>
        <time>2017-12-20T14:07:07Z</time>
      </trkpt>
      <trkpt lat="48.98586" lon="0.90145">
        <ele>152</ele>
        <time>2017-12-20T14:07:08Z</time>
      </trkpt>
      <trkpt lat="48.98584" lon="0.90152">
        <ele>152</ele>
        <time>2017-12-20T14:07:09Z</time>
      </trkpt>
      <trkpt lat="48.98582" lon="0.90159">
        <ele>152</ele>
        <time>2017-12-20T14:07:10Z</time>
      </trkpt>
      <trkpt lat="48.9858" lon="0.90165">
        <ele>152</ele>
        <time>2017-12-20T14:07:11Z</time>
      </trkpt>
      <trkpt lat="48.98578" lon="0.90172">
        <ele>152</ele>
        <time>2017-12-20T14:07:12Z</time>
      </trkpt>
      <trkpt lat="48.98575" lon="0.90179">
        <ele>152</ele>
        <time>2017-12-20T14:07:13Z</time>
      </trkpt>
      <trkpt lat="48.98573" lon="0.90186">
        <ele>152</ele>
        <time>2017-12-20T14:07:14Z</time>
      </trkpt>
      <trkpt lat="48.98571" lon="0.90193">
        <ele>152</ele>
        <time>2017-12-20T14:07:15Z</time>
      </trkpt>
      <trkpt lat="48.98569" lon="0.902">
        <ele>152</ele>
        <time>2017-12-20T14:07:16Z</time>
      </trkpt>
      <trkpt lat="48.98566" lon="0.90207">
        <ele>152</ele>
        <time>2017-12-20T14:07:17Z</time>
      </trkpt>
      <trkpt lat="48.98564" lon="0.90215">
        <ele>152</ele>
        <time>2017-12-20T14:07:18Z</time>
      </trkpt>
      <trkpt lat="48.98562" lon="0.90221">
        <ele>152</ele>
        <time>2017-12-20T14:07:19Z</time>
      </trkpt>
      <trkpt lat="48.9856" lon="0.90228">
        <ele>152</ele>
        <time>2017-12-20T14:07:20Z</time>
      </trkpt>
      <trkpt lat="48.98558" lon="0.90234">
        <ele>152</ele>
        <time>2017-12-20T14:07:21Z</time>
      </trkpt>
      <trkpt lat="48.98555" lon="0.90241">
        <ele>152</ele>
        <time>2017-12-20T14:07:22Z</time>
      </trkpt>
      <trkpt lat="48.98554" lon="0.90248">
        <ele>152</ele>
        <time>2017-12-20T14:07:23Z</time>
      </trkpt>
      <trkpt lat="48.98551" lon="0.90256">
        <ele>152</ele>
        <time>2017-12-20T14:07:24Z</time>
      </trkpt>
      <trkpt lat="48.98549" lon="0.90262">
        <ele>152</ele>
        <time>2017-12-20T14:07:25Z</time>
      </trkpt>
      <trkpt lat="48.98546" lon="0.90268">
        <ele>153</ele>
        <time>2017-12-20T14:07:26Z</time>
      </trkpt>
      <trkpt lat="48.98543" lon="0.90275">
        <ele>152</ele>
        <time>2017-12-20T14:07:27Z</time>
      </trkpt>
      <trkpt lat="48.98539" lon="0.90281">
        <ele>152</ele>
        <time>2017-12-20T14:07:28Z</time>
      </trkpt>
      <trkpt lat="48.98536" lon="0.90288">
        <ele>152</ele>
        <time>2017-12-20T14:07:29Z</time>
      </trkpt>
      <trkpt lat="48.98532" lon="0.90294">
        <ele>152</ele>
        <time>2017-12-20T14:07:30Z</time>
      </trkpt>
      <trkpt lat="48.98528" lon="0.903">
        <ele>152</ele>
        <time>2017-12-20T14:07:31Z</time>
      </trkpt>
      <trkpt lat="48.98524" lon="0.90306">
        <ele>152</ele>
        <time>2017-12-20T14:07:32Z</time>
      </trkpt>
      <trkpt lat="48.9852" lon="0.90313">
        <ele>152</ele>
        <time>2017-12-20T14:07:33Z</time>
      </trkpt>
      <trkpt lat="48.98517" lon="0.9032">
        <ele>151</ele>
        <time>2017-12-20T14:07:34Z</time>
      </trkpt>
      <trkpt lat="48.98513" lon="0.90326">
        <ele>151</ele>
        <time>2017-12-20T14:07:35Z</time>
      </trkpt>
      <trkpt lat="48.9851" lon="0.90333">
        <ele>152</ele>
        <time>2017-12-20T14:07:36Z</time>
      </trkpt>
      <trkpt lat="48.98506" lon="0.90339">
        <ele>152</ele>
        <time>2017-12-20T14:07:37Z</time>
      </trkpt>
      <trkpt lat="48.98503" lon="0.90346">
        <ele>152</ele>
        <time>2017-12-20T14:07:38Z</time>
      </trkpt>
      <trkpt lat="48.985" lon="0.90353">
        <ele>152</ele>
        <time>2017-12-20T14:07:39Z</time>
      </trkpt>
      <trkpt lat="48.98497" lon="0.9036">
        <ele>152</ele>
        <time>2017-12-20T14:07:40Z</time>
      </trkpt>
      <trkpt lat="48.98493" lon="0.90368">
        <ele>152</ele>
        <time>2017-12-20T14:07:41Z</time>
      </trkpt>
      <trkpt lat="48.98489" lon="0.90375">
        <ele>152</ele>
        <time>2017-12-20T14:07:42Z</time>
      </trkpt>
      <trkpt lat="48.98486" lon="0.90382">
        <ele>152</ele>
        <time>2017-12-20T14:07:43Z</time>
      </trkpt>
      <trkpt lat="48.98483" lon="0.90389">
        <ele>152</ele>
        <time>2017-12-20T14:07:44Z</time>
      </trkpt>
      <trkpt lat="48.9848" lon="0.90397">
        <ele>152</ele>
        <time>2017-12-20T14:07:45Z</time>
      </trkpt>
      <trkpt lat="48.98476" lon="0.90404">
        <ele>152</ele>
        <time>2017-12-20T14:07:46Z</time>
      </trkpt>
      <trkpt lat="48.98473" lon="0.90411">
        <ele>152</ele>
        <time>2017-12-20T14:07:47Z</time>
      </trkpt>
      <trkpt lat="48.98469" lon="0.90419">
        <ele>152</ele>
        <time>2017-12-20T14:07:48Z</time>
      </trkpt>
      <trkpt lat="48.98466" lon="0.90426">
        <ele>152</ele>
        <time>2017-12-20T14:07:49Z</time>
      </trkpt>
      <trkpt lat="48.98462" lon="0.90432">
        <ele>152</ele>
        <time>2017-12-20T14:07:50Z</time>
      </trkpt>
      <trkpt lat="48.98459" lon="0.90439">
        <ele>152</ele>
        <time>2017-12-20T14:07:51Z</time>
      </trkpt>
      <trkpt lat="48.98455" lon="0.90445">
        <ele>152</ele>
        <time>2017-12-20T14:07:52Z</time>
      </trkpt>
      <trkpt lat="48.9845" lon="0.90452">
        <ele>152</ele>
        <time>2017-12-20T14:07:53Z</time>
      </trkpt>
      <trkpt lat="48.98446" lon="0.90458">
        <ele>152</ele>
        <time>2017-12-20T14:07:54Z</time>
      </trkpt>
      <trkpt lat="48.98442" lon="0.90465">
        <ele>152</ele>
        <time>2017-12-20T14:07:55Z</time>
      </trkpt>
      <trkpt lat="48.98439" lon="0.90471">
        <ele>152</ele>
        <time>2017-12-20T14:07:56Z</time>
      </trkpt>
      <trkpt lat="48.98435" lon="0.90478">
        <ele>152</ele>
        <time>2017-12-20T14:07:57Z</time>
      </trkpt>
      <trkpt lat="48.98432" lon="0.90484">
        <ele>152</ele>
        <time>2017-12-20T14:07:58Z</time>
      </trkpt>
      <trkpt lat="48.98429" lon="0.9049">
        <ele>152</ele>
        <time>2017-12-20T14:07:59Z</time>
      </trkpt>
      <trkpt lat="48.98426" lon="0.90496">
        <ele>151</ele>
        <time>2017-12-20T14:08:00Z</time>
      </trkpt>
      <trkpt lat="48.98422" lon="0.90503">
        <ele>151</ele>
        <time>2017-12-20T14:08:01Z</time>
      </trkpt>
      <trkpt lat="48.98419" lon="0.90509">
        <ele>151</ele>
        <time>2017-12-20T14:08:02Z</time>
      </trkpt>
      <trkpt lat="48.98415" lon="0.90515">
        <ele>151</ele>
        <time>2017-12-20T14:08:03Z</time>
      </trkpt>
      <trkpt lat="48.98411" lon="0.90521">
        <ele>151</ele>
        <time>2017-12-20T14:08:04Z</time>
      </trkpt>
      <trkpt lat="48.98408" lon="0.90527">
        <ele>151</ele>
        <time>2017-12-20T14:08:05Z</time>
      </trkpt>
      <trkpt lat="48.98404" lon="0.90533">
        <ele>151</ele>
        <time>2017-12-20T14:08:06Z</time>
      </trkpt>
      <trkpt lat="48.98401" lon="0.90538">
        <ele>151</ele>
        <time>2017-12-20T14:08:07Z</time>
      </trkpt>
      <trkpt lat="48.98397" lon="0.90544">
        <ele>151</ele>
        <time>2017-12-20T14:08:08Z</time>
      </trkpt>
      <trkpt lat="48.98394" lon="0.9055">
        <ele>151</ele>
        <time>2017-12-20T14:08:09Z</time>
      </trkpt>
      <trkpt lat="48.9839" lon="0.90555">
        <ele>151</ele>
        <time>2017-12-20T14:08:10Z</time>
      </trkpt>
      <trkpt lat="48.98385" lon="0.90561">
        <ele>151</ele>
        <time>2017-12-20T14:08:11Z</time>
      </trkpt>
      <trkpt lat="48.98381" lon="0.90566">
        <ele>151</ele>
        <time>2017-12-20T14:08:12Z</time>
      </trkpt>
      <trkpt lat="48.98377" lon="0.90571">
        <ele>151</ele>
        <time>2017-12-20T14:08:13Z</time>
      </trkpt>
      <trkpt lat="48.98373" lon="0.90577">
        <ele>150</ele>
        <time>2017-12-20T14:08:14Z</time>
      </trkpt>
      <trkpt lat="48.98369" lon="0.90582">
        <ele>150</ele>
        <time>2017-12-20T14:08:15Z</time>
      </trkpt>
      <trkpt lat="48.98364" lon="0.90587">
        <ele>150</ele>
        <time>2017-12-20T14:08:16Z</time>
      </trkpt>
      <trkpt lat="48.9836" lon="0.90593">
        <ele>151</ele>
        <time>2017-12-20T14:08:17Z</time>
      </trkpt>
      <trkpt lat="48.98356" lon="0.90599">
        <ele>151</ele>
        <time>2017-12-20T14:08:18Z</time>
      </trkpt>
      <trkpt lat="48.98352" lon="0.90604">
        <ele>151</ele>
        <time>2017-12-20T14:08:19Z</time>
      </trkpt>
      <trkpt lat="48.98348" lon="0.9061">
        <ele>151</ele>
        <time>2017-12-20T14:08:20Z</time>
      </trkpt>
      <trkpt lat="48.98345" lon="0.90616">
        <ele>151</ele>
        <time>2017-12-20T14:08:21Z</time>
      </trkpt>
      <trkpt lat="48.98342" lon="0.90623">
        <ele>151</ele>
        <time>2017-12-20T14:08:22Z</time>
      </trkpt>
      <trkpt lat="48.9834" lon="0.90631">
        <ele>151</ele>
        <time>2017-12-20T14:08:23Z</time>
      </trkpt>
      <trkpt lat="48.98339" lon="0.90639">
        <ele>152</ele>
        <time>2017-12-20T14:08:24Z</time>
      </trkpt>
      <trkpt lat="48.98338" lon="0.90647">
        <ele>152</ele>
        <time>2017-12-20T14:08:25Z</time>
      </trkpt>
      <trkpt lat="48.98338" lon="0.90656">
        <ele>152</ele>
        <time>2017-12-20T14:08:26Z</time>
      </trkpt>
      <trkpt lat="48.98337" lon="0.90664">
        <ele>152</ele>
        <time>2017-12-20T14:08:27Z</time>
      </trkpt>
      <trkpt lat="48.98337" lon="0.90672">
        <ele>152</ele>
        <time>2017-12-20T14:08:28Z</time>
      </trkpt>
      <trkpt lat="48.98337" lon="0.9068">
        <ele>152</ele>
        <time>2017-12-20T14:08:29Z</time>
      </trkpt>
      <trkpt lat="48.98337" lon="0.90687">
        <ele>152</ele>
        <time>2017-12-20T14:08:30Z</time>
      </trkpt>
      <trkpt lat="48.98337" lon="0.90695">
        <ele>152</ele>
        <time>2017-12-20T14:08:31Z</time>
      </trkpt>
      <trkpt lat="48.98337" lon="0.90702">
        <ele>152</ele>
        <time>2017-12-20T14:08:32Z</time>
      </trkpt>
      <trkpt lat="48.98338" lon="0.90715">
        <ele>152</ele>
        <time>2017-12-20T14:08:34Z</time>
      </trkpt>
      <trkpt lat="48.98337" lon="0.90727">
        <ele>152</ele>
        <time>2017-12-20T14:08:36Z</time>
      </trkpt>
      <trkpt lat="48.98337" lon="0.9074">
        <ele>152</ele>
        <time>2017-12-20T14:08:38Z</time>
      </trkpt>
      <trkpt lat="48.98336" lon="0.90752">
        <ele>152</ele>
        <time>2017-12-20T14:08:40Z</time>
      </trkpt>
      <trkpt lat="48.98336" lon="0.90765">
        <ele>152</ele>
        <time>2017-12-20T14:08:42Z</time>
      </trkpt>
      <trkpt lat="48.98336" lon="0.90777">
        <ele>151</ele>
        <time>2017-12-20T14:08:44Z</time>
      </trkpt>
      <trkpt lat="48.98335" lon="0.90789">
        <ele>151</ele>
        <time>2017-12-20T14:08:46Z</time>
      </trkpt>
      <trkpt lat="48.98329" lon="0.90794">
        <ele>151</ele>
        <time>2017-12-20T14:08:48Z</time>
      </trkpt>
      <trkpt lat="48.98324" lon="0.90795">
        <ele>152</ele>
        <time>2017-12-20T14:08:49Z</time>
      </trkpt>
      <trkpt lat="48.98317" lon="0.90801">
        <ele>152</ele>
        <time>2017-12-20T14:08:51Z</time>
      </trkpt>
      <trkpt lat="48.98311" lon="0.90808">
        <ele>152</ele>
        <time>2017-12-20T14:08:53Z</time>
      </trkpt>
      <trkpt lat="48.98304" lon="0.90812">
        <ele>152</ele>
        <time>2017-12-20T14:08:55Z</time>
      </trkpt>
      <trkpt lat="48.98295" lon="0.90817">
        <ele>151</ele>
        <time>2017-12-20T14:08:57Z</time>
      </trkpt>
      <trkpt lat="48.9829" lon="0.90819">
        <ele>151</ele>
        <time>2017-12-20T14:08:58Z</time>
      </trkpt>
      <trkpt lat="48.98282" lon="0.90822">
        <ele>151</ele>
        <time>2017-12-20T14:09:00Z</time>
      </trkpt>
      <trkpt lat="48.98274" lon="0.90827">
        <ele>151</ele>
        <time>2017-12-20T14:09:02Z</time>
      </trkpt>
      <trkpt lat="48.98266" lon="0.9083">
        <ele>151</ele>
        <time>2017-12-20T14:09:04Z</time>
      </trkpt>
      <trkpt lat="48.98261" lon="0.90832">
        <ele>151</ele>
        <time>2017-12-20T14:09:05Z</time>
      </trkpt>
      <trkpt lat="48.98256" lon="0.90835">
        <ele>150</ele>
        <time>2017-12-20T14:09:06Z</time>
      </trkpt>
      <trkpt lat="48.98251" lon="0.90837">
        <ele>150</ele>
        <time>2017-12-20T14:09:07Z</time>
      </trkpt>
      <trkpt lat="48.98247" lon="0.9084">
        <ele>150</ele>
        <time>2017-12-20T14:09:08Z</time>
      </trkpt>
      <trkpt lat="48.98242" lon="0.90842">
        <ele>150</ele>
        <time>2017-12-20T14:09:09Z</time>
      </trkpt>
      <trkpt lat="48.98237" lon="0.90845">
        <ele>150</ele>
        <time>2017-12-20T14:09:10Z</time>
      </trkpt>
      <trkpt lat="48.98232" lon="0.90848">
        <ele>150</ele>
        <time>2017-12-20T14:09:11Z</time>
      </trkpt>
      <trkpt lat="48.98227" lon="0.90851">
        <ele>150</ele>
        <time>2017-12-20T14:09:12Z</time>
      </trkpt>
      <trkpt lat="48.98223" lon="0.90853">
        <ele>150</ele>
        <time>2017-12-20T14:09:13Z</time>
      </trkpt>
      <trkpt lat="48.98218" lon="0.90856">
        <ele>150</ele>
        <time>2017-12-20T14:09:14Z</time>
      </trkpt>
      <trkpt lat="48.98213" lon="0.90858">
        <ele>150</ele>
        <time>2017-12-20T14:09:15Z</time>
      </trkpt>
      <trkpt lat="48.98208" lon="0.90861">
        <ele>149</ele>
        <time>2017-12-20T14:09:16Z</time>
      </trkpt>
      <trkpt lat="48.98203" lon="0.90863">
        <ele>149</ele>
        <time>2017-12-20T14:09:17Z</time>
      </trkpt>
      <trkpt lat="48.98198" lon="0.90865">
        <ele>149</ele>
        <time>2017-12-20T14:09:18Z</time>
      </trkpt>
      <trkpt lat="48.98193" lon="0.90866">
        <ele>148</ele>
        <time>2017-12-20T14:09:19Z</time>
      </trkpt>
      <trkpt lat="48.98187" lon="0.90867">
        <ele>148</ele>
        <time>2017-12-20T14:09:20Z</time>
      </trkpt>
      <trkpt lat="48.98181" lon="0.90869">
        <ele>148</ele>
        <time>2017-12-20T14:09:21Z</time>
      </trkpt>
      <trkpt lat="48.98175" lon="0.9087">
        <ele>147</ele>
        <time>2017-12-20T14:09:22Z</time>
      </trkpt>
      <trkpt lat="48.9817" lon="0.90872">
        <ele>147</ele>
        <time>2017-12-20T14:09:23Z</time>
      </trkpt>
      <trkpt lat="48.98164" lon="0.90873">
        <ele>147</ele>
        <time>2017-12-20T14:09:24Z</time>
      </trkpt>
      <trkpt lat="48.98158" lon="0.90874">
        <ele>147</ele>
        <time>2017-12-20T14:09:25Z</time>
      </trkpt>
      <trkpt lat="48.98151" lon="0.90875">
        <ele>147</ele>
        <time>2017-12-20T14:09:26Z</time>
      </trkpt>
      <trkpt lat="48.98146" lon="0.90876">
        <ele>147</ele>
        <time>2017-12-20T14:09:27Z</time>
      </trkpt>
      <trkpt lat="48.9814" lon="0.90877">
        <ele>147</ele>
        <time>2017-12-20T14:09:28Z</time>
      </trkpt>
      <trkpt lat="48.98134" lon="0.90877">
        <ele>147</ele>
        <time>2017-12-20T14:09:29Z</time>
      </trkpt>
      <trkpt lat="48.98128" lon="0.90878">
        <ele>147</ele>
        <time>2017-12-20T14:09:30Z</time>
      </trkpt>
      <trkpt lat="48.98122" lon="0.90879">
        <ele>147</ele>
        <time>2017-12-20T14:09:31Z</time>
      </trkpt>
      <trkpt lat="48.98116" lon="0.9088">
        <ele>147</ele>
        <time>2017-12-20T14:09:32Z</time>
      </trkpt>
      <trkpt lat="48.98109" lon="0.90881">
        <ele>146</ele>
        <time>2017-12-20T14:09:33Z</time>
      </trkpt>
      <trkpt lat="48.98103" lon="0.90882">
        <ele>146</ele>
        <time>2017-12-20T14:09:34Z</time>
      </trkpt>
      <trkpt lat="48.98097" lon="0.90884">
        <ele>146</ele>
        <time>2017-12-20T14:09:35Z</time>
      </trkpt>
      <trkpt lat="48.98091" lon="0.90885">
        <ele>146</ele>
        <time>2017-12-20T14:09:36Z</time>
      </trkpt>
      <trkpt lat="48.98085" lon="0.90886">
        <ele>146</ele>
        <time>2017-12-20T14:09:37Z</time>
      </trkpt>
      <trkpt lat="48.9808" lon="0.90887">
        <ele>146</ele>
        <time>2017-12-20T14:09:38Z</time>
      </trkpt>
      <trkpt lat="48.98074" lon="0.90888">
        <ele>146</ele>
        <time>2017-12-20T14:09:39Z</time>
      </trkpt>
      <trkpt lat="48.98068" lon="0.90888">
        <ele>146</ele>
        <time>2017-12-20T14:09:40Z</time>
      </trkpt>
      <trkpt lat="48.98063" lon="0.90889">
        <ele>146</ele>
        <time>2017-12-20T14:09:41Z</time>
      </trkpt>
      <trkpt lat="48.98057" lon="0.9089">
        <ele>146</ele>
        <time>2017-12-20T14:09:42Z</time>
      </trkpt>
      <trkpt lat="48.98052" lon="0.90891">
        <ele>146</ele>
        <time>2017-12-20T14:09:43Z</time>
      </trkpt>
      <trkpt lat="48.98045" lon="0.90892">
        <ele>146</ele>
        <time>2017-12-20T14:09:44Z</time>
      </trkpt>
      <trkpt lat="48.9804" lon="0.90893">
        <ele>146</ele>
        <time>2017-12-20T14:09:45Z</time>
      </trkpt>
      <trkpt lat="48.98035" lon="0.90894">
        <ele>146</ele>
        <time>2017-12-20T14:09:46Z</time>
      </trkpt>
      <trkpt lat="48.98029" lon="0.90895">
        <ele>147</ele>
        <time>2017-12-20T14:09:47Z</time>
      </trkpt>
      <trkpt lat="48.98024" lon="0.90896">
        <ele>147</ele>
        <time>2017-12-20T14:09:48Z</time>
      </trkpt>
      <trkpt lat="48.98019" lon="0.90897">
        <ele>147</ele>
        <time>2017-12-20T14:09:49Z</time>
      </trkpt>
      <trkpt lat="48.98014" lon="0.90898">
        <ele>147</ele>
        <time>2017-12-20T14:09:50Z</time>
      </trkpt>
      <trkpt lat="48.98008" lon="0.90899">
        <ele>147</ele>
        <time>2017-12-20T14:09:51Z</time>
      </trkpt>
      <trkpt lat="48.98003" lon="0.90899">
        <ele>147</ele>
        <time>2017-12-20T14:09:52Z</time>
      </trkpt>
      <trkpt lat="48.97997" lon="0.909">
        <ele>147</ele>
        <time>2017-12-20T14:09:53Z</time>
      </trkpt>
      <trkpt lat="48.97992" lon="0.90901">
        <ele>147</ele>
        <time>2017-12-20T14:09:54Z</time>
      </trkpt>
      <trkpt lat="48.97987" lon="0.90902">
        <ele>147</ele>
        <time>2017-12-20T14:09:55Z</time>
      </trkpt>
      <trkpt lat="48.97982" lon="0.90903">
        <ele>147</ele>
        <time>2017-12-20T14:09:56Z</time>
      </trkpt>
      <trkpt lat="48.97977" lon="0.90904">
        <ele>148</ele>
        <time>2017-12-20T14:09:57Z</time>
      </trkpt>
      <trkpt lat="48.97973" lon="0.90905">
        <ele>148</ele>
        <time>2017-12-20T14:09:58Z</time>
      </trkpt>
      <trkpt lat="48.97966" lon="0.90904">
        <ele>149</ele>
        <time>2017-12-20T14:10:00Z</time>
      </trkpt>
      <trkpt lat="48.97961" lon="0.90898">
        <ele>149</ele>
        <time>2017-12-20T14:10:02Z</time>
      </trkpt>
      <trkpt lat="48.97957" lon="0.90891">
        <ele>149</ele>
        <time>2017-12-20T14:10:04Z</time>
      </trkpt>
      <trkpt lat="48.97955" lon="0.90881">
        <ele>149</ele>
        <time>2017-12-20T14:10:06Z</time>
      </trkpt>
      <trkpt lat="48.97952" lon="0.9087">
        <ele>149</ele>
        <time>2017-12-20T14:10:08Z</time>
      </trkpt>
      <trkpt lat="48.97951" lon="0.9086">
        <ele>148</ele>
        <time>2017-12-20T14:10:10Z</time>
      </trkpt>
      <trkpt lat="48.9795" lon="0.90847">
        <ele>149</ele>
        <time>2017-12-20T14:10:12Z</time>
      </trkpt>
      <trkpt lat="48.97947" lon="0.90834">
        <ele>149</ele>
        <time>2017-12-20T14:10:14Z</time>
      </trkpt>
      <trkpt lat="48.97947" lon="0.90826">
        <ele>148</ele>
        <time>2017-12-20T14:10:15Z</time>
      </trkpt>
      <trkpt lat="48.97946" lon="0.90819">
        <ele>148</ele>
        <time>2017-12-20T14:10:16Z</time>
      </trkpt>
      <trkpt lat="48.97945" lon="0.90812">
        <ele>148</ele>
        <time>2017-12-20T14:10:17Z</time>
      </trkpt>
      <trkpt lat="48.97944" lon="0.90804">
        <ele>148</ele>
        <time>2017-12-20T14:10:18Z</time>
      </trkpt>
      <trkpt lat="48.97944" lon="0.90791">
        <ele>148</ele>
        <time>2017-12-20T14:10:20Z</time>
      </trkpt>
      <trkpt lat="48.97944" lon="0.90778">
        <ele>147</ele>
        <time>2017-12-20T14:10:22Z</time>
      </trkpt>
      <trkpt lat="48.97944" lon="0.90771">
        <ele>147</ele>
        <time>2017-12-20T14:10:23Z</time>
      </trkpt>
      <trkpt lat="48.97944" lon="0.90764">
        <ele>146</ele>
        <time>2017-12-20T14:10:24Z</time>
      </trkpt>
      <trkpt lat="48.97944" lon="0.90757">
        <ele>146</ele>
        <time>2017-12-20T14:10:25Z</time>
      </trkpt>
      <trkpt lat="48.97944" lon="0.90743">
        <ele>146</ele>
        <time>2017-12-20T14:10:27Z</time>
      </trkpt>
      <trkpt lat="48.97944" lon="0.90736">
        <ele>146</ele>
        <time>2017-12-20T14:10:28Z</time>
      </trkpt>
      <trkpt lat="48.97945" lon="0.90729">
        <ele>146</ele>
        <time>2017-12-20T14:10:29Z</time>
      </trkpt>
      <trkpt lat="48.97944" lon="0.90722">
        <ele>146</ele>
        <time>2017-12-20T14:10:30Z</time>
      </trkpt>
      <trkpt lat="48.97944" lon="0.90715">
        <ele>146</ele>
        <time>2017-12-20T14:10:31Z</time>
      </trkpt>
      <trkpt lat="48.97944" lon="0.90707">
        <ele>145</ele>
        <time>2017-12-20T14:10:32Z</time>
      </trkpt>
      <trkpt lat="48.97944" lon="0.907">
        <ele>145</ele>
        <time>2017-12-20T14:10:33Z</time>
      </trkpt>
      <trkpt lat="48.97943" lon="0.90688">
        <ele>145</ele>
        <time>2017-12-20T14:10:35Z</time>
      </trkpt>
      <trkpt lat="48.97943" lon="0.90677">
        <ele>145</ele>
        <time>2017-12-20T14:10:37Z</time>
      </trkpt>
      <trkpt lat="48.97942" lon="0.90668">
        <ele>145</ele>
        <time>2017-12-20T14:10:39Z</time>
      </trkpt>
      <trkpt lat="48.97937" lon="0.90662">
        <ele>145</ele>
        <time>2017-12-20T14:10:42Z</time>
      </trkpt>
      <trkpt lat="48.97929" lon="0.90665">
        <ele>145</ele>
        <time>2017-12-20T14:10:44Z</time>
      </trkpt>
      <trkpt lat="48.97924" lon="0.90667">
        <ele>145</ele>
        <time>2017-12-20T14:10:45Z</time>
      </trkpt>
      <trkpt lat="48.97918" lon="0.90669">
        <ele>145</ele>
        <time>2017-12-20T14:10:46Z</time>
      </trkpt>
      <trkpt lat="48.97912" lon="0.90671">
        <ele>146</ele>
        <time>2017-12-20T14:10:47Z</time>
      </trkpt>
      <trkpt lat="48.97907" lon="0.90672">
        <ele>146</ele>
        <time>2017-12-20T14:10:48Z</time>
      </trkpt>
      <trkpt lat="48.979" lon="0.90674">
        <ele>146</ele>
        <time>2017-12-20T14:10:49Z</time>
      </trkpt>
      <trkpt lat="48.97895" lon="0.90676">
        <ele>146</ele>
        <time>2017-12-20T14:10:50Z</time>
      </trkpt>
      <trkpt lat="48.97891" lon="0.90677">
        <ele>146</ele>
        <time>2017-12-20T14:10:51Z</time>
      </trkpt>
      <trkpt lat="48.97882" lon="0.90679">
        <ele>146</ele>
        <time>2017-12-20T14:10:53Z</time>
      </trkpt>
      <trkpt lat="48.97873" lon="0.90682">
        <ele>147</ele>
        <time>2017-12-20T14:10:55Z</time>
      </trkpt>
      <trkpt lat="48.97868" lon="0.90684">
        <ele>147</ele>
        <time>2017-12-20T14:10:56Z</time>
      </trkpt>
      <trkpt lat="48.97859" lon="0.90685">
        <ele>148</ele>
        <time>2017-12-20T14:10:58Z</time>
      </trkpt>
      <trkpt lat="48.97854" lon="0.90686">
        <ele>148</ele>
        <time>2017-12-20T14:10:59Z</time>
      </trkpt>
      <trkpt lat="48.9785" lon="0.90688">
        <ele>148</ele>
        <time>2017-12-20T14:11:00Z</time>
      </trkpt>
      <trkpt lat="48.97841" lon="0.90691">
        <ele>148</ele>
        <time>2017-12-20T14:11:02Z</time>
      </trkpt>
      <trkpt lat="48.97836" lon="0.90693">
        <ele>148</ele>
        <time>2017-12-20T14:11:03Z</time>
      </trkpt>
      <trkpt lat="48.97831" lon="0.90695">
        <ele>148</ele>
        <time>2017-12-20T14:11:04Z</time>
      </trkpt>
      <trkpt lat="48.97826" lon="0.90697">
        <ele>147</ele>
        <time>2017-12-20T14:11:05Z</time>
      </trkpt>
      <trkpt lat="48.97821" lon="0.90699">
        <ele>148</ele>
        <time>2017-12-20T14:11:06Z</time>
      </trkpt>
      <trkpt lat="48.97817" lon="0.90701">
        <ele>148</ele>
        <time>2017-12-20T14:11:07Z</time>
      </trkpt>
      <trkpt lat="48.97812" lon="0.90704">
        <ele>148</ele>
        <time>2017-12-20T14:11:08Z</time>
      </trkpt>
      <trkpt lat="48.97807" lon="0.90706">
        <ele>148</ele>
        <time>2017-12-20T14:11:09Z</time>
      </trkpt>
      <trkpt lat="48.97802" lon="0.90709">
        <ele>148</ele>
        <time>2017-12-20T14:11:10Z</time>
      </trkpt>
      <trkpt lat="48.97798" lon="0.90713">
        <ele>148</ele>
        <time>2017-12-20T14:11:11Z</time>
      </trkpt>
      <trkpt lat="48.97792" lon="0.90718">
        <ele>148</ele>
        <time>2017-12-20T14:11:12Z</time>
      </trkpt>
      <trkpt lat="48.97788" lon="0.90721">
        <ele>148</ele>
        <time>2017-12-20T14:11:13Z</time>
      </trkpt>
      <trkpt lat="48.97783" lon="0.90724">
        <ele>148</ele>
        <time>2017-12-20T14:11:14Z</time>
      </trkpt>
      <trkpt lat="48.97778" lon="0.90728">
        <ele>148</ele>
        <time>2017-12-20T14:11:15Z</time>
      </trkpt>
      <trkpt lat="48.97773" lon="0.90732">
        <ele>148</ele>
        <time>2017-12-20T14:11:16Z</time>
      </trkpt>
      <trkpt lat="48.97767" lon="0.90736">
        <ele>148</ele>
        <time>2017-12-20T14:11:17Z</time>
      </trkpt>
      <trkpt lat="48.97762" lon="0.90739">
        <ele>148</ele>
        <time>2017-12-20T14:11:18Z</time>
      </trkpt>
      <trkpt lat="48.97757" lon="0.90743">
        <ele>148</ele>
        <time>2017-12-20T14:11:19Z</time>
      </trkpt>
      <trkpt lat="48.97752" lon="0.90747">
        <ele>148</ele>
        <time>2017-12-20T14:11:20Z</time>
      </trkpt>
      <trkpt lat="48.97747" lon="0.90751">
        <ele>148</ele>
        <time>2017-12-20T14:11:21Z</time>
      </trkpt>
      <trkpt lat="48.97744" lon="0.90755">
        <ele>149</ele>
        <time>2017-12-20T14:11:22Z</time>
      </trkpt>
      <trkpt lat="48.97733" lon="0.90761">
        <ele>149</ele>
        <time>2017-12-20T14:11:24Z</time>
      </trkpt>
      <trkpt lat="48.97728" lon="0.90764">
        <ele>149</ele>
        <time>2017-12-20T14:11:25Z</time>
      </trkpt>
      <trkpt lat="48.97722" lon="0.90767">
        <ele>149</ele>
        <time>2017-12-20T14:11:26Z</time>
      </trkpt>
      <trkpt lat="48.97717" lon="0.9077">
        <ele>149</ele>
        <time>2017-12-20T14:11:27Z</time>
      </trkpt>
      <trkpt lat="48.9771" lon="0.90774">
        <ele>148</ele>
        <time>2017-12-20T14:11:28Z</time>
      </trkpt>
      <trkpt lat="48.97704" lon="0.90777">
        <ele>148</ele>
        <time>2017-12-20T14:11:29Z</time>
      </trkpt>
      <trkpt lat="48.97699" lon="0.9078">
        <ele>148</ele>
        <time>2017-12-20T14:11:30Z</time>
      </trkpt>
      <trkpt lat="48.97694" lon="0.90783">
        <ele>148</ele>
        <time>2017-12-20T14:11:31Z</time>
      </trkpt>
      <trkpt lat="48.97691" lon="0.90787">
        <ele>149</ele>
        <time>2017-12-20T14:11:32Z</time>
      </trkpt>
      <trkpt lat="48.97681" lon="0.90793">
        <ele>148</ele>
        <time>2017-12-20T14:11:34Z</time>
      </trkpt>
      <trkpt lat="48.97676" lon="0.90796">
        <ele>148</ele>
        <time>2017-12-20T14:11:35Z</time>
      </trkpt>
      <trkpt lat="48.9767" lon="0.90799">
        <ele>147</ele>
        <time>2017-12-20T14:11:36Z</time>
      </trkpt>
      <trkpt lat="48.97664" lon="0.90804">
        <ele>146</ele>
        <time>2017-12-20T14:11:37Z</time>
      </trkpt>
      <trkpt lat="48.97658" lon="0.90808">
        <ele>146</ele>
        <time>2017-12-20T14:11:38Z</time>
      </trkpt>
      <trkpt lat="48.97652" lon="0.90811">
        <ele>145</ele>
        <time>2017-12-20T14:11:39Z</time>
      </trkpt>
      <trkpt lat="48.97644" lon="0.90815">
        <ele>145</ele>
        <time>2017-12-20T14:11:40Z</time>
      </trkpt>
      <trkpt lat="48.97639" lon="0.90818">
        <ele>144</ele>
        <time>2017-12-20T14:11:41Z</time>
      </trkpt>
      <trkpt lat="48.97632" lon="0.90823">
        <ele>144</ele>
        <time>2017-12-20T14:11:42Z</time>
      </trkpt>
      <trkpt lat="48.97625" lon="0.90827">
        <ele>143</ele>
        <time>2017-12-20T14:11:43Z</time>
      </trkpt>
      <trkpt lat="48.97617" lon="0.9083">
        <ele>142</ele>
        <time>2017-12-20T14:11:44Z</time>
      </trkpt>
      <trkpt lat="48.9761" lon="0.90834">
        <ele>141</ele>
        <time>2017-12-20T14:11:45Z</time>
      </trkpt>
      <trkpt lat="48.97603" lon="0.90838">
        <ele>142</ele>
        <time>2017-12-20T14:11:46Z</time>
      </trkpt>
      <trkpt lat="48.97595" lon="0.9084">
        <ele>142</ele>
        <time>2017-12-20T14:11:47Z</time>
      </trkpt>
      <trkpt lat="48.97589" lon="0.90843">
        <ele>142</ele>
        <time>2017-12-20T14:11:48Z</time>
      </trkpt>
      <trkpt lat="48.97583" lon="0.90846">
        <ele>142</ele>
        <time>2017-12-20T14:11:49Z</time>
      </trkpt>
      <trkpt lat="48.97576" lon="0.90849">
        <ele>143</ele>
        <time>2017-12-20T14:11:50Z</time>
      </trkpt>
      <trkpt lat="48.9757" lon="0.90852">
        <ele>143</ele>
        <time>2017-12-20T14:11:51Z</time>
      </trkpt>
      <trkpt lat="48.97563" lon="0.90855">
        <ele>143</ele>
        <time>2017-12-20T14:11:52Z</time>
      </trkpt>
      <trkpt lat="48.97557" lon="0.90857">
        <ele>142</ele>
        <time>2017-12-20T14:11:53Z</time>
      </trkpt>
      <trkpt lat="48.97551" lon="0.9086">
        <ele>142</ele>
        <time>2017-12-20T14:11:54Z</time>
      </trkpt>
      <trkpt lat="48.97547" lon="0.90861">
        <ele>141</ele>
        <time>2017-12-20T14:11:55Z</time>
      </trkpt>
      <trkpt lat="48.97541" lon="0.90864">
        <ele>141</ele>
        <time>2017-12-20T14:11:56Z</time>
      </trkpt>
      <trkpt lat="48.97535" lon="0.90866">
        <ele>141</ele>
        <time>2017-12-20T14:11:57Z</time>
      </trkpt>
      <trkpt lat="48.97529" lon="0.90868">
        <ele>141</ele>
        <time>2017-12-20T14:11:58Z</time>
      </trkpt>
      <trkpt lat="48.97522" lon="0.9087">
        <ele>140</ele>
        <time>2017-12-20T14:11:59Z</time>
      </trkpt>
      <trkpt lat="48.97516" lon="0.90872">
        <ele>140</ele>
        <time>2017-12-20T14:12:00Z</time>
      </trkpt>
      <trkpt lat="48.97509" lon="0.90874">
        <ele>140</ele>
        <time>2017-12-20T14:12:01Z</time>
      </trkpt>
      <trkpt lat="48.97503" lon="0.90876">
        <ele>139</ele>
        <time>2017-12-20T14:12:02Z</time>
      </trkpt>
      <trkpt lat="48.97498" lon="0.90878">
        <ele>139</ele>
        <time>2017-12-20T14:12:03Z</time>
      </trkpt>
      <trkpt lat="48.97491" lon="0.90879">
        <ele>139</ele>
        <time>2017-12-20T14:12:04Z</time>
      </trkpt>
      <trkpt lat="48.97486" lon="0.90881">
        <ele>139</ele>
        <time>2017-12-20T14:12:05Z</time>
      </trkpt>
      <trkpt lat="48.9748" lon="0.90883">
        <ele>139</ele>
        <time>2017-12-20T14:12:06Z</time>
      </trkpt>
      <trkpt lat="48.97474" lon="0.90884">
        <ele>139</ele>
        <time>2017-12-20T14:12:07Z</time>
      </trkpt>
      <trkpt lat="48.97469" lon="0.90886">
        <ele>139</ele>
        <time>2017-12-20T14:12:08Z</time>
      </trkpt>
      <trkpt lat="48.97463" lon="0.90888">
        <ele>139</ele>
        <time>2017-12-20T14:12:09Z</time>
      </trkpt>
      <trkpt lat="48.97458" lon="0.90889">
        <ele>139</ele>
        <time>2017-12-20T14:12:10Z</time>
      </trkpt>
      <trkpt lat="48.97451" lon="0.9089">
        <ele>140</ele>
        <time>2017-12-20T14:12:11Z</time>
      </trkpt>
      <trkpt lat="48.97446" lon="0.90892">
        <ele>140</ele>
        <time>2017-12-20T14:12:12Z</time>
      </trkpt>
      <trkpt lat="48.9744" lon="0.90894">
        <ele>140</ele>
        <time>2017-12-20T14:12:13Z</time>
      </trkpt>
      <trkpt lat="48.97434" lon="0.90894">
        <ele>139</ele>
        <time>2017-12-20T14:12:14Z</time>
      </trkpt>
      <trkpt lat="48.97428" lon="0.90895">
        <ele>139</ele>
        <time>2017-12-20T14:12:15Z</time>
      </trkpt>
      <trkpt lat="48.97422" lon="0.90896">
        <ele>139</ele>
        <time>2017-12-20T14:12:16Z</time>
      </trkpt>
      <trkpt lat="48.97415" lon="0.90897">
        <ele>139</ele>
        <time>2017-12-20T14:12:17Z</time>
      </trkpt>
      <trkpt lat="48.97409" lon="0.90899">
        <ele>139</ele>
        <time>2017-12-20T14:12:18Z</time>
      </trkpt>
      <trkpt lat="48.97403" lon="0.90899">
        <ele>139</ele>
        <time>2017-12-20T14:12:19Z</time>
      </trkpt>
      <trkpt lat="48.97397" lon="0.909">
        <ele>138</ele>
        <time>2017-12-20T14:12:20Z</time>
      </trkpt>
      <trkpt lat="48.97392" lon="0.90901">
        <ele>138</ele>
        <time>2017-12-20T14:12:21Z</time>
      </trkpt>
      <trkpt lat="48.97387" lon="0.90904">
        <ele>137</ele>
        <time>2017-12-20T14:12:22Z</time>
      </trkpt>
      <trkpt lat="48.97381" lon="0.90905">
        <ele>137</ele>
        <time>2017-12-20T14:12:23Z</time>
      </trkpt>
      <trkpt lat="48.97375" lon="0.90904">
        <ele>137</ele>
        <time>2017-12-20T14:12:24Z</time>
      </trkpt>
      <trkpt lat="48.9737" lon="0.90904">
        <ele>137</ele>
        <time>2017-12-20T14:12:25Z</time>
      </trkpt>
      <trkpt lat="48.9736" lon="0.90906">
        <ele>137</ele>
        <time>2017-12-20T14:12:27Z</time>
      </trkpt>
      <trkpt lat="48.97354" lon="0.90907">
        <ele>136</ele>
        <time>2017-12-20T14:12:28Z</time>
      </trkpt>
      <trkpt lat="48.97348" lon="0.90908">
        <ele>136</ele>
        <time>2017-12-20T14:12:29Z</time>
      </trkpt>
      <trkpt lat="48.97342" lon="0.90908">
        <ele>136</ele>
        <time>2017-12-20T14:12:30Z</time>
      </trkpt>
      <trkpt lat="48.97336" lon="0.90908">
        <ele>136</ele>
        <time>2017-12-20T14:12:31Z</time>
      </trkpt>
      <trkpt lat="48.9733" lon="0.90911">
        <ele>136</ele>
        <time>2017-12-20T14:12:32Z</time>
      </trkpt>
      <trkpt lat="48.97324" lon="0.90912">
        <ele>136</ele>
        <time>2017-12-20T14:12:33Z</time>
      </trkpt>
      <trkpt lat="48.97318" lon="0.90914">
        <ele>136</ele>
        <time>2017-12-20T14:12:34Z</time>
      </trkpt>
      <trkpt lat="48.97312" lon="0.90918">
        <ele>135</ele>
        <time>2017-12-20T14:12:35Z</time>
      </trkpt>
      <trkpt lat="48.97305" lon="0.90921">
        <ele>135</ele>
        <time>2017-12-20T14:12:36Z</time>
      </trkpt>
      <trkpt lat="48.97299" lon="0.90925">
        <ele>135</ele>
        <time>2017-12-20T14:12:37Z</time>
      </trkpt>
      <trkpt lat="48.97292" lon="0.90928">
        <ele>135</ele>
        <time>2017-12-20T14:12:38Z</time>
      </trkpt>
      <trkpt lat="48.97284" lon="0.90933">
        <ele>134</ele>
        <time>2017-12-20T14:12:39Z</time>
      </trkpt>
      <trkpt lat="48.97278" lon="0.90939">
        <ele>134</ele>
        <time>2017-12-20T14:12:40Z</time>
      </trkpt>
      <trkpt lat="48.97272" lon="0.90945">
        <ele>134</ele>
        <time>2017-12-20T14:12:41Z</time>
      </trkpt>
      <trkpt lat="48.97265" lon="0.90952">
        <ele>133</ele>
        <time>2017-12-20T14:12:42Z</time>
      </trkpt>
      <trkpt lat="48.97259" lon="0.90959">
        <ele>132</ele>
        <time>2017-12-20T14:12:43Z</time>
      </trkpt>
      <trkpt lat="48.97253" lon="0.90967">
        <ele>130</ele>
        <time>2017-12-20T14:12:44Z</time>
      </trkpt>
      <trkpt lat="48.97245" lon="0.90976">
        <ele>128</ele>
        <time>2017-12-20T14:12:45Z</time>
      </trkpt>
      <trkpt lat="48.97237" lon="0.90985">
        <ele>127</ele>
        <time>2017-12-20T14:12:46Z</time>
      </trkpt>
      <trkpt lat="48.9723" lon="0.90995">
        <ele>127</ele>
        <time>2017-12-20T14:12:47Z</time>
      </trkpt>
      <trkpt lat="48.97224" lon="0.91004">
        <ele>127</ele>
        <time>2017-12-20T14:12:48Z</time>
      </trkpt>
      <trkpt lat="48.9722" lon="0.91015">
        <ele>126</ele>
        <time>2017-12-20T14:12:49Z</time>
      </trkpt>
      <trkpt lat="48.97215" lon="0.91024">
        <ele>125</ele>
        <time>2017-12-20T14:12:50Z</time>
      </trkpt>
      <trkpt lat="48.9721" lon="0.91033">
        <ele>125</ele>
        <time>2017-12-20T14:12:51Z</time>
      </trkpt>
      <trkpt lat="48.97207" lon="0.91042">
        <ele>124</ele>
        <time>2017-12-20T14:12:52Z</time>
      </trkpt>
      <trkpt lat="48.97202" lon="0.91049">
        <ele>125</ele>
        <time>2017-12-20T14:12:53Z</time>
      </trkpt>
      <trkpt lat="48.97199" lon="0.91056">
        <ele>125</ele>
        <time>2017-12-20T14:12:54Z</time>
      </trkpt>
      <trkpt lat="48.97196" lon="0.91062">
        <ele>125</ele>
        <time>2017-12-20T14:12:55Z</time>
      </trkpt>
      <trkpt lat="48.97193" lon="0.91068">
        <ele>125</ele>
        <time>2017-12-20T14:12:56Z</time>
      </trkpt>
      <trkpt lat="48.9719" lon="0.91074">
        <ele>125</ele>
        <time>2017-12-20T14:12:57Z</time>
      </trkpt>
      <trkpt lat="48.97187" lon="0.91079">
        <ele>125</ele>
        <time>2017-12-20T14:12:58Z</time>
      </trkpt>
      <trkpt lat="48.97181" lon="0.91088">
        <ele>125</ele>
        <time>2017-12-20T14:13:00Z</time>
      </trkpt>
      <trkpt lat="48.97173" lon="0.91093">
        <ele>127</ele>
        <time>2017-12-20T14:13:02Z</time>
      </trkpt>
      <trkpt lat="48.97167" lon="0.91091">
        <ele>128</ele>
        <time>2017-12-20T14:13:04Z</time>
      </trkpt>
      <trkpt lat="48.9716" lon="0.91084">
        <ele>130</ele>
        <time>2017-12-20T14:13:06Z</time>
      </trkpt>
      <trkpt lat="48.97149" lon="0.91079">
        <ele>131</ele>
        <time>2017-12-20T14:13:09Z</time>
      </trkpt>
      <trkpt lat="48.97141" lon="0.9107">
        <ele>130</ele>
        <time>2017-12-20T14:13:11Z</time>
      </trkpt>
      <trkpt lat="48.97138" lon="0.91065">
        <ele>129</ele>
        <time>2017-12-20T14:13:12Z</time>
      </trkpt>
      <trkpt lat="48.97133" lon="0.91057">
        <ele>129</ele>
        <time>2017-12-20T14:13:14Z</time>
      </trkpt>
      <trkpt lat="48.97129" lon="0.91053">
        <ele>129</ele>
        <time>2017-12-20T14:13:15Z</time>
      </trkpt>
      <trkpt lat="48.97125" lon="0.91047">
        <ele>129</ele>
        <time>2017-12-20T14:13:16Z</time>
      </trkpt>
      <trkpt lat="48.9712" lon="0.91042">
        <ele>129</ele>
        <time>2017-12-20T14:13:17Z</time>
      </trkpt>
      <trkpt lat="48.97116" lon="0.91036">
        <ele>129</ele>
        <time>2017-12-20T14:13:18Z</time>
      </trkpt>
      <trkpt lat="48.97111" lon="0.9103">
        <ele>130</ele>
        <time>2017-12-20T14:13:19Z</time>
      </trkpt>
      <trkpt lat="48.97107" lon="0.91026">
        <ele>130</ele>
        <time>2017-12-20T14:13:20Z</time>
      </trkpt>
      <trkpt lat="48.97099" lon="0.91021">
        <ele>131</ele>
        <time>2017-12-20T14:13:22Z</time>
      </trkpt>
      <trkpt lat="48.97092" lon="0.91018">
        <ele>132</ele>
        <time>2017-12-20T14:13:24Z</time>
      </trkpt>
      <trkpt lat="48.97085" lon="0.91016">
        <ele>133</ele>
        <time>2017-12-20T14:13:26Z</time>
      </trkpt>
      <trkpt lat="48.97078" lon="0.91015">
        <ele>133</ele>
        <time>2017-12-20T14:13:28Z</time>
      </trkpt>
      <trkpt lat="48.9707" lon="0.91014">
        <ele>133</ele>
        <time>2017-12-20T14:13:30Z</time>
      </trkpt>
      <trkpt lat="48.97063" lon="0.91013">
        <ele>134</ele>
        <time>2017-12-20T14:13:32Z</time>
      </trkpt>
      <trkpt lat="48.97055" lon="0.91013">
        <ele>134</ele>
        <time>2017-12-20T14:13:34Z</time>
      </trkpt>
      <trkpt lat="48.97047" lon="0.91013">
        <ele>134</ele>
        <time>2017-12-20T14:13:36Z</time>
      </trkpt>
      <trkpt lat="48.97039" lon="0.91012">
        <ele>134</ele>
        <time>2017-12-20T14:13:38Z</time>
      </trkpt>
      <trkpt lat="48.97031" lon="0.91012">
        <ele>135</ele>
        <time>2017-12-20T14:13:40Z</time>
      </trkpt>
      <trkpt lat="48.97022" lon="0.91012">
        <ele>135</ele>
        <time>2017-12-20T14:13:42Z</time>
      </trkpt>
      <trkpt lat="48.97014" lon="0.91011">
        <ele>135</ele>
        <time>2017-12-20T14:13:44Z</time>
      </trkpt>
      <trkpt lat="48.97009" lon="0.91011">
        <ele>135</ele>
        <time>2017-12-20T14:13:45Z</time>
      </trkpt>
      <trkpt lat="48.97" lon="0.91011">
        <ele>135</ele>
        <time>2017-12-20T14:13:47Z</time>
      </trkpt>
      <trkpt lat="48.96995" lon="0.91011">
        <ele>136</ele>
        <time>2017-12-20T14:13:48Z</time>
      </trkpt>
      <trkpt lat="48.96991" lon="0.91011">
        <ele>136</ele>
        <time>2017-12-20T14:13:49Z</time>
      </trkpt>
      <trkpt lat="48.96981" lon="0.91011">
        <ele>136</ele>
        <time>2017-12-20T14:13:51Z</time>
      </trkpt>
      <trkpt lat="48.96977" lon="0.9101">
        <ele>137</ele>
        <time>2017-12-20T14:13:52Z</time>
      </trkpt>
      <trkpt lat="48.96972" lon="0.9101">
        <ele>137</ele>
        <time>2017-12-20T14:13:53Z</time>
      </trkpt>
      <trkpt lat="48.96964" lon="0.91011">
        <ele>138</ele>
        <time>2017-12-20T14:13:55Z</time>
      </trkpt>
      <trkpt lat="48.96956" lon="0.91011">
        <ele>139</ele>
        <time>2017-12-20T14:13:57Z</time>
      </trkpt>
      <trkpt lat="48.96947" lon="0.9101">
        <ele>139</ele>
        <time>2017-12-20T14:13:59Z</time>
      </trkpt>
      <trkpt lat="48.96942" lon="0.9101">
        <ele>139</ele>
        <time>2017-12-20T14:14:00Z</time>
      </trkpt>
      <trkpt lat="48.96934" lon="0.91009">
        <ele>139</ele>
        <time>2017-12-20T14:14:02Z</time>
      </trkpt>
      <trkpt lat="48.96926" lon="0.91008">
        <ele>139</ele>
        <time>2017-12-20T14:14:04Z</time>
      </trkpt>
      <trkpt lat="48.96918" lon="0.91005">
        <ele>139</ele>
        <time>2017-12-20T14:14:06Z</time>
      </trkpt>
      <trkpt lat="48.9691" lon="0.91004">
        <ele>140</ele>
        <time>2017-12-20T14:14:08Z</time>
      </trkpt>
      <trkpt lat="48.96902" lon="0.91003">
        <ele>141</ele>
        <time>2017-12-20T14:14:10Z</time>
      </trkpt>
      <trkpt lat="48.96894" lon="0.91001">
        <ele>141</ele>
        <time>2017-12-20T14:14:12Z</time>
      </trkpt>
      <trkpt lat="48.96886" lon="0.91001">
        <ele>141</ele>
        <time>2017-12-20T14:14:14Z</time>
      </trkpt>
      <trkpt lat="48.96879" lon="0.91">
        <ele>141</ele>
        <time>2017-12-20T14:14:16Z</time>
      </trkpt>
      <trkpt lat="48.96872" lon="0.90999">
        <ele>142</ele>
        <time>2017-12-20T14:14:18Z</time>
      </trkpt>
      <trkpt lat="48.96863" lon="0.91">
        <ele>142</ele>
        <time>2017-12-20T14:14:20Z</time>
      </trkpt>
      <trkpt lat="48.96857" lon="0.91002">
        <ele>142</ele>
        <time>2017-12-20T14:14:22Z</time>
      </trkpt>
      <trkpt lat="48.9685" lon="0.91004">
        <ele>143</ele>
        <time>2017-12-20T14:14:24Z</time>
      </trkpt>
      <trkpt lat="48.96843" lon="0.91006">
        <ele>143</ele>
        <time>2017-12-20T14:14:26Z</time>
      </trkpt>
      <trkpt lat="48.96836" lon="0.91008">
        <ele>143</ele>
        <time>2017-12-20T14:14:28Z</time>
      </trkpt>
      <trkpt lat="48.96828" lon="0.91011">
        <ele>143</ele>
        <time>2017-12-20T14:14:30Z</time>
      </trkpt>
      <trkpt lat="48.9682" lon="0.91013">
        <ele>143</ele>
        <time>2017-12-20T14:14:32Z</time>
      </trkpt>
      <trkpt lat="48.96812" lon="0.91016">
        <ele>144</ele>
        <time>2017-12-20T14:14:34Z</time>
      </trkpt>
      <trkpt lat="48.96805" lon="0.91019">
        <ele>144</ele>
        <time>2017-12-20T14:14:36Z</time>
      </trkpt>
      <trkpt lat="48.96798" lon="0.91022">
        <ele>144</ele>
        <time>2017-12-20T14:14:38Z</time>
      </trkpt>
      <trkpt lat="48.9679" lon="0.91025">
        <ele>144</ele>
        <time>2017-12-20T14:14:40Z</time>
      </trkpt>
      <trkpt lat="48.96782" lon="0.91027">
        <ele>144</ele>
        <time>2017-12-20T14:14:42Z</time>
      </trkpt>
      <trkpt lat="48.96774" lon="0.91029">
        <ele>145</ele>
        <time>2017-12-20T14:14:44Z</time>
      </trkpt>
      <trkpt lat="48.96766" lon="0.9103">
        <ele>145</ele>
        <time>2017-12-20T14:14:46Z</time>
      </trkpt>
      <trkpt lat="48.96759" lon="0.9103">
        <ele>145</ele>
        <time>2017-12-20T14:14:48Z</time>
      </trkpt>
      <trkpt lat="48.96751" lon="0.91028">
        <ele>145</ele>
        <time>2017-12-20T14:14:50Z</time>
      </trkpt>
      <trkpt lat="48.96745" lon="0.91024">
        <ele>145</ele>
        <time>2017-12-20T14:14:52Z</time>
      </trkpt>
      <trkpt lat="48.96738" lon="0.91019">
        <ele>146</ele>
        <time>2017-12-20T14:14:54Z</time>
      </trkpt>
      <trkpt lat="48.96733" lon="0.91012">
        <ele>146</ele>
        <time>2017-12-20T14:14:56Z</time>
      </trkpt>
      <trkpt lat="48.9673" lon="0.91001">
        <ele>145</ele>
        <time>2017-12-20T14:14:58Z</time>
      </trkpt>
      <trkpt lat="48.96732" lon="0.9099">
        <ele>145</ele>
        <time>2017-12-20T14:15:00Z</time>
      </trkpt>
      <trkpt lat="48.96733" lon="0.90983">
        <ele>145</ele>
        <time>2017-12-20T14:15:01Z</time>
      </trkpt>
      <trkpt lat="48.96734" lon="0.90975">
        <ele>146</ele>
        <time>2017-12-20T14:15:02Z</time>
      </trkpt>
      <trkpt lat="48.96734" lon="0.90967">
        <ele>146</ele>
        <time>2017-12-20T14:15:03Z</time>
      </trkpt>
      <trkpt lat="48.96735" lon="0.9096">
        <ele>146</ele>
        <time>2017-12-20T14:15:04Z</time>
      </trkpt>
      <trkpt lat="48.96736" lon="0.90954">
        <ele>146</ele>
        <time>2017-12-20T14:15:05Z</time>
      </trkpt>
      <trkpt lat="48.96737" lon="0.90947">
        <ele>146</ele>
        <time>2017-12-20T14:15:06Z</time>
      </trkpt>
      <trkpt lat="48.96738" lon="0.90934">
        <ele>146</ele>
        <time>2017-12-20T14:15:08Z</time>
      </trkpt>
      <trkpt lat="48.96739" lon="0.90927">
        <ele>146</ele>
        <time>2017-12-20T14:15:09Z</time>
      </trkpt>
      <trkpt lat="48.9674" lon="0.9092">
        <ele>146</ele>
        <time>2017-12-20T14:15:10Z</time>
      </trkpt>
      <trkpt lat="48.9674" lon="0.90913">
        <ele>146</ele>
        <time>2017-12-20T14:15:11Z</time>
      </trkpt>
      <trkpt lat="48.9674" lon="0.90906">
        <ele>147</ele>
        <time>2017-12-20T14:15:12Z</time>
      </trkpt>
      <trkpt lat="48.96741" lon="0.90892">
        <ele>147</ele>
        <time>2017-12-20T14:15:14Z</time>
      </trkpt>
      <trkpt lat="48.96741" lon="0.90885">
        <ele>147</ele>
        <time>2017-12-20T14:15:15Z</time>
      </trkpt>
      <trkpt lat="48.96741" lon="0.90878">
        <ele>147</ele>
        <time>2017-12-20T14:15:16Z</time>
      </trkpt>
      <trkpt lat="48.96741" lon="0.90871">
        <ele>146</ele>
        <time>2017-12-20T14:15:17Z</time>
      </trkpt>
      <trkpt lat="48.96742" lon="0.90864">
        <ele>146</ele>
        <time>2017-12-20T14:15:18Z</time>
      </trkpt>
      <trkpt lat="48.96742" lon="0.90856">
        <ele>146</ele>
        <time>2017-12-20T14:15:19Z</time>
      </trkpt>
      <trkpt lat="48.96741" lon="0.90849">
        <ele>146</ele>
        <time>2017-12-20T14:15:20Z</time>
      </trkpt>
      <trkpt lat="48.96741" lon="0.90835">
        <ele>146</ele>
        <time>2017-12-20T14:15:22Z</time>
      </trkpt>
      <trkpt lat="48.96741" lon="0.90827">
        <ele>146</ele>
        <time>2017-12-20T14:15:23Z</time>
      </trkpt>
      <trkpt lat="48.96741" lon="0.9082">
        <ele>146</ele>
        <time>2017-12-20T14:15:24Z</time>
      </trkpt>
      <trkpt lat="48.96741" lon="0.90813">
        <ele>147</ele>
        <time>2017-12-20T14:15:25Z</time>
      </trkpt>
      <trkpt lat="48.9674" lon="0.908">
        <ele>147</ele>
        <time>2017-12-20T14:15:27Z</time>
      </trkpt>
      <trkpt lat="48.96741" lon="0.90787">
        <ele>147</ele>
        <time>2017-12-20T14:15:29Z</time>
      </trkpt>
      <trkpt lat="48.96743" lon="0.90775">
        <ele>147</ele>
        <time>2017-12-20T14:15:31Z</time>
      </trkpt>
      <trkpt lat="48.96746" lon="0.90763">
        <ele>147</ele>
        <time>2017-12-20T14:15:33Z</time>
      </trkpt>
      <trkpt lat="48.96751" lon="0.90755">
        <ele>148</ele>
        <time>2017-12-20T14:15:35Z</time>
      </trkpt>
      <trkpt lat="48.96756" lon="0.90749">
        <ele>148</ele>
        <time>2017-12-20T14:15:37Z</time>
      </trkpt>
      <trkpt lat="48.96762" lon="0.90741">
        <ele>148</ele>
        <time>2017-12-20T14:15:39Z</time>
      </trkpt>
      <trkpt lat="48.96768" lon="0.90732">
        <ele>148</ele>
        <time>2017-12-20T14:15:41Z</time>
      </trkpt>
      <trkpt lat="48.96775" lon="0.90722">
        <ele>148</ele>
        <time>2017-12-20T14:15:43Z</time>
      </trkpt>
      <trkpt lat="48.96779" lon="0.90717">
        <ele>148</ele>
        <time>2017-12-20T14:15:44Z</time>
      </trkpt>
      <trkpt lat="48.96782" lon="0.90711">
        <ele>148</ele>
        <time>2017-12-20T14:15:45Z</time>
      </trkpt>
      <trkpt lat="48.96786" lon="0.90707">
        <ele>147</ele>
        <time>2017-12-20T14:15:46Z</time>
      </trkpt>
      <trkpt lat="48.96793" lon="0.90697">
        <ele>147</ele>
        <time>2017-12-20T14:15:48Z</time>
      </trkpt>
      <trkpt lat="48.968" lon="0.90687">
        <ele>147</ele>
        <time>2017-12-20T14:15:50Z</time>
      </trkpt>
      <trkpt lat="48.96806" lon="0.90679">
        <ele>147</ele>
        <time>2017-12-20T14:15:52Z</time>
      </trkpt>
      <trkpt lat="48.96809" lon="0.90673">
        <ele>146</ele>
        <time>2017-12-20T14:15:53Z</time>
      </trkpt>
      <trkpt lat="48.96813" lon="0.90667">
        <ele>146</ele>
        <time>2017-12-20T14:15:54Z</time>
      </trkpt>
      <trkpt lat="48.96817" lon="0.90662">
        <ele>146</ele>
        <time>2017-12-20T14:15:55Z</time>
      </trkpt>
      <trkpt lat="48.9682" lon="0.90657">
        <ele>146</ele>
        <time>2017-12-20T14:15:56Z</time>
      </trkpt>
      <trkpt lat="48.96824" lon="0.90652">
        <ele>146</ele>
        <time>2017-12-20T14:15:57Z</time>
      </trkpt>
      <trkpt lat="48.96828" lon="0.90646">
        <ele>146</ele>
        <time>2017-12-20T14:15:58Z</time>
      </trkpt>
      <trkpt lat="48.96834" lon="0.90635">
        <ele>146</ele>
        <time>2017-12-20T14:16:00Z</time>
      </trkpt>
      <trkpt lat="48.96837" lon="0.90629">
        <ele>146</ele>
        <time>2017-12-20T14:16:01Z</time>
      </trkpt>
      <trkpt lat="48.9684" lon="0.90621">
        <ele>145</ele>
        <time>2017-12-20T14:16:02Z</time>
      </trkpt>
      <trkpt lat="48.96843" lon="0.90614">
        <ele>145</ele>
        <time>2017-12-20T14:16:03Z</time>
      </trkpt>
      <trkpt lat="48.96846" lon="0.90607">
        <ele>145</ele>
        <time>2017-12-20T14:16:04Z</time>
      </trkpt>
      <trkpt lat="48.96848" lon="0.906">
        <ele>145</ele>
        <time>2017-12-20T14:16:05Z</time>
      </trkpt>
      <trkpt lat="48.96851" lon="0.90591">
        <ele>145</ele>
        <time>2017-12-20T14:16:06Z</time>
      </trkpt>
      <trkpt lat="48.96853" lon="0.90584">
        <ele>144</ele>
        <time>2017-12-20T14:16:07Z</time>
      </trkpt>
      <trkpt lat="48.96856" lon="0.90575">
        <ele>144</ele>
        <time>2017-12-20T14:16:08Z</time>
      </trkpt>
      <trkpt lat="48.96859" lon="0.90567">
        <ele>143</ele>
        <time>2017-12-20T14:16:09Z</time>
      </trkpt>
      <trkpt lat="48.96861" lon="0.90558">
        <ele>143</ele>
        <time>2017-12-20T14:16:10Z</time>
      </trkpt>
      <trkpt lat="48.96864" lon="0.90548">
        <ele>142</ele>
        <time>2017-12-20T14:16:11Z</time>
      </trkpt>
      <trkpt lat="48.96866" lon="0.90538">
        <ele>142</ele>
        <time>2017-12-20T14:16:12Z</time>
      </trkpt>
      <trkpt lat="48.96869" lon="0.90527">
        <ele>141</ele>
        <time>2017-12-20T14:16:13Z</time>
      </trkpt>
      <trkpt lat="48.96871" lon="0.90516">
        <ele>140</ele>
        <time>2017-12-20T14:16:14Z</time>
      </trkpt>
      <trkpt lat="48.96875" lon="0.90505">
        <ele>139</ele>
        <time>2017-12-20T14:16:15Z</time>
      </trkpt>
      <trkpt lat="48.96877" lon="0.90493">
        <ele>139</ele>
        <time>2017-12-20T14:16:16Z</time>
      </trkpt>
      <trkpt lat="48.96881" lon="0.90482">
        <ele>139</ele>
        <time>2017-12-20T14:16:17Z</time>
      </trkpt>
      <trkpt lat="48.96884" lon="0.90469">
        <ele>138</ele>
        <time>2017-12-20T14:16:18Z</time>
      </trkpt>
      <trkpt lat="48.96887" lon="0.90455">
        <ele>137</ele>
        <time>2017-12-20T14:16:19Z</time>
      </trkpt>
      <trkpt lat="48.9689" lon="0.90441">
        <ele>136</ele>
        <time>2017-12-20T14:16:20Z</time>
      </trkpt>
      <trkpt lat="48.96891" lon="0.90428">
        <ele>136</ele>
        <time>2017-12-20T14:16:21Z</time>
      </trkpt>
      <trkpt lat="48.96893" lon="0.90415">
        <ele>137</ele>
        <time>2017-12-20T14:16:22Z</time>
      </trkpt>
      <trkpt lat="48.96895" lon="0.90403">
        <ele>138</ele>
        <time>2017-12-20T14:16:23Z</time>
      </trkpt>
      <trkpt lat="48.96898" lon="0.90393">
        <ele>138</ele>
        <time>2017-12-20T14:16:24Z</time>
      </trkpt>
      <trkpt lat="48.96902" lon="0.90383">
        <ele>138</ele>
        <time>2017-12-20T14:16:25Z</time>
      </trkpt>
      <trkpt lat="48.96904" lon="0.90373">
        <ele>138</ele>
        <time>2017-12-20T14:16:26Z</time>
      </trkpt>
      <trkpt lat="48.96907" lon="0.90364">
        <ele>137</ele>
        <time>2017-12-20T14:16:27Z</time>
      </trkpt>
      <trkpt lat="48.96909" lon="0.90355">
        <ele>138</ele>
        <time>2017-12-20T14:16:28Z</time>
      </trkpt>
      <trkpt lat="48.96912" lon="0.90348">
        <ele>138</ele>
        <time>2017-12-20T14:16:29Z</time>
      </trkpt>
      <trkpt lat="48.96914" lon="0.90341">
        <ele>138</ele>
        <time>2017-12-20T14:16:30Z</time>
      </trkpt>
      <trkpt lat="48.96916" lon="0.90334">
        <ele>138</ele>
        <time>2017-12-20T14:16:31Z</time>
      </trkpt>
      <trkpt lat="48.96918" lon="0.90327">
        <ele>138</ele>
        <time>2017-12-20T14:16:32Z</time>
      </trkpt>
      <trkpt lat="48.9692" lon="0.90319">
        <ele>138</ele>
        <time>2017-12-20T14:16:33Z</time>
      </trkpt>
      <trkpt lat="48.96922" lon="0.90312">
        <ele>138</ele>
        <time>2017-12-20T14:16:34Z</time>
      </trkpt>
      <trkpt lat="48.96924" lon="0.90306">
        <ele>138</ele>
        <time>2017-12-20T14:16:35Z</time>
      </trkpt>
      <trkpt lat="48.96925" lon="0.90299">
        <ele>138</ele>
        <time>2017-12-20T14:16:36Z</time>
      </trkpt>
      <trkpt lat="48.96927" lon="0.90293">
        <ele>138</ele>
        <time>2017-12-20T14:16:37Z</time>
      </trkpt>
      <trkpt lat="48.96932" lon="0.9028">
        <ele>139</ele>
        <time>2017-12-20T14:16:39Z</time>
      </trkpt>
      <trkpt lat="48.96934" lon="0.90273">
        <ele>139</ele>
        <time>2017-12-20T14:16:40Z</time>
      </trkpt>
      <trkpt lat="48.96936" lon="0.90267">
        <ele>139</ele>
        <time>2017-12-20T14:16:41Z</time>
      </trkpt>
      <trkpt lat="48.96939" lon="0.90254">
        <ele>139</ele>
        <time>2017-12-20T14:16:43Z</time>
      </trkpt>
      <trkpt lat="48.96941" lon="0.90247">
        <ele>139</ele>
        <time>2017-12-20T14:16:44Z</time>
      </trkpt>
      <trkpt lat="48.96944" lon="0.90235">
        <ele>139</ele>
        <time>2017-12-20T14:16:46Z</time>
      </trkpt>
      <trkpt lat="48.96946" lon="0.90229">
        <ele>139</ele>
        <time>2017-12-20T14:16:47Z</time>
      </trkpt>
      <trkpt lat="48.96949" lon="0.90217">
        <ele>139</ele>
        <time>2017-12-20T14:16:49Z</time>
      </trkpt>
      <trkpt lat="48.96951" lon="0.90205">
        <ele>139</ele>
        <time>2017-12-20T14:16:51Z</time>
      </trkpt>
      <trkpt lat="48.96953" lon="0.90198">
        <ele>139</ele>
        <time>2017-12-20T14:16:52Z</time>
      </trkpt>
      <trkpt lat="48.96956" lon="0.90192">
        <ele>139</ele>
        <time>2017-12-20T14:16:53Z</time>
      </trkpt>
      <trkpt lat="48.96959" lon="0.90186">
        <ele>140</ele>
        <time>2017-12-20T14:16:54Z</time>
      </trkpt>
      <trkpt lat="48.96962" lon="0.9018">
        <ele>140</ele>
        <time>2017-12-20T14:16:55Z</time>
      </trkpt>
      <trkpt lat="48.96965" lon="0.90175">
        <ele>140</ele>
        <time>2017-12-20T14:16:56Z</time>
      </trkpt>
      <trkpt lat="48.96968" lon="0.9017">
        <ele>140</ele>
        <time>2017-12-20T14:16:57Z</time>
      </trkpt>
      <trkpt lat="48.96971" lon="0.90165">
        <ele>139</ele>
        <time>2017-12-20T14:16:58Z</time>
      </trkpt>
      <trkpt lat="48.96974" lon="0.90159">
        <ele>139</ele>
        <time>2017-12-20T14:16:59Z</time>
      </trkpt>
      <trkpt lat="48.96978" lon="0.90154">
        <ele>139</ele>
        <time>2017-12-20T14:17:00Z</time>
      </trkpt>
      <trkpt lat="48.96981" lon="0.90149">
        <ele>140</ele>
        <time>2017-12-20T14:17:01Z</time>
      </trkpt>
      <trkpt lat="48.96985" lon="0.90144">
        <ele>140</ele>
        <time>2017-12-20T14:17:02Z</time>
      </trkpt>
      <trkpt lat="48.96989" lon="0.90139">
        <ele>140</ele>
        <time>2017-12-20T14:17:03Z</time>
      </trkpt>
      <trkpt lat="48.96993" lon="0.90134">
        <ele>140</ele>
        <time>2017-12-20T14:17:04Z</time>
      </trkpt>
      <trkpt lat="48.97" lon="0.90125">
        <ele>140</ele>
        <time>2017-12-20T14:17:06Z</time>
      </trkpt>
      <trkpt lat="48.97004" lon="0.90121">
        <ele>140</ele>
        <time>2017-12-20T14:17:07Z</time>
      </trkpt>
      <trkpt lat="48.97008" lon="0.90117">
        <ele>139</ele>
        <time>2017-12-20T14:17:08Z</time>
      </trkpt>
      <trkpt lat="48.97012" lon="0.90113">
        <ele>139</ele>
        <time>2017-12-20T14:17:09Z</time>
      </trkpt>
      <trkpt lat="48.97017" lon="0.90107">
        <ele>140</ele>
        <time>2017-12-20T14:17:10Z</time>
      </trkpt>
      <trkpt lat="48.97021" lon="0.90103">
        <ele>140</ele>
        <time>2017-12-20T14:17:11Z</time>
      </trkpt>
      <trkpt lat="48.97025" lon="0.90098">
        <ele>140</ele>
        <time>2017-12-20T14:17:12Z</time>
      </trkpt>
      <trkpt lat="48.97028" lon="0.90094">
        <ele>140</ele>
        <time>2017-12-20T14:17:13Z</time>
      </trkpt>
      <trkpt lat="48.97035" lon="0.90084">
        <ele>140</ele>
        <time>2017-12-20T14:17:15Z</time>
      </trkpt>
      <trkpt lat="48.97041" lon="0.90076">
        <ele>140</ele>
        <time>2017-12-20T14:17:17Z</time>
      </trkpt>
      <trkpt lat="48.97046" lon="0.90066">
        <ele>140</ele>
        <time>2017-12-20T14:17:19Z</time>
      </trkpt>
      <trkpt lat="48.9705" lon="0.90061">
        <ele>140</ele>
        <time>2017-12-20T14:17:20Z</time>
      </trkpt>
      <trkpt lat="48.97055" lon="0.90052">
        <ele>140</ele>
        <time>2017-12-20T14:17:22Z</time>
      </trkpt>
      <trkpt lat="48.97061" lon="0.90043">
        <ele>140</ele>
        <time>2017-12-20T14:17:24Z</time>
      </trkpt>
      <trkpt lat="48.97067" lon="0.90034">
        <ele>140</ele>
        <time>2017-12-20T14:17:26Z</time>
      </trkpt>
      <trkpt lat="48.97073" lon="0.90026">
        <ele>140</ele>
        <time>2017-12-20T14:17:28Z</time>
      </trkpt>
      <trkpt lat="48.97078" lon="0.90017">
        <ele>141</ele>
        <time>2017-12-20T14:17:30Z</time>
      </trkpt>
      <trkpt lat="48.97088" lon="0.90001">
        <ele>141</ele>
        <time>2017-12-20T14:17:33Z</time>
      </trkpt>
      <trkpt lat="48.97091" lon="0.89995">
        <ele>141</ele>
        <time>2017-12-20T14:17:34Z</time>
      </trkpt>
      <trkpt lat="48.97095" lon="0.8999">
        <ele>140</ele>
        <time>2017-12-20T14:17:35Z</time>
      </trkpt>
      <trkpt lat="48.97098" lon="0.89985">
        <ele>140</ele>
        <time>2017-12-20T14:17:36Z</time>
      </trkpt>
      <trkpt lat="48.97101" lon="0.89979">
        <ele>140</ele>
        <time>2017-12-20T14:17:37Z</time>
      </trkpt>
      <trkpt lat="48.97105" lon="0.89974">
        <ele>140</ele>
        <time>2017-12-20T14:17:38Z</time>
      </trkpt>
      <trkpt lat="48.97109" lon="0.89968">
        <ele>140</ele>
        <time>2017-12-20T14:17:39Z</time>
      </trkpt>
      <trkpt lat="48.97113" lon="0.89963">
        <ele>140</ele>
        <time>2017-12-20T14:17:40Z</time>
      </trkpt>
      <trkpt lat="48.97117" lon="0.89957">
        <ele>140</ele>
        <time>2017-12-20T14:17:41Z</time>
      </trkpt>
      <trkpt lat="48.97121" lon="0.89951">
        <ele>140</ele>
        <time>2017-12-20T14:17:42Z</time>
      </trkpt>
      <trkpt lat="48.97124" lon="0.89945">
        <ele>140</ele>
        <time>2017-12-20T14:17:43Z</time>
      </trkpt>
      <trkpt lat="48.97127" lon="0.8994">
        <ele>140</ele>
        <time>2017-12-20T14:17:44Z</time>
      </trkpt>
      <trkpt lat="48.9713" lon="0.89934">
        <ele>140</ele>
        <time>2017-12-20T14:17:45Z</time>
      </trkpt>
      <trkpt lat="48.97133" lon="0.89929">
        <ele>140</ele>
        <time>2017-12-20T14:17:46Z</time>
      </trkpt>
      <trkpt lat="48.97139" lon="0.89916">
        <ele>139</ele>
        <time>2017-12-20T14:17:48Z</time>
      </trkpt>
      <trkpt lat="48.97143" lon="0.89909">
        <ele>138</ele>
        <time>2017-12-20T14:17:49Z</time>
      </trkpt>
      <trkpt lat="48.97145" lon="0.89902">
        <ele>138</ele>
        <time>2017-12-20T14:17:50Z</time>
      </trkpt>
      <trkpt lat="48.97149" lon="0.8989">
        <ele>139</ele>
        <time>2017-12-20T14:17:52Z</time>
      </trkpt>
      <trkpt lat="48.97152" lon="0.89884">
        <ele>139</ele>
        <time>2017-12-20T14:17:53Z</time>
      </trkpt>
      <trkpt lat="48.97155" lon="0.89877">
        <ele>139</ele>
        <time>2017-12-20T14:17:54Z</time>
      </trkpt>
      <trkpt lat="48.97157" lon="0.89871">
        <ele>139</ele>
        <time>2017-12-20T14:17:55Z</time>
      </trkpt>
      <trkpt lat="48.9716" lon="0.89865">
        <ele>139</ele>
        <time>2017-12-20T14:17:56Z</time>
      </trkpt>
      <trkpt lat="48.97162" lon="0.89859">
        <ele>139</ele>
        <time>2017-12-20T14:17:57Z</time>
      </trkpt>
      <trkpt lat="48.97165" lon="0.89852">
        <ele>139</ele>
        <time>2017-12-20T14:17:58Z</time>
      </trkpt>
      <trkpt lat="48.97169" lon="0.89842">
        <ele>139</ele>
        <time>2017-12-20T14:18:00Z</time>
      </trkpt>
      <trkpt lat="48.97173" lon="0.89831">
        <ele>139</ele>
        <time>2017-12-20T14:18:02Z</time>
      </trkpt>
      <trkpt lat="48.97176" lon="0.89819">
        <ele>139</ele>
        <time>2017-12-20T14:18:04Z</time>
      </trkpt>
      <trkpt lat="48.97178" lon="0.89812">
        <ele>139</ele>
        <time>2017-12-20T14:18:05Z</time>
      </trkpt>
      <trkpt lat="48.9718" lon="0.89804">
        <ele>139</ele>
        <time>2017-12-20T14:18:06Z</time>
      </trkpt>
      <trkpt lat="48.97183" lon="0.89797">
        <ele>138</ele>
        <time>2017-12-20T14:18:07Z</time>
      </trkpt>
      <trkpt lat="48.97185" lon="0.89788">
        <ele>138</ele>
        <time>2017-12-20T14:18:08Z</time>
      </trkpt>
      <trkpt lat="48.97187" lon="0.89781">
        <ele>137</ele>
        <time>2017-12-20T14:18:09Z</time>
      </trkpt>
      <trkpt lat="48.97189" lon="0.89774">
        <ele>137</ele>
        <time>2017-12-20T14:18:10Z</time>
      </trkpt>
      <trkpt lat="48.97191" lon="0.89767">
        <ele>137</ele>
        <time>2017-12-20T14:18:11Z</time>
      </trkpt>
      <trkpt lat="48.97192" lon="0.89759">
        <ele>137</ele>
        <time>2017-12-20T14:18:12Z</time>
      </trkpt>
      <trkpt lat="48.97194" lon="0.8975">
        <ele>137</ele>
        <time>2017-12-20T14:18:13Z</time>
      </trkpt>
      <trkpt lat="48.97195" lon="0.89741">
        <ele>136</ele>
        <time>2017-12-20T14:18:14Z</time>
      </trkpt>
      <trkpt lat="48.97196" lon="0.89733">
        <ele>136</ele>
        <time>2017-12-20T14:18:15Z</time>
      </trkpt>
      <trkpt lat="48.97198" lon="0.89725">
        <ele>136</ele>
        <time>2017-12-20T14:18:16Z</time>
      </trkpt>
      <trkpt lat="48.97199" lon="0.89717">
        <ele>137</ele>
        <time>2017-12-20T14:18:17Z</time>
      </trkpt>
      <trkpt lat="48.972" lon="0.89708">
        <ele>137</ele>
        <time>2017-12-20T14:18:18Z</time>
      </trkpt>
      <trkpt lat="48.97202" lon="0.89701">
        <ele>136</ele>
        <time>2017-12-20T14:18:19Z</time>
      </trkpt>
      <trkpt lat="48.97205" lon="0.89689">
        <ele>136</ele>
        <time>2017-12-20T14:18:21Z</time>
      </trkpt>
      <trkpt lat="48.97208" lon="0.89676">
        <ele>137</ele>
        <time>2017-12-20T14:18:23Z</time>
      </trkpt>
      <trkpt lat="48.97209" lon="0.8967">
        <ele>137</ele>
        <time>2017-12-20T14:18:24Z</time>
      </trkpt>
      <trkpt lat="48.9721" lon="0.89663">
        <ele>137</ele>
        <time>2017-12-20T14:18:25Z</time>
      </trkpt>
      <trkpt lat="48.97213" lon="0.8965">
        <ele>138</ele>
        <time>2017-12-20T14:18:27Z</time>
      </trkpt>
      <trkpt lat="48.97214" lon="0.89637">
        <ele>137</ele>
        <time>2017-12-20T14:18:29Z</time>
      </trkpt>
      <trkpt lat="48.97216" lon="0.8963">
        <ele>137</ele>
        <time>2017-12-20T14:18:30Z</time>
      </trkpt>
      <trkpt lat="48.97219" lon="0.89617">
        <ele>137</ele>
        <time>2017-12-20T14:18:32Z</time>
      </trkpt>
      <trkpt lat="48.9722" lon="0.89609">
        <ele>138</ele>
        <time>2017-12-20T14:18:33Z</time>
      </trkpt>
      <trkpt lat="48.97222" lon="0.89602">
        <ele>138</ele>
        <time>2017-12-20T14:18:34Z</time>
      </trkpt>
      <trkpt lat="48.97223" lon="0.89594">
        <ele>138</ele>
        <time>2017-12-20T14:18:35Z</time>
      </trkpt>
      <trkpt lat="48.97225" lon="0.89588">
        <ele>137</ele>
        <time>2017-12-20T14:18:36Z</time>
      </trkpt>
      <trkpt lat="48.97226" lon="0.8958">
        <ele>137</ele>
        <time>2017-12-20T14:18:37Z</time>
      </trkpt>
      <trkpt lat="48.97227" lon="0.89574">
        <ele>137</ele>
        <time>2017-12-20T14:18:38Z</time>
      </trkpt>
      <trkpt lat="48.97228" lon="0.89566">
        <ele>137</ele>
        <time>2017-12-20T14:18:39Z</time>
      </trkpt>
      <trkpt lat="48.97229" lon="0.89559">
        <ele>137</ele>
        <time>2017-12-20T14:18:40Z</time>
      </trkpt>
      <trkpt lat="48.97231" lon="0.89551">
        <ele>137</ele>
        <time>2017-12-20T14:18:41Z</time>
      </trkpt>
      <trkpt lat="48.97232" lon="0.89542">
        <ele>137</ele>
        <time>2017-12-20T14:18:42Z</time>
      </trkpt>
      <trkpt lat="48.97233" lon="0.89533">
        <ele>137</ele>
        <time>2017-12-20T14:18:43Z</time>
      </trkpt>
      <trkpt lat="48.97236" lon="0.89525">
        <ele>136</ele>
        <time>2017-12-20T14:18:44Z</time>
      </trkpt>
      <trkpt lat="48.97239" lon="0.89515">
        <ele>136</ele>
        <time>2017-12-20T14:18:45Z</time>
      </trkpt>
      <trkpt lat="48.97241" lon="0.89505">
        <ele>136</ele>
        <time>2017-12-20T14:18:46Z</time>
      </trkpt>
      <trkpt lat="48.97244" lon="0.89496">
        <ele>135</ele>
        <time>2017-12-20T14:18:47Z</time>
      </trkpt>
      <trkpt lat="48.97246" lon="0.89486">
        <ele>135</ele>
        <time>2017-12-20T14:18:48Z</time>
      </trkpt>
      <trkpt lat="48.97248" lon="0.89476">
        <ele>134</ele>
        <time>2017-12-20T14:18:49Z</time>
      </trkpt>
      <trkpt lat="48.97251" lon="0.89465">
        <ele>134</ele>
        <time>2017-12-20T14:18:50Z</time>
      </trkpt>
      <trkpt lat="48.97256" lon="0.89455">
        <ele>133</ele>
        <time>2017-12-20T14:18:51Z</time>
      </trkpt>
      <trkpt lat="48.97262" lon="0.89446">
        <ele>131</ele>
        <time>2017-12-20T14:18:52Z</time>
      </trkpt>
      <trkpt lat="48.97268" lon="0.89438">
        <ele>130</ele>
        <time>2017-12-20T14:18:53Z</time>
      </trkpt>
      <trkpt lat="48.97273" lon="0.8943">
        <ele>129</ele>
        <time>2017-12-20T14:18:54Z</time>
      </trkpt>
      <trkpt lat="48.97279" lon="0.89423">
        <ele>128</ele>
        <time>2017-12-20T14:18:55Z</time>
      </trkpt>
      <trkpt lat="48.97284" lon="0.89415">
        <ele>127</ele>
        <time>2017-12-20T14:18:56Z</time>
      </trkpt>
      <trkpt lat="48.97289" lon="0.89408">
        <ele>127</ele>
        <time>2017-12-20T14:18:57Z</time>
      </trkpt>
      <trkpt lat="48.97294" lon="0.89402">
        <ele>127</ele>
        <time>2017-12-20T14:18:58Z</time>
      </trkpt>
      <trkpt lat="48.97298" lon="0.89395">
        <ele>127</ele>
        <time>2017-12-20T14:18:59Z</time>
      </trkpt>
      <trkpt lat="48.97303" lon="0.89389">
        <ele>128</ele>
        <time>2017-12-20T14:19:00Z</time>
      </trkpt>
      <trkpt lat="48.97307" lon="0.89383">
        <ele>128</ele>
        <time>2017-12-20T14:19:01Z</time>
      </trkpt>
      <trkpt lat="48.9731" lon="0.89377">
        <ele>128</ele>
        <time>2017-12-20T14:19:02Z</time>
      </trkpt>
      <trkpt lat="48.97314" lon="0.89365">
        <ele>129</ele>
        <time>2017-12-20T14:19:04Z</time>
      </trkpt>
      <trkpt lat="48.97318" lon="0.89352">
        <ele>130</ele>
        <time>2017-12-20T14:19:06Z</time>
      </trkpt>
      <trkpt lat="48.97321" lon="0.89346">
        <ele>131</ele>
        <time>2017-12-20T14:19:07Z</time>
      </trkpt>
      <trkpt lat="48.97325" lon="0.89334">
        <ele>132</ele>
        <time>2017-12-20T14:19:09Z</time>
      </trkpt>
      <trkpt lat="48.97328" lon="0.89323">
        <ele>133</ele>
        <time>2017-12-20T14:19:11Z</time>
      </trkpt>
      <trkpt lat="48.97332" lon="0.89313">
        <ele>134</ele>
        <time>2017-12-20T14:19:13Z</time>
      </trkpt>
      <trkpt lat="48.97335" lon="0.89303">
        <ele>135</ele>
        <time>2017-12-20T14:19:15Z</time>
      </trkpt>
      <trkpt lat="48.97339" lon="0.89293">
        <ele>136</ele>
        <time>2017-12-20T14:19:17Z</time>
      </trkpt>
      <trkpt lat="48.97343" lon="0.89282">
        <ele>137</ele>
        <time>2017-12-20T14:19:19Z</time>
      </trkpt>
      <trkpt lat="48.97345" lon="0.89272">
        <ele>137</ele>
        <time>2017-12-20T14:19:21Z</time>
      </trkpt>
      <trkpt lat="48.97348" lon="0.89262">
        <ele>138</ele>
        <time>2017-12-20T14:19:23Z</time>
      </trkpt>
      <trkpt lat="48.97351" lon="0.89252">
        <ele>138</ele>
        <time>2017-12-20T14:19:25Z</time>
      </trkpt>
      <trkpt lat="48.97355" lon="0.89242">
        <ele>138</ele>
        <time>2017-12-20T14:19:27Z</time>
      </trkpt>
      <trkpt lat="48.97359" lon="0.89234">
        <ele>138</ele>
        <time>2017-12-20T14:19:29Z</time>
      </trkpt>
      <trkpt lat="48.97365" lon="0.89226">
        <ele>138</ele>
        <time>2017-12-20T14:19:31Z</time>
      </trkpt>
      <trkpt lat="48.97371" lon="0.89218">
        <ele>139</ele>
        <time>2017-12-20T14:19:33Z</time>
      </trkpt>
      <trkpt lat="48.97376" lon="0.89211">
        <ele>139</ele>
        <time>2017-12-20T14:19:35Z</time>
      </trkpt>
      <trkpt lat="48.97383" lon="0.89203">
        <ele>139</ele>
        <time>2017-12-20T14:19:37Z</time>
      </trkpt>
      <trkpt lat="48.97389" lon="0.89196">
        <ele>139</ele>
        <time>2017-12-20T14:19:39Z</time>
      </trkpt>
      <trkpt lat="48.97395" lon="0.89189">
        <ele>139</ele>
        <time>2017-12-20T14:19:41Z</time>
      </trkpt>
      <trkpt lat="48.97401" lon="0.89182">
        <ele>140</ele>
        <time>2017-12-20T14:19:43Z</time>
      </trkpt>
      <trkpt lat="48.97406" lon="0.89174">
        <ele>140</ele>
        <time>2017-12-20T14:19:45Z</time>
      </trkpt>
      <trkpt lat="48.97413" lon="0.89165">
        <ele>140</ele>
        <time>2017-12-20T14:19:47Z</time>
      </trkpt>
      <trkpt lat="48.97419" lon="0.89155">
        <ele>140</ele>
        <time>2017-12-20T14:19:49Z</time>
      </trkpt>
      <trkpt lat="48.97424" lon="0.89145">
        <ele>140</ele>
        <time>2017-12-20T14:19:51Z</time>
      </trkpt>
      <trkpt lat="48.97429" lon="0.89136">
        <ele>140</ele>
        <time>2017-12-20T14:19:53Z</time>
      </trkpt>
      <trkpt lat="48.97434" lon="0.89126">
        <ele>140</ele>
        <time>2017-12-20T14:19:55Z</time>
      </trkpt>
      <trkpt lat="48.97439" lon="0.89117">
        <ele>140</ele>
        <time>2017-12-20T14:19:57Z</time>
      </trkpt>
      <trkpt lat="48.97444" lon="0.89108">
        <ele>140</ele>
        <time>2017-12-20T14:19:59Z</time>
      </trkpt>
      <trkpt lat="48.97449" lon="0.891">
        <ele>141</ele>
        <time>2017-12-20T14:20:01Z</time>
      </trkpt>
      <trkpt lat="48.97454" lon="0.89094">
        <ele>141</ele>
        <time>2017-12-20T14:20:03Z</time>
      </trkpt>
      <trkpt lat="48.9746" lon="0.89089">
        <ele>142</ele>
        <time>2017-12-20T14:20:05Z</time>
      </trkpt>
      <trkpt lat="48.97467" lon="0.89085">
        <ele>142</ele>
        <time>2017-12-20T14:20:07Z</time>
      </trkpt>
      <trkpt lat="48.97475" lon="0.89082">
        <ele>142</ele>
        <time>2017-12-20T14:20:09Z</time>
      </trkpt>
      <trkpt lat="48.97481" lon="0.89079">
        <ele>142</ele>
        <time>2017-12-20T14:20:11Z</time>
      </trkpt>
      <trkpt lat="48.97487" lon="0.89075">
        <ele>142</ele>
        <time>2017-12-20T14:20:13Z</time>
      </trkpt>
      <trkpt lat="48.97493" lon="0.89077">
        <ele>142</ele>
        <time>2017-12-20T14:20:15Z</time>
      </trkpt>
      <trkpt lat="48.97496" lon="0.89087">
        <ele>142</ele>
        <time>2017-12-20T14:20:17Z</time>
      </trkpt>
      <trkpt lat="48.97497" lon="0.89098">
        <ele>142</ele>
        <time>2017-12-20T14:20:19Z</time>
      </trkpt>
      <trkpt lat="48.97498" lon="0.89109">
        <ele>142</ele>
        <time>2017-12-20T14:20:21Z</time>
      </trkpt>
      <trkpt lat="48.975" lon="0.89122">
        <ele>142</ele>
        <time>2017-12-20T14:20:23Z</time>
      </trkpt>
      <trkpt lat="48.97501" lon="0.89129">
        <ele>141</ele>
        <time>2017-12-20T14:20:24Z</time>
      </trkpt>
      <trkpt lat="48.97501" lon="0.89137">
        <ele>141</ele>
        <time>2017-12-20T14:20:25Z</time>
      </trkpt>
      <trkpt lat="48.97502" lon="0.89145">
        <ele>141</ele>
        <time>2017-12-20T14:20:26Z</time>
      </trkpt>
      <trkpt lat="48.97503" lon="0.89152">
        <ele>141</ele>
        <time>2017-12-20T14:20:27Z</time>
      </trkpt>
      <trkpt lat="48.97504" lon="0.89159">
        <ele>141</ele>
        <time>2017-12-20T14:20:28Z</time>
      </trkpt>
      <trkpt lat="48.97505" lon="0.89167">
        <ele>140</ele>
        <time>2017-12-20T14:20:29Z</time>
      </trkpt>
      <trkpt lat="48.97506" lon="0.89174">
        <ele>140</ele>
        <time>2017-12-20T14:20:30Z</time>
      </trkpt>
      <trkpt lat="48.97507" lon="0.89182">
        <ele>140</ele>
        <time>2017-12-20T14:20:31Z</time>
      </trkpt>
      <trkpt lat="48.97508" lon="0.89189">
        <ele>139</ele>
        <time>2017-12-20T14:20:32Z</time>
      </trkpt>
      <trkpt lat="48.97509" lon="0.89196">
        <ele>139</ele>
        <time>2017-12-20T14:20:33Z</time>
      </trkpt>
      <trkpt lat="48.9751" lon="0.89203">
        <ele>139</ele>
        <time>2017-12-20T14:20:34Z</time>
      </trkpt>
      <trkpt lat="48.97511" lon="0.89211">
        <ele>139</ele>
        <time>2017-12-20T14:20:35Z</time>
      </trkpt>
      <trkpt lat="48.97511" lon="0.89218">
        <ele>139</ele>
        <time>2017-12-20T14:20:36Z</time>
      </trkpt>
      <trkpt lat="48.97512" lon="0.89225">
        <ele>139</ele>
        <time>2017-12-20T14:20:37Z</time>
      </trkpt>
      <trkpt lat="48.97512" lon="0.89233">
        <ele>139</ele>
        <time>2017-12-20T14:20:38Z</time>
      </trkpt>
      <trkpt lat="48.97514" lon="0.89241">
        <ele>139</ele>
        <time>2017-12-20T14:20:39Z</time>
      </trkpt>
      <trkpt lat="48.97515" lon="0.89248">
        <ele>139</ele>
        <time>2017-12-20T14:20:40Z</time>
      </trkpt>
      <trkpt lat="48.97515" lon="0.89256">
        <ele>139</ele>
        <time>2017-12-20T14:20:41Z</time>
      </trkpt>
      <trkpt lat="48.97516" lon="0.89264">
        <ele>138</ele>
        <time>2017-12-20T14:20:42Z</time>
      </trkpt>
      <trkpt lat="48.97516" lon="0.89272">
        <ele>138</ele>
        <time>2017-12-20T14:20:43Z</time>
      </trkpt>
      <trkpt lat="48.97517" lon="0.8928">
        <ele>138</ele>
        <time>2017-12-20T14:20:44Z</time>
      </trkpt>
      <trkpt lat="48.97518" lon="0.89288">
        <ele>138</ele>
        <time>2017-12-20T14:20:45Z</time>
      </trkpt>
      <trkpt lat="48.97519" lon="0.89296">
        <ele>138</ele>
        <time>2017-12-20T14:20:46Z</time>
      </trkpt>
      <trkpt lat="48.97519" lon="0.89303">
        <ele>138</ele>
        <time>2017-12-20T14:20:47Z</time>
      </trkpt>
      <trkpt lat="48.9752" lon="0.89311">
        <ele>137</ele>
        <time>2017-12-20T14:20:48Z</time>
      </trkpt>
      <trkpt lat="48.97521" lon="0.89318">
        <ele>137</ele>
        <time>2017-12-20T14:20:49Z</time>
      </trkpt>
      <trkpt lat="48.97522" lon="0.89326">
        <ele>137</ele>
        <time>2017-12-20T14:20:50Z</time>
      </trkpt>
      <trkpt lat="48.97522" lon="0.89333">
        <ele>137</ele>
        <time>2017-12-20T14:20:51Z</time>
      </trkpt>
      <trkpt lat="48.97523" lon="0.8934">
        <ele>137</ele>
        <time>2017-12-20T14:20:52Z</time>
      </trkpt>
      <trkpt lat="48.97524" lon="0.89348">
        <ele>137</ele>
        <time>2017-12-20T14:20:53Z</time>
      </trkpt>
      <trkpt lat="48.97524" lon="0.89356">
        <ele>137</ele>
        <time>2017-12-20T14:20:54Z</time>
      </trkpt>
      <trkpt lat="48.97524" lon="0.89364">
        <ele>137</ele>
        <time>2017-12-20T14:20:55Z</time>
      </trkpt>
      <trkpt lat="48.97524" lon="0.89371">
        <ele>136</ele>
        <time>2017-12-20T14:20:56Z</time>
      </trkpt>
      <trkpt lat="48.97524" lon="0.89379">
        <ele>136</ele>
        <time>2017-12-20T14:20:57Z</time>
      </trkpt>
      <trkpt lat="48.97524" lon="0.89387">
        <ele>137</ele>
        <time>2017-12-20T14:20:58Z</time>
      </trkpt>
      <trkpt lat="48.97525" lon="0.89395">
        <ele>137</ele>
        <time>2017-12-20T14:20:59Z</time>
      </trkpt>
      <trkpt lat="48.97525" lon="0.89402">
        <ele>137</ele>
        <time>2017-12-20T14:21:00Z</time>
      </trkpt>
      <trkpt lat="48.97525" lon="0.89409">
        <ele>137</ele>
        <time>2017-12-20T14:21:01Z</time>
      </trkpt>
      <trkpt lat="48.97527" lon="0.89417">
        <ele>137</ele>
        <time>2017-12-20T14:21:02Z</time>
      </trkpt>
      <trkpt lat="48.97528" lon="0.89424">
        <ele>137</ele>
        <time>2017-12-20T14:21:03Z</time>
      </trkpt>
      <trkpt lat="48.97529" lon="0.89431">
        <ele>137</ele>
        <time>2017-12-20T14:21:04Z</time>
      </trkpt>
      <trkpt lat="48.9753" lon="0.89437">
        <ele>137</ele>
        <time>2017-12-20T14:21:05Z</time>
      </trkpt>
      <trkpt lat="48.97532" lon="0.89444">
        <ele>137</ele>
        <time>2017-12-20T14:21:06Z</time>
      </trkpt>
      <trkpt lat="48.97533" lon="0.89451">
        <ele>137</ele>
        <time>2017-12-20T14:21:07Z</time>
      </trkpt>
      <trkpt lat="48.97534" lon="0.89458">
        <ele>137</ele>
        <time>2017-12-20T14:21:08Z</time>
      </trkpt>
      <trkpt lat="48.97535" lon="0.89465">
        <ele>137</ele>
        <time>2017-12-20T14:21:09Z</time>
      </trkpt>
      <trkpt lat="48.97536" lon="0.89472">
        <ele>137</ele>
        <time>2017-12-20T14:21:10Z</time>
      </trkpt>
      <trkpt lat="48.97537" lon="0.89479">
        <ele>137</ele>
        <time>2017-12-20T14:21:11Z</time>
      </trkpt>
      <trkpt lat="48.97538" lon="0.89486">
        <ele>136</ele>
        <time>2017-12-20T14:21:12Z</time>
      </trkpt>
      <trkpt lat="48.97539" lon="0.89494">
        <ele>136</ele>
        <time>2017-12-20T14:21:13Z</time>
      </trkpt>
      <trkpt lat="48.9754" lon="0.89501">
        <ele>136</ele>
        <time>2017-12-20T14:21:14Z</time>
      </trkpt>
      <trkpt lat="48.97541" lon="0.89509">
        <ele>136</ele>
        <time>2017-12-20T14:21:15Z</time>
      </trkpt>
      <trkpt lat="48.97542" lon="0.89516">
        <ele>136</ele>
        <time>2017-12-20T14:21:16Z</time>
      </trkpt>
      <trkpt lat="48.97544" lon="0.89523">
        <ele>136</ele>
        <time>2017-12-20T14:21:17Z</time>
      </trkpt>
      <trkpt lat="48.97545" lon="0.89531">
        <ele>136</ele>
        <time>2017-12-20T14:21:18Z</time>
      </trkpt>
      <trkpt lat="48.97546" lon="0.89538">
        <ele>136</ele>
        <time>2017-12-20T14:21:19Z</time>
      </trkpt>
      <trkpt lat="48.97546" lon="0.89545">
        <ele>136</ele>
        <time>2017-12-20T14:21:20Z</time>
      </trkpt>
      <trkpt lat="48.97548" lon="0.89553">
        <ele>136</ele>
        <time>2017-12-20T14:21:21Z</time>
      </trkpt>
      <trkpt lat="48.97549" lon="0.89559">
        <ele>136</ele>
        <time>2017-12-20T14:21:22Z</time>
      </trkpt>
      <trkpt lat="48.9755" lon="0.89566">
        <ele>136</ele>
        <time>2017-12-20T14:21:23Z</time>
      </trkpt>
      <trkpt lat="48.97551" lon="0.89573">
        <ele>136</ele>
        <time>2017-12-20T14:21:24Z</time>
      </trkpt>
      <trkpt lat="48.97552" lon="0.8958">
        <ele>135</ele>
        <time>2017-12-20T14:21:25Z</time>
      </trkpt>
      <trkpt lat="48.97553" lon="0.89587">
        <ele>135</ele>
        <time>2017-12-20T14:21:26Z</time>
      </trkpt>
      <trkpt lat="48.97554" lon="0.89594">
        <ele>135</ele>
        <time>2017-12-20T14:21:27Z</time>
      </trkpt>
      <trkpt lat="48.97556" lon="0.89601">
        <ele>135</ele>
        <time>2017-12-20T14:21:28Z</time>
      </trkpt>
      <trkpt lat="48.97557" lon="0.89608">
        <ele>135</ele>
        <time>2017-12-20T14:21:29Z</time>
      </trkpt>
      <trkpt lat="48.97558" lon="0.89615">
        <ele>135</ele>
        <time>2017-12-20T14:21:30Z</time>
      </trkpt>
      <trkpt lat="48.97559" lon="0.89622">
        <ele>135</ele>
        <time>2017-12-20T14:21:31Z</time>
      </trkpt>
      <trkpt lat="48.97561" lon="0.89629">
        <ele>135</ele>
        <time>2017-12-20T14:21:32Z</time>
      </trkpt>
      <trkpt lat="48.97562" lon="0.89637">
        <ele>135</ele>
        <time>2017-12-20T14:21:33Z</time>
      </trkpt>
      <trkpt lat="48.97564" lon="0.89644">
        <ele>135</ele>
        <time>2017-12-20T14:21:34Z</time>
      </trkpt>
      <trkpt lat="48.97565" lon="0.89651">
        <ele>135</ele>
        <time>2017-12-20T14:21:35Z</time>
      </trkpt>
      <trkpt lat="48.97566" lon="0.89659">
        <ele>135</ele>
        <time>2017-12-20T14:21:36Z</time>
      </trkpt>
      <trkpt lat="48.97567" lon="0.89667">
        <ele>135</ele>
        <time>2017-12-20T14:21:37Z</time>
      </trkpt>
      <trkpt lat="48.97569" lon="0.89674">
        <ele>134</ele>
        <time>2017-12-20T14:21:38Z</time>
      </trkpt>
      <trkpt lat="48.9757" lon="0.89681">
        <ele>134</ele>
        <time>2017-12-20T14:21:39Z</time>
      </trkpt>
      <trkpt lat="48.97571" lon="0.89688">
        <ele>134</ele>
        <time>2017-12-20T14:21:40Z</time>
      </trkpt>
      <trkpt lat="48.97573" lon="0.89695">
        <ele>134</ele>
        <time>2017-12-20T14:21:41Z</time>
      </trkpt>
      <trkpt lat="48.97574" lon="0.89701">
        <ele>133</ele>
        <time>2017-12-20T14:21:42Z</time>
      </trkpt>
      <trkpt lat="48.97575" lon="0.89708">
        <ele>133</ele>
        <time>2017-12-20T14:21:43Z</time>
      </trkpt>
      <trkpt lat="48.97577" lon="0.89715">
        <ele>133</ele>
        <time>2017-12-20T14:21:44Z</time>
      </trkpt>
      <trkpt lat="48.97578" lon="0.89722">
        <ele>133</ele>
        <time>2017-12-20T14:21:45Z</time>
      </trkpt>
      <trkpt lat="48.97579" lon="0.89729">
        <ele>133</ele>
        <time>2017-12-20T14:21:46Z</time>
      </trkpt>
      <trkpt lat="48.97582" lon="0.89742">
        <ele>133</ele>
        <time>2017-12-20T14:21:48Z</time>
      </trkpt>
      <trkpt lat="48.97583" lon="0.89755">
        <ele>133</ele>
        <time>2017-12-20T14:21:50Z</time>
      </trkpt>
      <trkpt lat="48.97585" lon="0.89763">
        <ele>133</ele>
        <time>2017-12-20T14:21:51Z</time>
      </trkpt>
      <trkpt lat="48.97587" lon="0.8977">
        <ele>133</ele>
        <time>2017-12-20T14:21:52Z</time>
      </trkpt>
      <trkpt lat="48.97588" lon="0.89778">
        <ele>133</ele>
        <time>2017-12-20T14:21:53Z</time>
      </trkpt>
      <trkpt lat="48.9759" lon="0.89786">
        <ele>133</ele>
        <time>2017-12-20T14:21:54Z</time>
      </trkpt>
      <trkpt lat="48.97591" lon="0.89794">
        <ele>133</ele>
        <time>2017-12-20T14:21:55Z</time>
      </trkpt>
      <trkpt lat="48.97592" lon="0.89801">
        <ele>133</ele>
        <time>2017-12-20T14:21:56Z</time>
      </trkpt>
      <trkpt lat="48.97593" lon="0.89809">
        <ele>133</ele>
        <time>2017-12-20T14:21:57Z</time>
      </trkpt>
      <trkpt lat="48.97595" lon="0.89816">
        <ele>133</ele>
        <time>2017-12-20T14:21:58Z</time>
      </trkpt>
      <trkpt lat="48.97596" lon="0.89824">
        <ele>134</ele>
        <time>2017-12-20T14:21:59Z</time>
      </trkpt>
      <trkpt lat="48.97597" lon="0.89831">
        <ele>134</ele>
        <time>2017-12-20T14:22:00Z</time>
      </trkpt>
      <trkpt lat="48.97598" lon="0.89839">
        <ele>134</ele>
        <time>2017-12-20T14:22:01Z</time>
      </trkpt>
      <trkpt lat="48.97598" lon="0.89846">
        <ele>135</ele>
        <time>2017-12-20T14:22:02Z</time>
      </trkpt>
      <trkpt lat="48.97599" lon="0.89858">
        <ele>135</ele>
        <time>2017-12-20T14:22:04Z</time>
      </trkpt>
      <trkpt lat="48.97599" lon="0.89872">
        <ele>136</ele>
        <time>2017-12-20T14:22:06Z</time>
      </trkpt>
      <trkpt lat="48.97599" lon="0.89879">
        <ele>136</ele>
        <time>2017-12-20T14:22:07Z</time>
      </trkpt>
      <trkpt lat="48.976" lon="0.89886">
        <ele>136</ele>
        <time>2017-12-20T14:22:08Z</time>
      </trkpt>
      <trkpt lat="48.97601" lon="0.89892">
        <ele>136</ele>
        <time>2017-12-20T14:22:09Z</time>
      </trkpt>
      <trkpt lat="48.97605" lon="0.89912">
        <ele>136</ele>
        <time>2017-12-20T14:22:12Z</time>
      </trkpt>
      <trkpt lat="48.97608" lon="0.89923">
        <ele>136</ele>
        <time>2017-12-20T14:22:14Z</time>
      </trkpt>
      <trkpt lat="48.97612" lon="0.89934">
        <ele>136</ele>
        <time>2017-12-20T14:22:16Z</time>
      </trkpt>
      <trkpt lat="48.97615" lon="0.89947">
        <ele>136</ele>
        <time>2017-12-20T14:22:18Z</time>
      </trkpt>
      <trkpt lat="48.97617" lon="0.89955">
        <ele>136</ele>
        <time>2017-12-20T14:22:19Z</time>
      </trkpt>
      <trkpt lat="48.97618" lon="0.89962">
        <ele>135</ele>
        <time>2017-12-20T14:22:20Z</time>
      </trkpt>
      <trkpt lat="48.9762" lon="0.89969">
        <ele>135</ele>
        <time>2017-12-20T14:22:21Z</time>
      </trkpt>
      <trkpt lat="48.97622" lon="0.89976">
        <ele>135</ele>
        <time>2017-12-20T14:22:22Z</time>
      </trkpt>
      <trkpt lat="48.97623" lon="0.89983">
        <ele>135</ele>
        <time>2017-12-20T14:22:23Z</time>
      </trkpt>
      <trkpt lat="48.97625" lon="0.8999">
        <ele>134</ele>
        <time>2017-12-20T14:22:24Z</time>
      </trkpt>
      <trkpt lat="48.97626" lon="0.89998">
        <ele>134</ele>
        <time>2017-12-20T14:22:25Z</time>
      </trkpt>
      <trkpt lat="48.97628" lon="0.90011">
        <ele>133</ele>
        <time>2017-12-20T14:22:27Z</time>
      </trkpt>
      <trkpt lat="48.97629" lon="0.90019">
        <ele>133</ele>
        <time>2017-12-20T14:22:28Z</time>
      </trkpt>
      <trkpt lat="48.9763" lon="0.90027">
        <ele>133</ele>
        <time>2017-12-20T14:22:29Z</time>
      </trkpt>
      <trkpt lat="48.97631" lon="0.90034">
        <ele>133</ele>
        <time>2017-12-20T14:22:30Z</time>
      </trkpt>
      <trkpt lat="48.97632" lon="0.90041">
        <ele>133</ele>
        <time>2017-12-20T14:22:31Z</time>
      </trkpt>
      <trkpt lat="48.97633" lon="0.9005">
        <ele>132</ele>
        <time>2017-12-20T14:22:32Z</time>
      </trkpt>
      <trkpt lat="48.97634" lon="0.90059">
        <ele>132</ele>
        <time>2017-12-20T14:22:33Z</time>
      </trkpt>
      <trkpt lat="48.97635" lon="0.90068">
        <ele>132</ele>
        <time>2017-12-20T14:22:34Z</time>
      </trkpt>
      <trkpt lat="48.97636" lon="0.90078">
        <ele>131</ele>
        <time>2017-12-20T14:22:35Z</time>
      </trkpt>
      <trkpt lat="48.97637" lon="0.90088">
        <ele>131</ele>
        <time>2017-12-20T14:22:36Z</time>
      </trkpt>
      <trkpt lat="48.97639" lon="0.90098">
        <ele>130</ele>
        <time>2017-12-20T14:22:37Z</time>
      </trkpt>
      <trkpt lat="48.97641" lon="0.90109">
        <ele>130</ele>
        <time>2017-12-20T14:22:38Z</time>
      </trkpt>
      <trkpt lat="48.97643" lon="0.9012">
        <ele>129</ele>
        <time>2017-12-20T14:22:39Z</time>
      </trkpt>
      <trkpt lat="48.97646" lon="0.9013">
        <ele>129</ele>
        <time>2017-12-20T14:22:40Z</time>
      </trkpt>
      <trkpt lat="48.97649" lon="0.90139">
        <ele>129</ele>
        <time>2017-12-20T14:22:41Z</time>
      </trkpt>
      <trkpt lat="48.97652" lon="0.90148">
        <ele>129</ele>
        <time>2017-12-20T14:22:42Z</time>
      </trkpt>
      <trkpt lat="48.97657" lon="0.90155">
        <ele>129</ele>
        <time>2017-12-20T14:22:43Z</time>
      </trkpt>
      <trkpt lat="48.97661" lon="0.90162">
        <ele>130</ele>
        <time>2017-12-20T14:22:44Z</time>
      </trkpt>
      <trkpt lat="48.97665" lon="0.90167">
        <ele>130</ele>
        <time>2017-12-20T14:22:45Z</time>
      </trkpt>
      <trkpt lat="48.97669" lon="0.90172">
        <ele>131</ele>
        <time>2017-12-20T14:22:46Z</time>
      </trkpt>
      <trkpt lat="48.97673" lon="0.90177">
        <ele>132</ele>
        <time>2017-12-20T14:22:47Z</time>
      </trkpt>
      <trkpt lat="48.97676" lon="0.90182">
        <ele>133</ele>
        <time>2017-12-20T14:22:48Z</time>
      </trkpt>
      <trkpt lat="48.9768" lon="0.90188">
        <ele>135</ele>
        <time>2017-12-20T14:22:49Z</time>
      </trkpt>
      <trkpt lat="48.97683" lon="0.90196">
        <ele>135</ele>
        <time>2017-12-20T14:22:50Z</time>
      </trkpt>
      <trkpt lat="48.97686" lon="0.90201">
        <ele>135</ele>
        <time>2017-12-20T14:22:51Z</time>
      </trkpt>
      <trkpt lat="48.97691" lon="0.90209">
        <ele>136</ele>
        <time>2017-12-20T14:22:53Z</time>
      </trkpt>
      <trkpt lat="48.97696" lon="0.90211">
        <ele>136</ele>
        <time>2017-12-20T14:22:55Z</time>
      </trkpt>
      <trkpt lat="48.97702" lon="0.9021">
        <ele>136</ele>
        <time>2017-12-20T14:22:57Z</time>
      </trkpt>
      <trkpt lat="48.97711" lon="0.90207">
        <ele>137</ele>
        <time>2017-12-20T14:22:59Z</time>
      </trkpt>
      <trkpt lat="48.97715" lon="0.90207">
        <ele>137</ele>
        <time>2017-12-20T14:23:00Z</time>
      </trkpt>
      <trkpt lat="48.9772" lon="0.90208">
        <ele>136</ele>
        <time>2017-12-20T14:23:01Z</time>
      </trkpt>
      <trkpt lat="48.97726" lon="0.90209">
        <ele>136</ele>
        <time>2017-12-20T14:23:02Z</time>
      </trkpt>
      <trkpt lat="48.97731" lon="0.9021">
        <ele>135</ele>
        <time>2017-12-20T14:23:03Z</time>
      </trkpt>
      <trkpt lat="48.97739" lon="0.90214">
        <ele>135</ele>
        <time>2017-12-20T14:23:05Z</time>
      </trkpt>
      <trkpt lat="48.97743" lon="0.90218">
        <ele>135</ele>
        <time>2017-12-20T14:23:06Z</time>
      </trkpt>
      <trkpt lat="48.97747" lon="0.90223">
        <ele>135</ele>
        <time>2017-12-20T14:23:07Z</time>
      </trkpt>
      <trkpt lat="48.97751" lon="0.90228">
        <ele>135</ele>
        <time>2017-12-20T14:23:08Z</time>
      </trkpt>
      <trkpt lat="48.97753" lon="0.90234">
        <ele>135</ele>
        <time>2017-12-20T14:23:09Z</time>
      </trkpt>
      <trkpt lat="48.97759" lon="0.90246">
        <ele>136</ele>
        <time>2017-12-20T14:23:11Z</time>
      </trkpt>
      <trkpt lat="48.97763" lon="0.90257">
        <ele>136</ele>
        <time>2017-12-20T14:23:13Z</time>
      </trkpt>
      <trkpt lat="48.97768" lon="0.90268">
        <ele>136</ele>
        <time>2017-12-20T14:23:15Z</time>
      </trkpt>
      <trkpt lat="48.97774" lon="0.90275">
        <ele>136</ele>
        <time>2017-12-20T14:23:17Z</time>
      </trkpt>
      <trkpt lat="48.97778" lon="0.90279">
        <ele>137</ele>
        <time>2017-12-20T14:23:18Z</time>
      </trkpt>
      <trkpt lat="48.97787" lon="0.9028">
        <ele>137</ele>
        <time>2017-12-20T14:23:20Z</time>
      </trkpt>
      <trkpt lat="48.97796" lon="0.9028">
        <ele>137</ele>
        <time>2017-12-20T14:23:22Z</time>
      </trkpt>
      <trkpt lat="48.97802" lon="0.90281">
        <ele>137</ele>
        <time>2017-12-20T14:23:24Z</time>
      </trkpt>
      <trkpt lat="48.97808" lon="0.90282">
        <ele>137</ele>
        <time>2017-12-20T14:23:26Z</time>
      </trkpt>
      <trkpt lat="48.97812" lon="0.90284">
        <ele>137</ele>
        <time>2017-12-20T14:23:27Z</time>
      </trkpt>
      <trkpt lat="48.9782" lon="0.90286">
        <ele>138</ele>
        <time>2017-12-20T14:23:29Z</time>
      </trkpt>
      <trkpt lat="48.97826" lon="0.90288">
        <ele>138</ele>
        <time>2017-12-20T14:23:31Z</time>
      </trkpt>
      <trkpt lat="48.97834" lon="0.90291">
        <ele>139</ele>
        <time>2017-12-20T14:23:33Z</time>
      </trkpt>
      <trkpt lat="48.97841" lon="0.90294">
        <ele>139</ele>
        <time>2017-12-20T14:23:35Z</time>
      </trkpt>
      <trkpt lat="48.97848" lon="0.90298">
        <ele>138</ele>
        <time>2017-12-20T14:23:37Z</time>
      </trkpt>
      <trkpt lat="48.97855" lon="0.90305">
        <ele>139</ele>
        <time>2017-12-20T14:23:39Z</time>
      </trkpt>
      <trkpt lat="48.97862" lon="0.90311">
        <ele>140</ele>
        <time>2017-12-20T14:23:41Z</time>
      </trkpt>
      <trkpt lat="48.97868" lon="0.90313">
        <ele>141</ele>
        <time>2017-12-20T14:23:43Z</time>
      </trkpt>
      <trkpt lat="48.97874" lon="0.90316">
        <ele>141</ele>
        <time>2017-12-20T14:23:45Z</time>
      </trkpt>
      <trkpt lat="48.97879" lon="0.90318">
        <ele>141</ele>
        <time>2017-12-20T14:23:47Z</time>
      </trkpt>
      <trkpt lat="48.97887" lon="0.90321">
        <ele>142</ele>
        <time>2017-12-20T14:23:49Z</time>
      </trkpt>
      <trkpt lat="48.97895" lon="0.90322">
        <ele>141</ele>
        <time>2017-12-20T14:23:51Z</time>
      </trkpt>
      <trkpt lat="48.979" lon="0.90323">
        <ele>141</ele>
        <time>2017-12-20T14:23:52Z</time>
      </trkpt>
      <trkpt lat="48.97907" lon="0.90323">
        <ele>141</ele>
        <time>2017-12-20T14:23:54Z</time>
      </trkpt>
      <trkpt lat="48.97916" lon="0.90322">
        <ele>142</ele>
        <time>2017-12-20T14:23:56Z</time>
      </trkpt>
      <trkpt lat="48.97923" lon="0.90319">
        <ele>142</ele>
        <time>2017-12-20T14:23:58Z</time>
      </trkpt>
      <trkpt lat="48.9793" lon="0.90316">
        <ele>143</ele>
        <time>2017-12-20T14:24:00Z</time>
      </trkpt>
      <trkpt lat="48.97937" lon="0.90311">
        <ele>143</ele>
        <time>2017-12-20T14:24:02Z</time>
      </trkpt>
      <trkpt lat="48.97943" lon="0.90305">
        <ele>143</ele>
        <time>2017-12-20T14:24:04Z</time>
      </trkpt>
      <trkpt lat="48.97949" lon="0.90299">
        <ele>143</ele>
        <time>2017-12-20T14:24:06Z</time>
      </trkpt>
      <trkpt lat="48.97956" lon="0.90293">
        <ele>143</ele>
        <time>2017-12-20T14:24:08Z</time>
      </trkpt>
      <trkpt lat="48.97963" lon="0.90288">
        <ele>143</ele>
        <time>2017-12-20T14:24:10Z</time>
      </trkpt>
      <trkpt lat="48.9797" lon="0.90282">
        <ele>143</ele>
        <time>2017-12-20T14:24:12Z</time>
      </trkpt>
      <trkpt lat="48.97977" lon="0.90276">
        <ele>143</ele>
        <time>2017-12-20T14:24:14Z</time>
      </trkpt>
      <trkpt lat="48.97981" lon="0.90272">
        <ele>143</ele>
        <time>2017-12-20T14:24:15Z</time>
      </trkpt>
      <trkpt lat="48.97987" lon="0.90267">
        <ele>143</ele>
        <time>2017-12-20T14:24:17Z</time>
      </trkpt>
      <trkpt lat="48.97994" lon="0.90261">
        <ele>143</ele>
        <time>2017-12-20T14:24:19Z</time>
      </trkpt>
      <trkpt lat="48.97999" lon="0.90257">
        <ele>143</ele>
        <time>2017-12-20T14:24:21Z</time>
      </trkpt>
      <trkpt lat="48.98005" lon="0.90252">
        <ele>143</ele>
        <time>2017-12-20T14:24:23Z</time>
      </trkpt>
      <trkpt lat="48.98012" lon="0.90245">
        <ele>143</ele>
        <time>2017-12-20T14:24:25Z</time>
      </trkpt>
      <trkpt lat="48.98018" lon="0.9024">
        <ele>143</ele>
        <time>2017-12-20T14:24:27Z</time>
      </trkpt>
      <trkpt lat="48.98023" lon="0.90235">
        <ele>144</ele>
        <time>2017-12-20T14:24:29Z</time>
      </trkpt>
      <trkpt lat="48.98071" lon="0.90199">
        <ele>144</ele>
        <time>2017-12-20T14:39:58Z</time>
      </trkpt>
      <trkpt lat="48.98075" lon="0.90194">
        <ele>144</ele>
        <time>2017-12-20T14:40:00Z</time>
      </trkpt>
      <trkpt lat="48.98079" lon="0.9019">
        <ele>144</ele>
        <time>2017-12-20T14:40:02Z</time>
      </trkpt>
      <trkpt lat="48.98085" lon="0.90185">
        <ele>145</ele>
        <time>2017-12-20T14:40:04Z</time>
      </trkpt>
      <trkpt lat="48.98091" lon="0.9018">
        <ele>145</ele>
        <time>2017-12-20T14:40:06Z</time>
      </trkpt>
      <trkpt lat="48.98097" lon="0.90174">
        <ele>145</ele>
        <time>2017-12-20T14:40:08Z</time>
      </trkpt>
      <trkpt lat="48.98101" lon="0.90169">
        <ele>145</ele>
        <time>2017-12-20T14:40:09Z</time>
      </trkpt>
      <trkpt lat="48.98109" lon="0.90162">
        <ele>146</ele>
        <time>2017-12-20T14:40:11Z</time>
      </trkpt>
      <trkpt lat="48.98116" lon="0.90155">
        <ele>146</ele>
        <time>2017-12-20T14:40:13Z</time>
      </trkpt>
      <trkpt lat="48.98121" lon="0.9015">
        <ele>146</ele>
        <time>2017-12-20T14:40:14Z</time>
      </trkpt>
      <trkpt lat="48.98133" lon="0.9014">
        <ele>146</ele>
        <time>2017-12-20T14:40:17Z</time>
      </trkpt>
      <trkpt lat="48.98138" lon="0.90135">
        <ele>146</ele>
        <time>2017-12-20T14:40:18Z</time>
      </trkpt>
      <trkpt lat="48.98145" lon="0.90129">
        <ele>146</ele>
        <time>2017-12-20T14:40:20Z</time>
      </trkpt>
      <trkpt lat="48.98153" lon="0.90122">
        <ele>146</ele>
        <time>2017-12-20T14:40:22Z</time>
      </trkpt>
      <trkpt lat="48.98158" lon="0.90116">
        <ele>147</ele>
        <time>2017-12-20T14:40:24Z</time>
      </trkpt>
      <trkpt lat="48.98164" lon="0.9011">
        <ele>147</ele>
        <time>2017-12-20T14:40:26Z</time>
      </trkpt>
      <trkpt lat="48.98168" lon="0.90106">
        <ele>147</ele>
        <time>2017-12-20T14:40:27Z</time>
      </trkpt>
      <trkpt lat="48.98173" lon="0.90103">
        <ele>147</ele>
        <time>2017-12-20T14:40:28Z</time>
      </trkpt>
      <trkpt lat="48.98181" lon="0.90095">
        <ele>147</ele>
        <time>2017-12-20T14:40:30Z</time>
      </trkpt>
      <trkpt lat="48.98185" lon="0.90092">
        <ele>148</ele>
        <time>2017-12-20T14:40:31Z</time>
      </trkpt>
      <trkpt lat="48.9819" lon="0.90088">
        <ele>148</ele>
        <time>2017-12-20T14:40:32Z</time>
      </trkpt>
      <trkpt lat="48.98195" lon="0.90083">
        <ele>148</ele>
        <time>2017-12-20T14:40:33Z</time>
      </trkpt>
      <trkpt lat="48.98199" lon="0.90079">
        <ele>148</ele>
        <time>2017-12-20T14:40:34Z</time>
      </trkpt>
      <trkpt lat="48.98204" lon="0.90075">
        <ele>148</ele>
        <time>2017-12-20T14:40:35Z</time>
      </trkpt>
      <trkpt lat="48.9821" lon="0.9007">
        <ele>148</ele>
        <time>2017-12-20T14:40:37Z</time>
      </trkpt>
      <trkpt lat="48.98217" lon="0.90064">
        <ele>149</ele>
        <time>2017-12-20T14:40:39Z</time>
      </trkpt>
      <trkpt lat="48.98225" lon="0.90058">
        <ele>149</ele>
        <time>2017-12-20T14:40:41Z</time>
      </trkpt>
      <trkpt lat="48.98234" lon="0.90053">
        <ele>149</ele>
        <time>2017-12-20T14:40:43Z</time>
      </trkpt>
      <trkpt lat="48.98243" lon="0.90049">
        <ele>149</ele>
        <time>2017-12-20T14:40:45Z</time>
      </trkpt>
      <trkpt lat="48.9825" lon="0.90051">
        <ele>149</ele>
        <time>2017-12-20T14:40:46Z</time>
      </trkpt>
      <trkpt lat="48.98257" lon="0.90054">
        <ele>149</ele>
        <time>2017-12-20T14:40:47Z</time>
      </trkpt>
      <trkpt lat="48.98262" lon="0.90058">
        <ele>149</ele>
        <time>2017-12-20T14:40:48Z</time>
      </trkpt>
      <trkpt lat="48.98267" lon="0.90066">
        <ele>149</ele>
        <time>2017-12-20T14:40:49Z</time>
      </trkpt>
      <trkpt lat="48.9827" lon="0.90071">
        <ele>149</ele>
        <time>2017-12-20T14:40:50Z</time>
      </trkpt>
      <trkpt lat="48.98277" lon="0.9008">
        <ele>149</ele>
        <time>2017-12-20T14:40:52Z</time>
      </trkpt>
      <trkpt lat="48.98282" lon="0.90084">
        <ele>149</ele>
        <time>2017-12-20T14:40:53Z</time>
      </trkpt>
      <trkpt lat="48.98286" lon="0.90087">
        <ele>149</ele>
        <time>2017-12-20T14:40:54Z</time>
      </trkpt>
      <trkpt lat="48.9829" lon="0.9009">
        <ele>149</ele>
        <time>2017-12-20T14:40:55Z</time>
      </trkpt>
      <trkpt lat="48.98294" lon="0.90093">
        <ele>149</ele>
        <time>2017-12-20T14:40:56Z</time>
      </trkpt>
      <trkpt lat="48.98303" lon="0.90097">
        <ele>149</ele>
        <time>2017-12-20T14:40:58Z</time>
      </trkpt>
      <trkpt lat="48.9831" lon="0.90101">
        <ele>149</ele>
        <time>2017-12-20T14:41:00Z</time>
      </trkpt>
      <trkpt lat="48.98318" lon="0.90103">
        <ele>149</ele>
        <time>2017-12-20T14:41:02Z</time>
      </trkpt>
      <trkpt lat="48.98326" lon="0.90107">
        <ele>149</ele>
        <time>2017-12-20T14:41:04Z</time>
      </trkpt>
      <trkpt lat="48.9833" lon="0.9011">
        <ele>149</ele>
        <time>2017-12-20T14:41:05Z</time>
      </trkpt>
      <trkpt lat="48.98335" lon="0.90114">
        <ele>149</ele>
        <time>2017-12-20T14:41:06Z</time>
      </trkpt>
      <trkpt lat="48.98339" lon="0.90118">
        <ele>149</ele>
        <time>2017-12-20T14:41:07Z</time>
      </trkpt>
      <trkpt lat="48.98343" lon="0.90123">
        <ele>149</ele>
        <time>2017-12-20T14:41:08Z</time>
      </trkpt>
      <trkpt lat="48.98346" lon="0.90133">
        <ele>149</ele>
        <time>2017-12-20T14:41:10Z</time>
      </trkpt>
      <trkpt lat="48.98348" lon="0.9014">
        <ele>149</ele>
        <time>2017-12-20T14:41:11Z</time>
      </trkpt>
      <trkpt lat="48.98354" lon="0.90148">
        <ele>149</ele>
        <time>2017-12-20T14:41:13Z</time>
      </trkpt>
      <trkpt lat="48.98358" lon="0.90148">
        <ele>149</ele>
        <time>2017-12-20T14:41:14Z</time>
      </trkpt>
      <trkpt lat="48.98364" lon="0.90149">
        <ele>149</ele>
        <time>2017-12-20T14:41:15Z</time>
      </trkpt>
      <trkpt lat="48.98369" lon="0.9015">
        <ele>149</ele>
        <time>2017-12-20T14:41:16Z</time>
      </trkpt>
      <trkpt lat="48.98374" lon="0.9015">
        <ele>149</ele>
        <time>2017-12-20T14:41:17Z</time>
      </trkpt>
      <trkpt lat="48.98379" lon="0.9015">
        <ele>150</ele>
        <time>2017-12-20T14:41:18Z</time>
      </trkpt>
      <trkpt lat="48.98385" lon="0.9015">
        <ele>150</ele>
        <time>2017-12-20T14:41:19Z</time>
      </trkpt>
      <trkpt lat="48.98389" lon="0.90151">
        <ele>150</ele>
        <time>2017-12-20T14:41:20Z</time>
      </trkpt>
      <trkpt lat="48.98395" lon="0.90152">
        <ele>150</ele>
        <time>2017-12-20T14:41:21Z</time>
      </trkpt>
      <trkpt lat="48.98408" lon="0.90154">
        <ele>151</ele>
        <time>2017-12-20T14:41:24Z</time>
      </trkpt>
      <trkpt lat="48.98412" lon="0.90155">
        <ele>151</ele>
        <time>2017-12-20T14:41:25Z</time>
      </trkpt>
      <trkpt lat="48.98417" lon="0.90155">
        <ele>151</ele>
        <time>2017-12-20T14:41:26Z</time>
      </trkpt>
      <trkpt lat="48.98426" lon="0.90156">
        <ele>151</ele>
        <time>2017-12-20T14:41:28Z</time>
      </trkpt>
      <trkpt lat="48.98433" lon="0.90158">
        <ele>151</ele>
        <time>2017-12-20T14:41:30Z</time>
      </trkpt>
      <trkpt lat="48.9844" lon="0.90159">
        <ele>152</ele>
        <time>2017-12-20T14:41:32Z</time>
      </trkpt>
      <trkpt lat="48.98446" lon="0.90161">
        <ele>153</ele>
        <time>2017-12-20T14:41:34Z</time>
      </trkpt>
      <trkpt lat="48.98454" lon="0.90164">
        <ele>153</ele>
        <time>2017-12-20T14:41:36Z</time>
      </trkpt>
      <trkpt lat="48.98461" lon="0.90165">
        <ele>153</ele>
        <time>2017-12-20T14:41:38Z</time>
      </trkpt>
      <trkpt lat="48.98468" lon="0.9017">
        <ele>152</ele>
        <time>2017-12-20T14:41:40Z</time>
      </trkpt>
      <trkpt lat="48.98472" lon="0.90174">
        <ele>152</ele>
        <time>2017-12-20T14:41:41Z</time>
      </trkpt>
      <trkpt lat="48.98476" lon="0.90179">
        <ele>152</ele>
        <time>2017-12-20T14:41:42Z</time>
      </trkpt>
      <trkpt lat="48.98481" lon="0.9019">
        <ele>152</ele>
        <time>2017-12-20T14:41:44Z</time>
      </trkpt>
      <trkpt lat="48.98485" lon="0.90202">
        <ele>152</ele>
        <time>2017-12-20T14:41:46Z</time>
      </trkpt>
      <trkpt lat="48.98491" lon="0.90211">
        <ele>152</ele>
        <time>2017-12-20T14:41:48Z</time>
      </trkpt>
      <trkpt lat="48.98496" lon="0.90221">
        <ele>152</ele>
        <time>2017-12-20T14:41:50Z</time>
      </trkpt>
      <trkpt lat="48.98499" lon="0.90227">
        <ele>152</ele>
        <time>2017-12-20T14:41:51Z</time>
      </trkpt>
      <trkpt lat="48.98502" lon="0.90232">
        <ele>153</ele>
        <time>2017-12-20T14:41:52Z</time>
      </trkpt>
      <trkpt lat="48.98505" lon="0.90237">
        <ele>153</ele>
        <time>2017-12-20T14:41:53Z</time>
      </trkpt>
      <trkpt lat="48.98511" lon="0.90248">
        <ele>152</ele>
        <time>2017-12-20T14:41:55Z</time>
      </trkpt>
      <trkpt lat="48.98515" lon="0.90252">
        <ele>152</ele>
        <time>2017-12-20T14:41:56Z</time>
      </trkpt>
      <trkpt lat="48.98521" lon="0.90261">
        <ele>152</ele>
        <time>2017-12-20T14:41:58Z</time>
      </trkpt>
      <trkpt lat="48.98526" lon="0.9027">
        <ele>153</ele>
        <time>2017-12-20T14:42:00Z</time>
      </trkpt>
      <trkpt lat="48.9853" lon="0.90277">
        <ele>153</ele>
        <time>2017-12-20T14:42:02Z</time>
      </trkpt>
      <trkpt lat="48.98535" lon="0.90284">
        <ele>152</ele>
        <time>2017-12-20T14:42:04Z</time>
      </trkpt>
      <trkpt lat="48.98541" lon="0.90289">
        <ele>151</ele>
        <time>2017-12-20T14:42:06Z</time>
      </trkpt>
      <trkpt lat="48.98547" lon="0.9029">
        <ele>151</ele>
        <time>2017-12-20T14:42:08Z</time>
      </trkpt>
      <trkpt lat="48.98554" lon="0.90282">
        <ele>151</ele>
        <time>2017-12-20T14:42:10Z</time>
      </trkpt>
      <trkpt lat="48.98558" lon="0.90277">
        <ele>151</ele>
        <time>2017-12-20T14:42:11Z</time>
      </trkpt>
      <trkpt lat="48.98561" lon="0.90271">
        <ele>152</ele>
        <time>2017-12-20T14:42:12Z</time>
      </trkpt>
      <trkpt lat="48.98564" lon="0.90266">
        <ele>152</ele>
        <time>2017-12-20T14:42:13Z</time>
      </trkpt>
      <trkpt lat="48.9857" lon="0.90249">
        <ele>151</ele>
        <time>2017-12-20T14:42:16Z</time>
      </trkpt>
      <trkpt lat="48.98574" lon="0.90238">
        <ele>151</ele>
        <time>2017-12-20T14:42:18Z</time>
      </trkpt>
      <trkpt lat="48.98578" lon="0.90226">
        <ele>152</ele>
        <time>2017-12-20T14:42:20Z</time>
      </trkpt>
      <trkpt lat="48.98581" lon="0.90215">
        <ele>152</ele>
        <time>2017-12-20T14:42:22Z</time>
      </trkpt>
      <trkpt lat="48.98583" lon="0.90208">
        <ele>151</ele>
        <time>2017-12-20T14:42:23Z</time>
      </trkpt>
      <trkpt lat="48.98587" lon="0.90196">
        <ele>152</ele>
        <time>2017-12-20T14:42:25Z</time>
      </trkpt>
      <trkpt lat="48.98589" lon="0.9019">
        <ele>152</ele>
        <time>2017-12-20T14:42:26Z</time>
      </trkpt>
      <trkpt lat="48.98595" lon="0.90172">
        <ele>152</ele>
        <time>2017-12-20T14:42:29Z</time>
      </trkpt>
      <trkpt lat="48.98599" lon="0.90162">
        <ele>152</ele>
        <time>2017-12-20T14:42:31Z</time>
      </trkpt>
      <trkpt lat="48.98602" lon="0.90151">
        <ele>152</ele>
        <time>2017-12-20T14:42:33Z</time>
      </trkpt>
      <trkpt lat="48.98606" lon="0.90139">
        <ele>152</ele>
        <time>2017-12-20T14:42:35Z</time>
      </trkpt>
      <trkpt lat="48.98607" lon="0.90132">
        <ele>152</ele>
        <time>2017-12-20T14:42:36Z</time>
      </trkpt>
      <trkpt lat="48.98609" lon="0.90124">
        <ele>152</ele>
        <time>2017-12-20T14:42:37Z</time>
      </trkpt>
      <trkpt lat="48.98611" lon="0.90116">
        <ele>153</ele>
        <time>2017-12-20T14:42:38Z</time>
      </trkpt>
      <trkpt lat="48.98613" lon="0.90109">
        <ele>153</ele>
        <time>2017-12-20T14:42:39Z</time>
      </trkpt>
      <trkpt lat="48.98616" lon="0.90095">
        <ele>154</ele>
        <time>2017-12-20T14:42:41Z</time>
      </trkpt>
      <trkpt lat="48.98618" lon="0.90088">
        <ele>153</ele>
        <time>2017-12-20T14:42:42Z</time>
      </trkpt>
      <trkpt lat="48.98619" lon="0.90082">
        <ele>153</ele>
        <time>2017-12-20T14:42:43Z</time>
      </trkpt>
      <trkpt lat="48.9862" lon="0.90075">
        <ele>153</ele>
        <time>2017-12-20T14:42:44Z</time>
      </trkpt>
      <trkpt lat="48.98621" lon="0.90068">
        <ele>153</ele>
        <time>2017-12-20T14:42:45Z</time>
      </trkpt>
      <trkpt lat="48.98623" lon="0.90054">
        <ele>153</ele>
        <time>2017-12-20T14:42:47Z</time>
      </trkpt>
      <trkpt lat="48.98624" lon="0.90047">
        <ele>153</ele>
        <time>2017-12-20T14:42:48Z</time>
      </trkpt>
      <trkpt lat="48.98626" lon="0.9004">
        <ele>153</ele>
        <time>2017-12-20T14:42:49Z</time>
      </trkpt>
      <trkpt lat="48.98627" lon="0.90033">
        <ele>153</ele>
        <time>2017-12-20T14:42:50Z</time>
      </trkpt>
      <trkpt lat="48.9863" lon="0.90021">
        <ele>153</ele>
        <time>2017-12-20T14:42:52Z</time>
      </trkpt>
      <trkpt lat="48.98632" lon="0.90008">
        <ele>153</ele>
        <time>2017-12-20T14:42:54Z</time>
      </trkpt>
      <trkpt lat="48.98634" lon="0.89997">
        <ele>152</ele>
        <time>2017-12-20T14:42:56Z</time>
      </trkpt>
      <trkpt lat="48.98636" lon="0.8999">
        <ele>152</ele>
        <time>2017-12-20T14:42:57Z</time>
      </trkpt>
      <trkpt lat="48.98639" lon="0.89978">
        <ele>152</ele>
        <time>2017-12-20T14:42:59Z</time>
      </trkpt>
      <trkpt lat="48.9864" lon="0.89964">
        <ele>152</ele>
        <time>2017-12-20T14:43:01Z</time>
      </trkpt>
      <trkpt lat="48.98642" lon="0.89953">
        <ele>151</ele>
        <time>2017-12-20T14:43:03Z</time>
      </trkpt>
      <trkpt lat="48.98643" lon="0.8994">
        <ele>151</ele>
        <time>2017-12-20T14:43:05Z</time>
      </trkpt>
      <trkpt lat="48.98644" lon="0.89929">
        <ele>151</ele>
        <time>2017-12-20T14:43:07Z</time>
      </trkpt>
      <trkpt lat="48.98644" lon="0.89916">
        <ele>151</ele>
        <time>2017-12-20T14:43:09Z</time>
      </trkpt>
      <trkpt lat="48.98644" lon="0.89904">
        <ele>151</ele>
        <time>2017-12-20T14:43:11Z</time>
      </trkpt>
      <trkpt lat="48.98643" lon="0.89897">
        <ele>152</ele>
        <time>2017-12-20T14:43:12Z</time>
      </trkpt>
      <trkpt lat="48.98643" lon="0.8989">
        <ele>152</ele>
        <time>2017-12-20T14:43:13Z</time>
      </trkpt>
      <trkpt lat="48.98643" lon="0.89883">
        <ele>152</ele>
        <time>2017-12-20T14:43:14Z</time>
      </trkpt>
      <trkpt lat="48.98642" lon="0.89876">
        <ele>152</ele>
        <time>2017-12-20T14:43:15Z</time>
      </trkpt>
      <trkpt lat="48.9864" lon="0.8987">
        <ele>152</ele>
        <time>2017-12-20T14:43:16Z</time>
      </trkpt>
      <trkpt lat="48.98636" lon="0.89858">
        <ele>152</ele>
        <time>2017-12-20T14:43:18Z</time>
      </trkpt>
      <trkpt lat="48.98631" lon="0.89846">
        <ele>152</ele>
        <time>2017-12-20T14:43:20Z</time>
      </trkpt>
      <trkpt lat="48.98628" lon="0.8984">
        <ele>152</ele>
        <time>2017-12-20T14:43:21Z</time>
      </trkpt>
      <trkpt lat="48.98625" lon="0.89834">
        <ele>152</ele>
        <time>2017-12-20T14:43:22Z</time>
      </trkpt>
      <trkpt lat="48.98622" lon="0.89826">
        <ele>152</ele>
        <time>2017-12-20T14:43:23Z</time>
      </trkpt>
      <trkpt lat="48.9862" lon="0.8982">
        <ele>152</ele>
        <time>2017-12-20T14:43:24Z</time>
      </trkpt>
      <trkpt lat="48.98617" lon="0.89814">
        <ele>151</ele>
        <time>2017-12-20T14:43:25Z</time>
      </trkpt>
      <trkpt lat="48.98612" lon="0.89801">
        <ele>151</ele>
        <time>2017-12-20T14:43:27Z</time>
      </trkpt>
      <trkpt lat="48.9861" lon="0.89795">
        <ele>151</ele>
        <time>2017-12-20T14:43:28Z</time>
      </trkpt>
      <trkpt lat="48.98606" lon="0.89783">
        <ele>151</ele>
        <time>2017-12-20T14:43:30Z</time>
      </trkpt>
      <trkpt lat="48.98603" lon="0.8977">
        <ele>152</ele>
        <time>2017-12-20T14:43:32Z</time>
      </trkpt>
      <trkpt lat="48.98601" lon="0.89763">
        <ele>152</ele>
        <time>2017-12-20T14:43:33Z</time>
      </trkpt>
      <trkpt lat="48.98599" lon="0.89756">
        <ele>152</ele>
        <time>2017-12-20T14:43:34Z</time>
      </trkpt>
      <trkpt lat="48.98597" lon="0.89749">
        <ele>152</ele>
        <time>2017-12-20T14:43:35Z</time>
      </trkpt>
      <trkpt lat="48.98596" lon="0.89742">
        <ele>152</ele>
        <time>2017-12-20T14:43:36Z</time>
      </trkpt>
      <trkpt lat="48.98594" lon="0.89735">
        <ele>152</ele>
        <time>2017-12-20T14:43:37Z</time>
      </trkpt>
      <trkpt lat="48.98591" lon="0.89722">
        <ele>152</ele>
        <time>2017-12-20T14:43:39Z</time>
      </trkpt>
      <trkpt lat="48.9859" lon="0.89716">
        <ele>152</ele>
        <time>2017-12-20T14:43:40Z</time>
      </trkpt>
      <trkpt lat="48.98588" lon="0.89709">
        <ele>152</ele>
        <time>2017-12-20T14:43:41Z</time>
      </trkpt>
      <trkpt lat="48.98587" lon="0.89702">
        <ele>152</ele>
        <time>2017-12-20T14:43:42Z</time>
      </trkpt>
      <trkpt lat="48.98586" lon="0.89695">
        <ele>152</ele>
        <time>2017-12-20T14:43:43Z</time>
      </trkpt>
      <trkpt lat="48.98584" lon="0.89688">
        <ele>152</ele>
        <time>2017-12-20T14:43:44Z</time>
      </trkpt>
      <trkpt lat="48.98583" lon="0.89681">
        <ele>152</ele>
        <time>2017-12-20T14:43:45Z</time>
      </trkpt>
      <trkpt lat="48.98582" lon="0.89674">
        <ele>152</ele>
        <time>2017-12-20T14:43:46Z</time>
      </trkpt>
      <trkpt lat="48.9858" lon="0.89661">
        <ele>152</ele>
        <time>2017-12-20T14:43:48Z</time>
      </trkpt>
      <trkpt lat="48.98578" lon="0.89649">
        <ele>152</ele>
        <time>2017-12-20T14:43:50Z</time>
      </trkpt>
      <trkpt lat="48.98575" lon="0.89638">
        <ele>151</ele>
        <time>2017-12-20T14:43:52Z</time>
      </trkpt>
      <trkpt lat="48.98573" lon="0.89625">
        <ele>151</ele>
        <time>2017-12-20T14:43:54Z</time>
      </trkpt>
      <trkpt lat="48.98573" lon="0.89618">
        <ele>151</ele>
        <time>2017-12-20T14:43:55Z</time>
      </trkpt>
      <trkpt lat="48.98574" lon="0.89605">
        <ele>151</ele>
        <time>2017-12-20T14:43:57Z</time>
      </trkpt>
      <trkpt lat="48.98575" lon="0.89593">
        <ele>151</ele>
        <time>2017-12-20T14:43:59Z</time>
      </trkpt>
      <trkpt lat="48.98578" lon="0.89583">
        <ele>151</ele>
        <time>2017-12-20T14:44:01Z</time>
      </trkpt>
      <trkpt lat="48.98581" lon="0.89573">
        <ele>152</ele>
        <time>2017-12-20T14:44:03Z</time>
      </trkpt>
      <trkpt lat="48.98584" lon="0.89563">
        <ele>152</ele>
        <time>2017-12-20T14:44:05Z</time>
      </trkpt>
      <trkpt lat="48.98587" lon="0.89553">
        <ele>152</ele>
        <time>2017-12-20T14:44:07Z</time>
      </trkpt>
      <trkpt lat="48.98591" lon="0.89544">
        <ele>152</ele>
        <time>2017-12-20T14:44:09Z</time>
      </trkpt>
      <trkpt lat="48.98595" lon="0.89535">
        <ele>152</ele>
        <time>2017-12-20T14:44:11Z</time>
      </trkpt>
      <trkpt lat="48.98599" lon="0.89527">
        <ele>152</ele>
        <time>2017-12-20T14:44:13Z</time>
      </trkpt>
      <trkpt lat="48.98602" lon="0.89519">
        <ele>152</ele>
        <time>2017-12-20T14:44:15Z</time>
      </trkpt>
      <trkpt lat="48.98605" lon="0.89514">
        <ele>152</ele>
        <time>2017-12-20T14:44:17Z</time>
      </trkpt>
      <trkpt lat="48.98609" lon="0.89501">
        <ele>151</ele>
        <time>2017-12-20T14:44:19Z</time>
      </trkpt>
      <trkpt lat="48.98612" lon="0.8949">
        <ele>151</ele>
        <time>2017-12-20T14:44:21Z</time>
      </trkpt>
      <trkpt lat="48.98614" lon="0.89483">
        <ele>151</ele>
        <time>2017-12-20T14:44:22Z</time>
      </trkpt>
      <trkpt lat="48.98616" lon="0.89472">
        <ele>151</ele>
        <time>2017-12-20T14:44:24Z</time>
      </trkpt>
      <trkpt lat="48.98618" lon="0.89461">
        <ele>151</ele>
        <time>2017-12-20T14:44:26Z</time>
      </trkpt>
      <trkpt lat="48.98621" lon="0.8945">
        <ele>151</ele>
        <time>2017-12-20T14:44:28Z</time>
      </trkpt>
      <trkpt lat="48.98622" lon="0.89442">
        <ele>150</ele>
        <time>2017-12-20T14:44:29Z</time>
      </trkpt>
      <trkpt lat="48.98624" lon="0.8943">
        <ele>150</ele>
        <time>2017-12-20T14:44:31Z</time>
      </trkpt>
      <trkpt lat="48.98624" lon="0.89419">
        <ele>150</ele>
        <time>2017-12-20T14:44:33Z</time>
      </trkpt>
      <trkpt lat="48.98626" lon="0.89411">
        <ele>150</ele>
        <time>2017-12-20T14:44:34Z</time>
      </trkpt>
      <trkpt lat="48.98626" lon="0.89404">
        <ele>150</ele>
        <time>2017-12-20T14:44:35Z</time>
      </trkpt>
      <trkpt lat="48.98627" lon="0.89392">
        <ele>150</ele>
        <time>2017-12-20T14:44:37Z</time>
      </trkpt>
      <trkpt lat="48.98626" lon="0.89385">
        <ele>150</ele>
        <time>2017-12-20T14:44:38Z</time>
      </trkpt>
      <trkpt lat="48.98625" lon="0.89374">
        <ele>150</ele>
        <time>2017-12-20T14:44:40Z</time>
      </trkpt>
      <trkpt lat="48.98624" lon="0.89366">
        <ele>150</ele>
        <time>2017-12-20T14:44:41Z</time>
      </trkpt>
      <trkpt lat="48.98625" lon="0.89357">
        <ele>149</ele>
        <time>2017-12-20T14:44:42Z</time>
      </trkpt>
      <trkpt lat="48.98624" lon="0.89348">
        <ele>149</ele>
        <time>2017-12-20T14:44:43Z</time>
      </trkpt>
      <trkpt lat="48.98624" lon="0.89335">
        <ele>149</ele>
        <time>2017-12-20T14:44:45Z</time>
      </trkpt>
      <trkpt lat="48.98624" lon="0.89324">
        <ele>149</ele>
        <time>2017-12-20T14:44:47Z</time>
      </trkpt>
      <trkpt lat="48.98624" lon="0.89317">
        <ele>149</ele>
        <time>2017-12-20T14:44:48Z</time>
      </trkpt>
      <trkpt lat="48.98622" lon="0.89304">
        <ele>149</ele>
        <time>2017-12-20T14:44:50Z</time>
      </trkpt>
      <trkpt lat="48.98621" lon="0.89292">
        <ele>149</ele>
        <time>2017-12-20T14:44:52Z</time>
      </trkpt>
      <trkpt lat="48.9862" lon="0.89285">
        <ele>149</ele>
        <time>2017-12-20T14:44:53Z</time>
      </trkpt>
      <trkpt lat="48.9862" lon="0.89276">
        <ele>149</ele>
        <time>2017-12-20T14:44:54Z</time>
      </trkpt>
      <trkpt lat="48.98619" lon="0.89267">
        <ele>148</ele>
        <time>2017-12-20T14:44:55Z</time>
      </trkpt>
      <trkpt lat="48.98618" lon="0.89254">
        <ele>147</ele>
        <time>2017-12-20T14:44:57Z</time>
      </trkpt>
      <trkpt lat="48.98618" lon="0.89244">
        <ele>147</ele>
        <time>2017-12-20T14:44:58Z</time>
      </trkpt>
      <trkpt lat="48.98618" lon="0.89236">
        <ele>147</ele>
        <time>2017-12-20T14:44:59Z</time>
      </trkpt>
      <trkpt lat="48.98617" lon="0.89229">
        <ele>147</ele>
        <time>2017-12-20T14:45:00Z</time>
      </trkpt>
      <trkpt lat="48.98616" lon="0.89222">
        <ele>146</ele>
        <time>2017-12-20T14:45:01Z</time>
      </trkpt>
      <trkpt lat="48.98616" lon="0.89215">
        <ele>146</ele>
        <time>2017-12-20T14:45:02Z</time>
      </trkpt>
      <trkpt lat="48.98615" lon="0.89207">
        <ele>146</ele>
        <time>2017-12-20T14:45:03Z</time>
      </trkpt>
      <trkpt lat="48.98613" lon="0.89199">
        <ele>145</ele>
        <time>2017-12-20T14:45:04Z</time>
      </trkpt>
      <trkpt lat="48.98611" lon="0.89191">
        <ele>145</ele>
        <time>2017-12-20T14:45:05Z</time>
      </trkpt>
      <trkpt lat="48.98607" lon="0.8918">
        <ele>144</ele>
        <time>2017-12-20T14:45:07Z</time>
      </trkpt>
      <trkpt lat="48.98603" lon="0.89169">
        <ele>143</ele>
        <time>2017-12-20T14:45:09Z</time>
      </trkpt>
      <trkpt lat="48.986" lon="0.89161">
        <ele>142</ele>
        <time>2017-12-20T14:45:11Z</time>
      </trkpt>
      <trkpt lat="48.98597" lon="0.89152">
        <ele>140</ele>
        <time>2017-12-20T14:45:13Z</time>
      </trkpt>
      <trkpt lat="48.98595" lon="0.89144">
        <ele>141</ele>
        <time>2017-12-20T14:45:15Z</time>
      </trkpt>
      <trkpt lat="48.98592" lon="0.89135">
        <ele>141</ele>
        <time>2017-12-20T14:45:17Z</time>
      </trkpt>
      <trkpt lat="48.9859" lon="0.89129">
        <ele>141</ele>
        <time>2017-12-20T14:45:18Z</time>
      </trkpt>
      <trkpt lat="48.98585" lon="0.89121">
        <ele>141</ele>
        <time>2017-12-20T14:45:20Z</time>
      </trkpt>
      <trkpt lat="48.98579" lon="0.89112">
        <ele>141</ele>
        <time>2017-12-20T14:45:24Z</time>
      </trkpt>
      <trkpt lat="48.98574" lon="0.89105">
        <ele>142</ele>
        <time>2017-12-20T14:45:26Z</time>
      </trkpt>
      <trkpt lat="48.98568" lon="0.89096">
        <ele>142</ele>
        <time>2017-12-20T14:45:28Z</time>
      </trkpt>
      <trkpt lat="48.98563" lon="0.8909">
        <ele>143</ele>
        <time>2017-12-20T14:45:29Z</time>
      </trkpt>
      <trkpt lat="48.98557" lon="0.89079">
        <ele>143</ele>
        <time>2017-12-20T14:45:31Z</time>
      </trkpt>
      <trkpt lat="48.98552" lon="0.8907">
        <ele>143</ele>
        <time>2017-12-20T14:45:33Z</time>
      </trkpt>
      <trkpt lat="48.98549" lon="0.89064">
        <ele>143</ele>
        <time>2017-12-20T14:45:34Z</time>
      </trkpt>
      <trkpt lat="48.98546" lon="0.89057">
        <ele>143</ele>
        <time>2017-12-20T14:45:35Z</time>
      </trkpt>
      <trkpt lat="48.98542" lon="0.89049">
        <ele>143</ele>
        <time>2017-12-20T14:45:37Z</time>
      </trkpt>
      <trkpt lat="48.98537" lon="0.89039">
        <ele>144</ele>
        <time>2017-12-20T14:45:39Z</time>
      </trkpt>
      <trkpt lat="48.98535" lon="0.89032">
        <ele>144</ele>
        <time>2017-12-20T14:45:40Z</time>
      </trkpt>
      <trkpt lat="48.98531" lon="0.89021">
        <ele>144</ele>
        <time>2017-12-20T14:45:42Z</time>
      </trkpt>
      <trkpt lat="48.98525" lon="0.8901">
        <ele>144</ele>
        <time>2017-12-20T14:45:44Z</time>
      </trkpt>
      <trkpt lat="48.9852" lon="0.89">
        <ele>144</ele>
        <time>2017-12-20T14:45:46Z</time>
      </trkpt>
      <trkpt lat="48.98515" lon="0.88989">
        <ele>145</ele>
        <time>2017-12-20T14:45:48Z</time>
      </trkpt>
      <trkpt lat="48.98511" lon="0.88983">
        <ele>145</ele>
        <time>2017-12-20T14:45:50Z</time>
      </trkpt>
      <trkpt lat="48.98507" lon="0.88975">
        <ele>145</ele>
        <time>2017-12-20T14:45:52Z</time>
      </trkpt>
      <trkpt lat="48.98502" lon="0.88964">
        <ele>145</ele>
        <time>2017-12-20T14:45:54Z</time>
      </trkpt>
      <trkpt lat="48.98498" lon="0.88954">
        <ele>145</ele>
        <time>2017-12-20T14:45:56Z</time>
      </trkpt>
      <trkpt lat="48.98495" lon="0.88947">
        <ele>145</ele>
        <time>2017-12-20T14:45:58Z</time>
      </trkpt>
      <trkpt lat="48.98489" lon="0.88932">
        <ele>145</ele>
        <time>2017-12-20T14:46:01Z</time>
      </trkpt>
      <trkpt lat="48.98487" lon="0.88924">
        <ele>145</ele>
        <time>2017-12-20T14:46:03Z</time>
      </trkpt>
      <trkpt lat="48.98483" lon="0.88916">
        <ele>146</ele>
        <time>2017-12-20T14:46:05Z</time>
      </trkpt>
      <trkpt lat="48.9848" lon="0.88906">
        <ele>146</ele>
        <time>2017-12-20T14:46:07Z</time>
      </trkpt>
      <trkpt lat="48.98477" lon="0.889">
        <ele>146</ele>
        <time>2017-12-20T14:46:09Z</time>
      </trkpt>
      <trkpt lat="48.98474" lon="0.88891">
        <ele>146</ele>
        <time>2017-12-20T14:46:11Z</time>
      </trkpt>
      <trkpt lat="48.9847" lon="0.88883">
        <ele>146</ele>
        <time>2017-12-20T14:46:13Z</time>
      </trkpt>
      <trkpt lat="48.98465" lon="0.88874">
        <ele>146</ele>
        <time>2017-12-20T14:46:15Z</time>
      </trkpt>
      <trkpt lat="48.98461" lon="0.88866">
        <ele>146</ele>
        <time>2017-12-20T14:46:17Z</time>
      </trkpt>
      <trkpt lat="48.98456" lon="0.88859">
        <ele>146</ele>
        <time>2017-12-20T14:46:19Z</time>
      </trkpt>
      <trkpt lat="48.98451" lon="0.88851">
        <ele>146</ele>
        <time>2017-12-20T14:46:21Z</time>
      </trkpt>
      <trkpt lat="48.98446" lon="0.88844">
        <ele>147</ele>
        <time>2017-12-20T14:46:23Z</time>
      </trkpt>
      <trkpt lat="48.98441" lon="0.88838">
        <ele>147</ele>
        <time>2017-12-20T14:46:25Z</time>
      </trkpt>
      <trkpt lat="48.98436" lon="0.88831">
        <ele>147</ele>
        <time>2017-12-20T14:46:27Z</time>
      </trkpt>
      <trkpt lat="48.98432" lon="0.88825">
        <ele>148</ele>
        <time>2017-12-20T14:46:29Z</time>
      </trkpt>
      <trkpt lat="48.98428" lon="0.88819">
        <ele>148</ele>
        <time>2017-12-20T14:46:31Z</time>
      </trkpt>
      <trkpt lat="48.98423" lon="0.88813">
        <ele>148</ele>
        <time>2017-12-20T14:46:33Z</time>
      </trkpt>
      <trkpt lat="48.9842" lon="0.88807">
        <ele>147</ele>
        <time>2017-12-20T14:46:35Z</time>
      </trkpt>
      <trkpt lat="48.98417" lon="0.88801">
        <ele>147</ele>
        <time>2017-12-20T14:46:37Z</time>
      </trkpt>
      <trkpt lat="48.98412" lon="0.88797">
        <ele>148</ele>
        <time>2017-12-20T14:46:39Z</time>
      </trkpt>
      <trkpt lat="48.98406" lon="0.8879">
        <ele>148</ele>
        <time>2017-12-20T14:46:41Z</time>
      </trkpt>
      <trkpt lat="48.98402" lon="0.88784">
        <ele>148</ele>
        <time>2017-12-20T14:46:43Z</time>
      </trkpt>
      <trkpt lat="48.98395" lon="0.88779">
        <ele>148</ele>
        <time>2017-12-20T14:46:45Z</time>
      </trkpt>
      <trkpt lat="48.98391" lon="0.88779">
        <ele>148</ele>
        <time>2017-12-20T14:46:46Z</time>
      </trkpt>
      <trkpt lat="48.98386" lon="0.88778">
        <ele>148</ele>
        <time>2017-12-20T14:46:47Z</time>
      </trkpt>
      <trkpt lat="48.98381" lon="0.88777">
        <ele>148</ele>
        <time>2017-12-20T14:46:48Z</time>
      </trkpt>
      <trkpt lat="48.98377" lon="0.88775">
        <ele>148</ele>
        <time>2017-12-20T14:46:49Z</time>
      </trkpt>
      <trkpt lat="48.98372" lon="0.88774">
        <ele>149</ele>
        <time>2017-12-20T14:46:50Z</time>
      </trkpt>
      <trkpt lat="48.98367" lon="0.88771">
        <ele>149</ele>
        <time>2017-12-20T14:46:51Z</time>
      </trkpt>
      <trkpt lat="48.98362" lon="0.88768">
        <ele>149</ele>
        <time>2017-12-20T14:46:52Z</time>
      </trkpt>
      <trkpt lat="48.98356" lon="0.88763">
        <ele>149</ele>
        <time>2017-12-20T14:46:53Z</time>
      </trkpt>
      <trkpt lat="48.98352" lon="0.88759">
        <ele>149</ele>
        <time>2017-12-20T14:46:54Z</time>
      </trkpt>
      <trkpt lat="48.98348" lon="0.88754">
        <ele>149</ele>
        <time>2017-12-20T14:46:55Z</time>
      </trkpt>
      <trkpt lat="48.98344" lon="0.88749">
        <ele>149</ele>
        <time>2017-12-20T14:46:56Z</time>
      </trkpt>
      <trkpt lat="48.9834" lon="0.88743">
        <ele>149</ele>
        <time>2017-12-20T14:46:57Z</time>
      </trkpt>
      <trkpt lat="48.98336" lon="0.88738">
        <ele>149</ele>
        <time>2017-12-20T14:46:58Z</time>
      </trkpt>
      <trkpt lat="48.98332" lon="0.88733">
        <ele>149</ele>
        <time>2017-12-20T14:46:59Z</time>
      </trkpt>
      <trkpt lat="48.98328" lon="0.88728">
        <ele>149</ele>
        <time>2017-12-20T14:47:00Z</time>
      </trkpt>
      <trkpt lat="48.98325" lon="0.88723">
        <ele>149</ele>
        <time>2017-12-20T14:47:01Z</time>
      </trkpt>
      <trkpt lat="48.98321" lon="0.88717">
        <ele>149</ele>
        <time>2017-12-20T14:47:02Z</time>
      </trkpt>
      <trkpt lat="48.98317" lon="0.88712">
        <ele>149</ele>
        <time>2017-12-20T14:47:03Z</time>
      </trkpt>
      <trkpt lat="48.98314" lon="0.88706">
        <ele>149</ele>
        <time>2017-12-20T14:47:04Z</time>
      </trkpt>
      <trkpt lat="48.98311" lon="0.887">
        <ele>149</ele>
        <time>2017-12-20T14:47:05Z</time>
      </trkpt>
      <trkpt lat="48.98308" lon="0.88694">
        <ele>149</ele>
        <time>2017-12-20T14:47:06Z</time>
      </trkpt>
      <trkpt lat="48.98305" lon="0.88688">
        <ele>149</ele>
        <time>2017-12-20T14:47:07Z</time>
      </trkpt>
      <trkpt lat="48.98301" lon="0.88682">
        <ele>149</ele>
        <time>2017-12-20T14:47:08Z</time>
      </trkpt>
      <trkpt lat="48.98298" lon="0.88676">
        <ele>149</ele>
        <time>2017-12-20T14:47:09Z</time>
      </trkpt>
      <trkpt lat="48.98296" lon="0.8867">
        <ele>150</ele>
        <time>2017-12-20T14:47:10Z</time>
      </trkpt>
      <trkpt lat="48.98293" lon="0.88663">
        <ele>150</ele>
        <time>2017-12-20T14:47:11Z</time>
      </trkpt>
      <trkpt lat="48.9829" lon="0.88657">
        <ele>150</ele>
        <time>2017-12-20T14:47:12Z</time>
      </trkpt>
      <trkpt lat="48.98289" lon="0.88651">
        <ele>150</ele>
        <time>2017-12-20T14:47:13Z</time>
      </trkpt>
      <trkpt lat="48.98288" lon="0.88643">
        <ele>150</ele>
        <time>2017-12-20T14:47:14Z</time>
      </trkpt>
      <trkpt lat="48.98286" lon="0.88636">
        <ele>150</ele>
        <time>2017-12-20T14:47:15Z</time>
      </trkpt>
      <trkpt lat="48.98285" lon="0.88622">
        <ele>150</ele>
        <time>2017-12-20T14:47:17Z</time>
      </trkpt>
      <trkpt lat="48.98285" lon="0.88608">
        <ele>150</ele>
        <time>2017-12-20T14:47:19Z</time>
      </trkpt>
      <trkpt lat="48.98284" lon="0.88601">
        <ele>150</ele>
        <time>2017-12-20T14:47:20Z</time>
      </trkpt>
      <trkpt lat="48.98284" lon="0.88593">
        <ele>150</ele>
        <time>2017-12-20T14:47:21Z</time>
      </trkpt>
      <trkpt lat="48.98283" lon="0.8858">
        <ele>150</ele>
        <time>2017-12-20T14:47:23Z</time>
      </trkpt>
      <trkpt lat="48.98279" lon="0.88572">
        <ele>150</ele>
        <time>2017-12-20T14:47:25Z</time>
      </trkpt>
      <trkpt lat="48.98277" lon="0.88559">
        <ele>150</ele>
        <time>2017-12-20T14:47:27Z</time>
      </trkpt>
      <trkpt lat="48.98276" lon="0.88546">
        <ele>151</ele>
        <time>2017-12-20T14:47:29Z</time>
      </trkpt>
      <trkpt lat="48.98275" lon="0.88533">
        <ele>150</ele>
        <time>2017-12-20T14:47:31Z</time>
      </trkpt>
      <trkpt lat="48.98275" lon="0.88519">
        <ele>150</ele>
        <time>2017-12-20T14:47:33Z</time>
      </trkpt>
      <trkpt lat="48.98275" lon="0.88512">
        <ele>151</ele>
        <time>2017-12-20T14:47:34Z</time>
      </trkpt>
      <trkpt lat="48.98275" lon="0.88498">
        <ele>151</ele>
        <time>2017-12-20T14:47:36Z</time>
      </trkpt>
      <trkpt lat="48.98274" lon="0.88491">
        <ele>151</ele>
        <time>2017-12-20T14:47:37Z</time>
      </trkpt>
      <trkpt lat="48.98273" lon="0.88478">
        <ele>150</ele>
        <time>2017-12-20T14:47:39Z</time>
      </trkpt>
      <trkpt lat="48.98272" lon="0.88467">
        <ele>150</ele>
        <time>2017-12-20T14:47:41Z</time>
      </trkpt>
      <trkpt lat="48.98272" lon="0.88456">
        <ele>150</ele>
        <time>2017-12-20T14:47:43Z</time>
      </trkpt>
      <trkpt lat="48.98272" lon="0.88446">
        <ele>151</ele>
        <time>2017-12-20T14:47:45Z</time>
      </trkpt>
      <trkpt lat="48.98278" lon="0.88441">
        <ele>151</ele>
        <time>2017-12-20T14:47:47Z</time>
      </trkpt>
      <trkpt lat="48.98286" lon="0.88441">
        <ele>152</ele>
        <time>2017-12-20T14:47:49Z</time>
      </trkpt>
      <trkpt lat="48.98291" lon="0.88441">
        <ele>152</ele>
        <time>2017-12-20T14:47:50Z</time>
      </trkpt>
      <trkpt lat="48.98296" lon="0.88441">
        <ele>152</ele>
        <time>2017-12-20T14:47:51Z</time>
      </trkpt>
      <trkpt lat="48.98301" lon="0.8844">
        <ele>152</ele>
        <time>2017-12-20T14:47:52Z</time>
      </trkpt>
      <trkpt lat="48.98305" lon="0.88438">
        <ele>152</ele>
        <time>2017-12-20T14:47:53Z</time>
      </trkpt>
      <trkpt lat="48.9831" lon="0.88437">
        <ele>152</ele>
        <time>2017-12-20T14:47:54Z</time>
      </trkpt>
      <trkpt lat="48.98315" lon="0.88435">
        <ele>152</ele>
        <time>2017-12-20T14:47:55Z</time>
      </trkpt>
      <trkpt lat="48.9832" lon="0.88433">
        <ele>152</ele>
        <time>2017-12-20T14:47:56Z</time>
      </trkpt>
      <trkpt lat="48.98325" lon="0.88431">
        <ele>153</ele>
        <time>2017-12-20T14:47:57Z</time>
      </trkpt>
      <trkpt lat="48.9833" lon="0.88429">
        <ele>153</ele>
        <time>2017-12-20T14:47:58Z</time>
      </trkpt>
      <trkpt lat="48.98335" lon="0.88427">
        <ele>153</ele>
        <time>2017-12-20T14:47:59Z</time>
      </trkpt>
      <trkpt lat="48.9834" lon="0.88425">
        <ele>153</ele>
        <time>2017-12-20T14:48:00Z</time>
      </trkpt>
      <trkpt lat="48.98346" lon="0.88423">
        <ele>153</ele>
        <time>2017-12-20T14:48:01Z</time>
      </trkpt>
      <trkpt lat="48.98351" lon="0.88422">
        <ele>153</ele>
        <time>2017-12-20T14:48:02Z</time>
      </trkpt>
      <trkpt lat="48.98356" lon="0.8842">
        <ele>153</ele>
        <time>2017-12-20T14:48:03Z</time>
      </trkpt>
      <trkpt lat="48.98361" lon="0.88419">
        <ele>153</ele>
        <time>2017-12-20T14:48:04Z</time>
      </trkpt>
      <trkpt lat="48.9837" lon="0.88417">
        <ele>153</ele>
        <time>2017-12-20T14:48:06Z</time>
      </trkpt>
      <trkpt lat="48.98375" lon="0.88416">
        <ele>153</ele>
        <time>2017-12-20T14:48:07Z</time>
      </trkpt>
      <trkpt lat="48.98381" lon="0.88414">
        <ele>153</ele>
        <time>2017-12-20T14:48:08Z</time>
      </trkpt>
      <trkpt lat="48.98386" lon="0.88413">
        <ele>153</ele>
        <time>2017-12-20T14:48:09Z</time>
      </trkpt>
      <trkpt lat="48.98391" lon="0.88413">
        <ele>153</ele>
        <time>2017-12-20T14:48:10Z</time>
      </trkpt>
      <trkpt lat="48.98396" lon="0.88412">
        <ele>153</ele>
        <time>2017-12-20T14:48:11Z</time>
      </trkpt>
      <trkpt lat="48.98401" lon="0.88412">
        <ele>153</ele>
        <time>2017-12-20T14:48:12Z</time>
      </trkpt>
      <trkpt lat="48.9841" lon="0.88411">
        <ele>153</ele>
        <time>2017-12-20T14:48:14Z</time>
      </trkpt>
      <trkpt lat="48.98415" lon="0.8841">
        <ele>153</ele>
        <time>2017-12-20T14:48:15Z</time>
      </trkpt>
      <trkpt lat="48.98421" lon="0.8841">
        <ele>153</ele>
        <time>2017-12-20T14:48:16Z</time>
      </trkpt>
      <trkpt lat="48.98427" lon="0.88409">
        <ele>153</ele>
        <time>2017-12-20T14:48:17Z</time>
      </trkpt>
      <trkpt lat="48.98433" lon="0.88409">
        <ele>153</ele>
        <time>2017-12-20T14:48:18Z</time>
      </trkpt>
      <trkpt lat="48.98439" lon="0.88408">
        <ele>153</ele>
        <time>2017-12-20T14:48:19Z</time>
      </trkpt>
      <trkpt lat="48.98444" lon="0.88408">
        <ele>153</ele>
        <time>2017-12-20T14:48:20Z</time>
      </trkpt>
      <trkpt lat="48.98452" lon="0.88407">
        <ele>153</ele>
        <time>2017-12-20T14:48:22Z</time>
      </trkpt>
      <trkpt lat="48.98461" lon="0.88407">
        <ele>152</ele>
        <time>2017-12-20T14:48:24Z</time>
      </trkpt>
      <trkpt lat="48.9847" lon="0.88406">
        <ele>152</ele>
        <time>2017-12-20T14:48:26Z</time>
      </trkpt>
      <trkpt lat="48.98479" lon="0.88406">
        <ele>152</ele>
        <time>2017-12-20T14:48:28Z</time>
      </trkpt>
      <trkpt lat="48.98492" lon="0.88405">
        <ele>153</ele>
        <time>2017-12-20T14:48:31Z</time>
      </trkpt>
      <trkpt lat="48.985" lon="0.88405">
        <ele>153</ele>
        <time>2017-12-20T14:48:33Z</time>
      </trkpt>
      <trkpt lat="48.98509" lon="0.88405">
        <ele>153</ele>
        <time>2017-12-20T14:48:35Z</time>
      </trkpt>
      <trkpt lat="48.98518" lon="0.88405">
        <ele>153</ele>
        <time>2017-12-20T14:48:37Z</time>
      </trkpt>
      <trkpt lat="48.98523" lon="0.88405">
        <ele>153</ele>
        <time>2017-12-20T14:48:38Z</time>
      </trkpt>
      <trkpt lat="48.98531" lon="0.88406">
        <ele>153</ele>
        <time>2017-12-20T14:48:40Z</time>
      </trkpt>
      <trkpt lat="48.9854" lon="0.88408">
        <ele>154</ele>
        <time>2017-12-20T14:48:42Z</time>
      </trkpt>
      <trkpt lat="48.98545" lon="0.88409">
        <ele>154</ele>
        <time>2017-12-20T14:48:43Z</time>
      </trkpt>
      <trkpt lat="48.9855" lon="0.8841">
        <ele>154</ele>
        <time>2017-12-20T14:48:44Z</time>
      </trkpt>
      <trkpt lat="48.98555" lon="0.88411">
        <ele>154</ele>
        <time>2017-12-20T14:48:45Z</time>
      </trkpt>
      <trkpt lat="48.98559" lon="0.88411">
        <ele>154</ele>
        <time>2017-12-20T14:48:46Z</time>
      </trkpt>
      <trkpt lat="48.98564" lon="0.88413">
        <ele>154</ele>
        <time>2017-12-20T14:48:47Z</time>
      </trkpt>
      <trkpt lat="48.98569" lon="0.88415">
        <ele>154</ele>
        <time>2017-12-20T14:48:48Z</time>
      </trkpt>
      <trkpt lat="48.98574" lon="0.88417">
        <ele>154</ele>
        <time>2017-12-20T14:48:49Z</time>
      </trkpt>
      <trkpt lat="48.98579" lon="0.88419">
        <ele>154</ele>
        <time>2017-12-20T14:48:50Z</time>
      </trkpt>
      <trkpt lat="48.98584" lon="0.88421">
        <ele>154</ele>
        <time>2017-12-20T14:48:51Z</time>
      </trkpt>
      <trkpt lat="48.98588" lon="0.88423">
        <ele>154</ele>
        <time>2017-12-20T14:48:52Z</time>
      </trkpt>
      <trkpt lat="48.98593" lon="0.88425">
        <ele>154</ele>
        <time>2017-12-20T14:48:53Z</time>
      </trkpt>
      <trkpt lat="48.98598" lon="0.88427">
        <ele>154</ele>
        <time>2017-12-20T14:48:54Z</time>
      </trkpt>
      <trkpt lat="48.98603" lon="0.88429">
        <ele>154</ele>
        <time>2017-12-20T14:48:55Z</time>
      </trkpt>
      <trkpt lat="48.98612" lon="0.88434">
        <ele>154</ele>
        <time>2017-12-20T14:48:57Z</time>
      </trkpt>
      <trkpt lat="48.98616" lon="0.88436">
        <ele>154</ele>
        <time>2017-12-20T14:48:58Z</time>
      </trkpt>
      <trkpt lat="48.98621" lon="0.88438">
        <ele>154</ele>
        <time>2017-12-20T14:48:59Z</time>
      </trkpt>
      <trkpt lat="48.98626" lon="0.88441">
        <ele>154</ele>
        <time>2017-12-20T14:49:00Z</time>
      </trkpt>
      <trkpt lat="48.98631" lon="0.88445">
        <ele>154</ele>
        <time>2017-12-20T14:49:01Z</time>
      </trkpt>
      <trkpt lat="48.98636" lon="0.88448">
        <ele>154</ele>
        <time>2017-12-20T14:49:02Z</time>
      </trkpt>
      <trkpt lat="48.98641" lon="0.88451">
        <ele>153</ele>
        <time>2017-12-20T14:49:03Z</time>
      </trkpt>
      <trkpt lat="48.98645" lon="0.88455">
        <ele>153</ele>
        <time>2017-12-20T14:49:04Z</time>
      </trkpt>
      <trkpt lat="48.9865" lon="0.88458">
        <ele>153</ele>
        <time>2017-12-20T14:49:05Z</time>
      </trkpt>
      <trkpt lat="48.98655" lon="0.88462">
        <ele>153</ele>
        <time>2017-12-20T14:49:06Z</time>
      </trkpt>
      <trkpt lat="48.9866" lon="0.88465">
        <ele>153</ele>
        <time>2017-12-20T14:49:07Z</time>
      </trkpt>
      <trkpt lat="48.98665" lon="0.88468">
        <ele>153</ele>
        <time>2017-12-20T14:49:08Z</time>
      </trkpt>
      <trkpt lat="48.98669" lon="0.88472">
        <ele>153</ele>
        <time>2017-12-20T14:49:09Z</time>
      </trkpt>
      <trkpt lat="48.98674" lon="0.88475">
        <ele>153</ele>
        <time>2017-12-20T14:49:10Z</time>
      </trkpt>
      <trkpt lat="48.98679" lon="0.88479">
        <ele>153</ele>
        <time>2017-12-20T14:49:11Z</time>
      </trkpt>
      <trkpt lat="48.98684" lon="0.88482">
        <ele>153</ele>
        <time>2017-12-20T14:49:12Z</time>
      </trkpt>
      <trkpt lat="48.98689" lon="0.88485">
        <ele>153</ele>
        <time>2017-12-20T14:49:13Z</time>
      </trkpt>
      <trkpt lat="48.98694" lon="0.88488">
        <ele>153</ele>
        <time>2017-12-20T14:49:14Z</time>
      </trkpt>
      <trkpt lat="48.98699" lon="0.88491">
        <ele>152</ele>
        <time>2017-12-20T14:49:15Z</time>
      </trkpt>
      <trkpt lat="48.98705" lon="0.88494">
        <ele>152</ele>
        <time>2017-12-20T14:49:16Z</time>
      </trkpt>
      <trkpt lat="48.9871" lon="0.88497">
        <ele>152</ele>
        <time>2017-12-20T14:49:17Z</time>
      </trkpt>
      <trkpt lat="48.98715" lon="0.88499">
        <ele>152</ele>
        <time>2017-12-20T14:49:18Z</time>
      </trkpt>
      <trkpt lat="48.9872" lon="0.88502">
        <ele>152</ele>
        <time>2017-12-20T14:49:19Z</time>
      </trkpt>
      <trkpt lat="48.98725" lon="0.88504">
        <ele>152</ele>
        <time>2017-12-20T14:49:20Z</time>
      </trkpt>
      <trkpt lat="48.98731" lon="0.88507">
        <ele>152</ele>
        <time>2017-12-20T14:49:21Z</time>
      </trkpt>
      <trkpt lat="48.98735" lon="0.88509">
        <ele>152</ele>
        <time>2017-12-20T14:49:22Z</time>
      </trkpt>
      <trkpt lat="48.9874" lon="0.88511">
        <ele>151</ele>
        <time>2017-12-20T14:49:23Z</time>
      </trkpt>
      <trkpt lat="48.98745" lon="0.88513">
        <ele>151</ele>
        <time>2017-12-20T14:49:24Z</time>
      </trkpt>
      <trkpt lat="48.9875" lon="0.88515">
        <ele>151</ele>
        <time>2017-12-20T14:49:25Z</time>
      </trkpt>
      <trkpt lat="48.98755" lon="0.88516">
        <ele>151</ele>
        <time>2017-12-20T14:49:26Z</time>
      </trkpt>
      <trkpt lat="48.98763" lon="0.8852">
        <ele>151</ele>
        <time>2017-12-20T14:49:28Z</time>
      </trkpt>
      <trkpt lat="48.98771" lon="0.88523">
        <ele>151</ele>
        <time>2017-12-20T14:49:30Z</time>
      </trkpt>
      <trkpt lat="48.98776" lon="0.88524">
        <ele>151</ele>
        <time>2017-12-20T14:49:31Z</time>
      </trkpt>
      <trkpt lat="48.98781" lon="0.88524">
        <ele>152</ele>
        <time>2017-12-20T14:49:32Z</time>
      </trkpt>
      <trkpt lat="48.98785" lon="0.88523">
        <ele>152</ele>
        <time>2017-12-20T14:49:33Z</time>
      </trkpt>
      <trkpt lat="48.9879" lon="0.8852">
        <ele>151</ele>
        <time>2017-12-20T14:49:34Z</time>
      </trkpt>
      <trkpt lat="48.98794" lon="0.88517">
        <ele>151</ele>
        <time>2017-12-20T14:49:35Z</time>
      </trkpt>
      <trkpt lat="48.98799" lon="0.88513">
        <ele>151</ele>
        <time>2017-12-20T14:49:36Z</time>
      </trkpt>
      <trkpt lat="48.98803" lon="0.88507">
        <ele>151</ele>
        <time>2017-12-20T14:49:37Z</time>
      </trkpt>
      <trkpt lat="48.98808" lon="0.88501">
        <ele>151</ele>
        <time>2017-12-20T14:49:38Z</time>
      </trkpt>
      <trkpt lat="48.98813" lon="0.88495">
        <ele>151</ele>
        <time>2017-12-20T14:49:39Z</time>
      </trkpt>
      <trkpt lat="48.98817" lon="0.88489">
        <ele>150</ele>
        <time>2017-12-20T14:49:40Z</time>
      </trkpt>
      <trkpt lat="48.98822" lon="0.88484">
        <ele>150</ele>
        <time>2017-12-20T14:49:41Z</time>
      </trkpt>
      <trkpt lat="48.98827" lon="0.88478">
        <ele>150</ele>
        <time>2017-12-20T14:49:42Z</time>
      </trkpt>
      <trkpt lat="48.98832" lon="0.88472">
        <ele>151</ele>
        <time>2017-12-20T14:49:43Z</time>
      </trkpt>
      <trkpt lat="48.98836" lon="0.88465">
        <ele>151</ele>
        <time>2017-12-20T14:49:44Z</time>
      </trkpt>
      <trkpt lat="48.9884" lon="0.88459">
        <ele>151</ele>
        <time>2017-12-20T14:49:45Z</time>
      </trkpt>
      <trkpt lat="48.98842" lon="0.88452">
        <ele>150</ele>
        <time>2017-12-20T14:49:46Z</time>
      </trkpt>
      <trkpt lat="48.98844" lon="0.88445">
        <ele>150</ele>
        <time>2017-12-20T14:49:47Z</time>
      </trkpt>
      <trkpt lat="48.98846" lon="0.88438">
        <ele>149</ele>
        <time>2017-12-20T14:49:48Z</time>
      </trkpt>
      <trkpt lat="48.98847" lon="0.88431">
        <ele>149</ele>
        <time>2017-12-20T14:49:49Z</time>
      </trkpt>
      <trkpt lat="48.98848" lon="0.88424">
        <ele>149</ele>
        <time>2017-12-20T14:49:50Z</time>
      </trkpt>
      <trkpt lat="48.98849" lon="0.88416">
        <ele>149</ele>
        <time>2017-12-20T14:49:51Z</time>
      </trkpt>
      <trkpt lat="48.98849" lon="0.88408">
        <ele>149</ele>
        <time>2017-12-20T14:49:52Z</time>
      </trkpt>
      <trkpt lat="48.98849" lon="0.88401">
        <ele>149</ele>
        <time>2017-12-20T14:49:53Z</time>
      </trkpt>
      <trkpt lat="48.98848" lon="0.88393">
        <ele>149</ele>
        <time>2017-12-20T14:49:54Z</time>
      </trkpt>
      <trkpt lat="48.98847" lon="0.88386">
        <ele>149</ele>
        <time>2017-12-20T14:49:55Z</time>
      </trkpt>
      <trkpt lat="48.98847" lon="0.88379">
        <ele>149</ele>
        <time>2017-12-20T14:49:56Z</time>
      </trkpt>
      <trkpt lat="48.98846" lon="0.88371">
        <ele>149</ele>
        <time>2017-12-20T14:49:57Z</time>
      </trkpt>
      <trkpt lat="48.98846" lon="0.88364">
        <ele>150</ele>
        <time>2017-12-20T14:49:58Z</time>
      </trkpt>
      <trkpt lat="48.98845" lon="0.88356">
        <ele>150</ele>
        <time>2017-12-20T14:49:59Z</time>
      </trkpt>
      <trkpt lat="48.98845" lon="0.88349">
        <ele>150</ele>
        <time>2017-12-20T14:50:00Z</time>
      </trkpt>
      <trkpt lat="48.98845" lon="0.88341">
        <ele>150</ele>
        <time>2017-12-20T14:50:01Z</time>
      </trkpt>
      <trkpt lat="48.98844" lon="0.88334">
        <ele>150</ele>
        <time>2017-12-20T14:50:02Z</time>
      </trkpt>
      <trkpt lat="48.98844" lon="0.88326">
        <ele>150</ele>
        <time>2017-12-20T14:50:03Z</time>
      </trkpt>
      <trkpt lat="48.98843" lon="0.88319">
        <ele>150</ele>
        <time>2017-12-20T14:50:04Z</time>
      </trkpt>
      <trkpt lat="48.98843" lon="0.88311">
        <ele>150</ele>
        <time>2017-12-20T14:50:05Z</time>
      </trkpt>
      <trkpt lat="48.98842" lon="0.88303">
        <ele>150</ele>
        <time>2017-12-20T14:50:06Z</time>
      </trkpt>
      <trkpt lat="48.98842" lon="0.88296">
        <ele>151</ele>
        <time>2017-12-20T14:50:07Z</time>
      </trkpt>
      <trkpt lat="48.98841" lon="0.88288">
        <ele>151</ele>
        <time>2017-12-20T14:50:08Z</time>
      </trkpt>
      <trkpt lat="48.9884" lon="0.88281">
        <ele>151</ele>
        <time>2017-12-20T14:50:09Z</time>
      </trkpt>
      <trkpt lat="48.98839" lon="0.88268">
        <ele>151</ele>
        <time>2017-12-20T14:50:11Z</time>
      </trkpt>
      <trkpt lat="48.98837" lon="0.88261">
        <ele>151</ele>
        <time>2017-12-20T14:50:12Z</time>
      </trkpt>
      <trkpt lat="48.98835" lon="0.88248">
        <ele>152</ele>
        <time>2017-12-20T14:50:14Z</time>
      </trkpt>
      <trkpt lat="48.98834" lon="0.88242">
        <ele>152</ele>
        <time>2017-12-20T14:50:15Z</time>
      </trkpt>
      <trkpt lat="48.98832" lon="0.88235">
        <ele>152</ele>
        <time>2017-12-20T14:50:16Z</time>
      </trkpt>
      <trkpt lat="48.9883" lon="0.88228">
        <ele>152</ele>
        <time>2017-12-20T14:50:17Z</time>
      </trkpt>
      <trkpt lat="48.98829" lon="0.88221">
        <ele>152</ele>
        <time>2017-12-20T14:50:18Z</time>
      </trkpt>
      <trkpt lat="48.98827" lon="0.88215">
        <ele>152</ele>
        <time>2017-12-20T14:50:19Z</time>
      </trkpt>
      <trkpt lat="48.98824" lon="0.88208">
        <ele>152</ele>
        <time>2017-12-20T14:50:20Z</time>
      </trkpt>
      <trkpt lat="48.98822" lon="0.88201">
        <ele>152</ele>
        <time>2017-12-20T14:50:21Z</time>
      </trkpt>
      <trkpt lat="48.9882" lon="0.88194">
        <ele>153</ele>
        <time>2017-12-20T14:50:22Z</time>
      </trkpt>
      <trkpt lat="48.98819" lon="0.88187">
        <ele>153</ele>
        <time>2017-12-20T14:50:23Z</time>
      </trkpt>
      <trkpt lat="48.98818" lon="0.8818">
        <ele>153</ele>
        <time>2017-12-20T14:50:24Z</time>
      </trkpt>
      <trkpt lat="48.98816" lon="0.88172">
        <ele>153</ele>
        <time>2017-12-20T14:50:25Z</time>
      </trkpt>
      <trkpt lat="48.98815" lon="0.88165">
        <ele>153</ele>
        <time>2017-12-20T14:50:26Z</time>
      </trkpt>
      <trkpt lat="48.98814" lon="0.88158">
        <ele>153</ele>
        <time>2017-12-20T14:50:27Z</time>
      </trkpt>
      <trkpt lat="48.98813" lon="0.8815">
        <ele>154</ele>
        <time>2017-12-20T14:50:28Z</time>
      </trkpt>
      <trkpt lat="48.98812" lon="0.88142">
        <ele>154</ele>
        <time>2017-12-20T14:50:29Z</time>
      </trkpt>
      <trkpt lat="48.98811" lon="0.88135">
        <ele>154</ele>
        <time>2017-12-20T14:50:30Z</time>
      </trkpt>
      <trkpt lat="48.98811" lon="0.88127">
        <ele>154</ele>
        <time>2017-12-20T14:50:31Z</time>
      </trkpt>
      <trkpt lat="48.9881" lon="0.8812">
        <ele>154</ele>
        <time>2017-12-20T14:50:32Z</time>
      </trkpt>
      <trkpt lat="48.98809" lon="0.88112">
        <ele>154</ele>
        <time>2017-12-20T14:50:33Z</time>
      </trkpt>
      <trkpt lat="48.98809" lon="0.88104">
        <ele>154</ele>
        <time>2017-12-20T14:50:34Z</time>
      </trkpt>
      <trkpt lat="48.98809" lon="0.88097">
        <ele>154</ele>
        <time>2017-12-20T14:50:35Z</time>
      </trkpt>
      <trkpt lat="48.98809" lon="0.88089">
        <ele>154</ele>
        <time>2017-12-20T14:50:36Z</time>
      </trkpt>
      <trkpt lat="48.9881" lon="0.88081">
        <ele>154</ele>
        <time>2017-12-20T14:50:37Z</time>
      </trkpt>
      <trkpt lat="48.9881" lon="0.88073">
        <ele>154</ele>
        <time>2017-12-20T14:50:38Z</time>
      </trkpt>
      <trkpt lat="48.9881" lon="0.88065">
        <ele>155</ele>
        <time>2017-12-20T14:50:39Z</time>
      </trkpt>
      <trkpt lat="48.98811" lon="0.88056">
        <ele>154</ele>
        <time>2017-12-20T14:50:40Z</time>
      </trkpt>
      <trkpt lat="48.98812" lon="0.88048">
        <ele>154</ele>
        <time>2017-12-20T14:50:41Z</time>
      </trkpt>
      <trkpt lat="48.98813" lon="0.88041">
        <ele>154</ele>
        <time>2017-12-20T14:50:42Z</time>
      </trkpt>
      <trkpt lat="48.98813" lon="0.88034">
        <ele>154</ele>
        <time>2017-12-20T14:50:43Z</time>
      </trkpt>
      <trkpt lat="48.98814" lon="0.88026">
        <ele>154</ele>
        <time>2017-12-20T14:50:44Z</time>
      </trkpt>
      <trkpt lat="48.98815" lon="0.88019">
        <ele>153</ele>
        <time>2017-12-20T14:50:45Z</time>
      </trkpt>
      <trkpt lat="48.98816" lon="0.88012">
        <ele>153</ele>
        <time>2017-12-20T14:50:46Z</time>
      </trkpt>
      <trkpt lat="48.98817" lon="0.87998">
        <ele>153</ele>
        <time>2017-12-20T14:50:48Z</time>
      </trkpt>
      <trkpt lat="48.98819" lon="0.87991">
        <ele>153</ele>
        <time>2017-12-20T14:50:49Z</time>
      </trkpt>
      <trkpt lat="48.98821" lon="0.87979">
        <ele>153</ele>
        <time>2017-12-20T14:50:51Z</time>
      </trkpt>
      <trkpt lat="48.98824" lon="0.87966">
        <ele>153</ele>
        <time>2017-12-20T14:50:53Z</time>
      </trkpt>
      <trkpt lat="48.98826" lon="0.87954">
        <ele>152</ele>
        <time>2017-12-20T14:50:55Z</time>
      </trkpt>
      <trkpt lat="48.98828" lon="0.87941">
        <ele>152</ele>
        <time>2017-12-20T14:50:57Z</time>
      </trkpt>
      <trkpt lat="48.9883" lon="0.87934">
        <ele>152</ele>
        <time>2017-12-20T14:50:58Z</time>
      </trkpt>
      <trkpt lat="48.98831" lon="0.87928">
        <ele>152</ele>
        <time>2017-12-20T14:50:59Z</time>
      </trkpt>
      <trkpt lat="48.98833" lon="0.87921">
        <ele>152</ele>
        <time>2017-12-20T14:51:00Z</time>
      </trkpt>
      <trkpt lat="48.98834" lon="0.87914">
        <ele>152</ele>
        <time>2017-12-20T14:51:01Z</time>
      </trkpt>
      <trkpt lat="48.98835" lon="0.87907">
        <ele>152</ele>
        <time>2017-12-20T14:51:02Z</time>
      </trkpt>
      <trkpt lat="48.98837" lon="0.879">
        <ele>152</ele>
        <time>2017-12-20T14:51:03Z</time>
      </trkpt>
      <trkpt lat="48.98838" lon="0.87893">
        <ele>151</ele>
        <time>2017-12-20T14:51:04Z</time>
      </trkpt>
      <trkpt lat="48.9884" lon="0.8788">
        <ele>151</ele>
        <time>2017-12-20T14:51:06Z</time>
      </trkpt>
      <trkpt lat="48.98842" lon="0.87873">
        <ele>151</ele>
        <time>2017-12-20T14:51:07Z</time>
      </trkpt>
      <trkpt lat="48.98843" lon="0.87866">
        <ele>151</ele>
        <time>2017-12-20T14:51:08Z</time>
      </trkpt>
      <trkpt lat="48.98844" lon="0.87859">
        <ele>151</ele>
        <time>2017-12-20T14:51:09Z</time>
      </trkpt>
      <trkpt lat="48.98845" lon="0.87846">
        <ele>150</ele>
        <time>2017-12-20T14:51:11Z</time>
      </trkpt>
      <trkpt lat="48.98845" lon="0.87839">
        <ele>151</ele>
        <time>2017-12-20T14:51:12Z</time>
      </trkpt>
      <trkpt lat="48.98846" lon="0.87819">
        <ele>151</ele>
        <time>2017-12-20T14:51:15Z</time>
      </trkpt>
      <trkpt lat="48.98847" lon="0.87808">
        <ele>150</ele>
        <time>2017-12-20T14:51:17Z</time>
      </trkpt>
      <trkpt lat="48.98848" lon="0.87797">
        <ele>150</ele>
        <time>2017-12-20T14:51:19Z</time>
      </trkpt>
      <trkpt lat="48.9885" lon="0.87788">
        <ele>150</ele>
        <time>2017-12-20T14:51:21Z</time>
      </trkpt>
      <trkpt lat="48.98851" lon="0.87779">
        <ele>151</ele>
        <time>2017-12-20T14:51:23Z</time>
      </trkpt>
      <trkpt lat="48.98853" lon="0.87769">
        <ele>151</ele>
        <time>2017-12-20T14:51:25Z</time>
      </trkpt>
      <trkpt lat="48.98855" lon="0.87758">
        <ele>151</ele>
        <time>2017-12-20T14:51:27Z</time>
      </trkpt>
      <trkpt lat="48.98857" lon="0.87747">
        <ele>151</ele>
        <time>2017-12-20T14:51:29Z</time>
      </trkpt>
      <trkpt lat="48.98861" lon="0.87736">
        <ele>151</ele>
        <time>2017-12-20T14:51:31Z</time>
      </trkpt>
      <trkpt lat="48.98864" lon="0.87726">
        <ele>150</ele>
        <time>2017-12-20T14:51:33Z</time>
      </trkpt>
      <trkpt lat="48.98868" lon="0.87716">
        <ele>150</ele>
        <time>2017-12-20T14:51:35Z</time>
      </trkpt>
      <trkpt lat="48.98872" lon="0.87707">
        <ele>150</ele>
        <time>2017-12-20T14:51:37Z</time>
      </trkpt>
      <trkpt lat="48.98877" lon="0.87698">
        <ele>150</ele>
        <time>2017-12-20T14:51:39Z</time>
      </trkpt>
      <trkpt lat="48.98882" lon="0.87687">
        <ele>150</ele>
        <time>2017-12-20T14:51:41Z</time>
      </trkpt>
      <trkpt lat="48.98888" lon="0.87677">
        <ele>150</ele>
        <time>2017-12-20T14:51:43Z</time>
      </trkpt>
      <trkpt lat="48.98891" lon="0.87671">
        <ele>150</ele>
        <time>2017-12-20T14:51:44Z</time>
      </trkpt>
      <trkpt lat="48.98894" lon="0.87665">
        <ele>150</ele>
        <time>2017-12-20T14:51:45Z</time>
      </trkpt>
      <trkpt lat="48.989" lon="0.87656">
        <ele>150</ele>
        <time>2017-12-20T14:51:47Z</time>
      </trkpt>
      <trkpt lat="48.98906" lon="0.87646">
        <ele>150</ele>
        <time>2017-12-20T14:51:49Z</time>
      </trkpt>
      <trkpt lat="48.98911" lon="0.87636">
        <ele>150</ele>
        <time>2017-12-20T14:51:51Z</time>
      </trkpt>
      <trkpt lat="48.98914" lon="0.8763">
        <ele>150</ele>
        <time>2017-12-20T14:51:52Z</time>
      </trkpt>
      <trkpt lat="48.98917" lon="0.87625">
        <ele>150</ele>
        <time>2017-12-20T14:51:53Z</time>
      </trkpt>
      <trkpt lat="48.98921" lon="0.87619">
        <ele>150</ele>
        <time>2017-12-20T14:51:54Z</time>
      </trkpt>
      <trkpt lat="48.98927" lon="0.87609">
        <ele>150</ele>
        <time>2017-12-20T14:51:56Z</time>
      </trkpt>
      <trkpt lat="48.9893" lon="0.87603">
        <ele>150</ele>
        <time>2017-12-20T14:51:57Z</time>
      </trkpt>
      <trkpt lat="48.98933" lon="0.87597">
        <ele>150</ele>
        <time>2017-12-20T14:51:58Z</time>
      </trkpt>
      <trkpt lat="48.98937" lon="0.8759">
        <ele>150</ele>
        <time>2017-12-20T14:51:59Z</time>
      </trkpt>
      <trkpt lat="48.9894" lon="0.87585">
        <ele>150</ele>
        <time>2017-12-20T14:52:00Z</time>
      </trkpt>
      <trkpt lat="48.98943" lon="0.87579">
        <ele>150</ele>
        <time>2017-12-20T14:52:01Z</time>
      </trkpt>
      <trkpt lat="48.98947" lon="0.87573">
        <ele>150</ele>
        <time>2017-12-20T14:52:02Z</time>
      </trkpt>
      <trkpt lat="48.9895" lon="0.87568">
        <ele>150</ele>
        <time>2017-12-20T14:52:03Z</time>
      </trkpt>
      <trkpt lat="48.98953" lon="0.87563">
        <ele>150</ele>
        <time>2017-12-20T14:52:04Z</time>
      </trkpt>
      <trkpt lat="48.98957" lon="0.87557">
        <ele>150</ele>
        <time>2017-12-20T14:52:05Z</time>
      </trkpt>
      <trkpt lat="48.98961" lon="0.87551">
        <ele>150</ele>
        <time>2017-12-20T14:52:06Z</time>
      </trkpt>
      <trkpt lat="48.98964" lon="0.87545">
        <ele>150</ele>
        <time>2017-12-20T14:52:07Z</time>
      </trkpt>
      <trkpt lat="48.98968" lon="0.8754">
        <ele>150</ele>
        <time>2017-12-20T14:52:08Z</time>
      </trkpt>
      <trkpt lat="48.98971" lon="0.87534">
        <ele>150</ele>
        <time>2017-12-20T14:52:09Z</time>
      </trkpt>
      <trkpt lat="48.98974" lon="0.87529">
        <ele>149</ele>
        <time>2017-12-20T14:52:10Z</time>
      </trkpt>
      <trkpt lat="48.98978" lon="0.87524">
        <ele>149</ele>
        <time>2017-12-20T14:52:11Z</time>
      </trkpt>
      <trkpt lat="48.98981" lon="0.87518">
        <ele>149</ele>
        <time>2017-12-20T14:52:12Z</time>
      </trkpt>
      <trkpt lat="48.98987" lon="0.87508">
        <ele>149</ele>
        <time>2017-12-20T14:52:14Z</time>
      </trkpt>
      <trkpt lat="48.98993" lon="0.87498">
        <ele>150</ele>
        <time>2017-12-20T14:52:16Z</time>
      </trkpt>
      <trkpt lat="48.98999" lon="0.87488">
        <ele>150</ele>
        <time>2017-12-20T14:52:18Z</time>
      </trkpt>
      <trkpt lat="48.99004" lon="0.87478">
        <ele>150</ele>
        <time>2017-12-20T14:52:20Z</time>
      </trkpt>
      <trkpt lat="48.99009" lon="0.87468">
        <ele>150</ele>
        <time>2017-12-20T14:52:22Z</time>
      </trkpt>
      <trkpt lat="48.99014" lon="0.87458">
        <ele>150</ele>
        <time>2017-12-20T14:52:24Z</time>
      </trkpt>
      <trkpt lat="48.9902" lon="0.87447">
        <ele>150</ele>
        <time>2017-12-20T14:52:26Z</time>
      </trkpt>
      <trkpt lat="48.99024" lon="0.87436">
        <ele>150</ele>
        <time>2017-12-20T14:52:28Z</time>
      </trkpt>
      <trkpt lat="48.99029" lon="0.87425">
        <ele>151</ele>
        <time>2017-12-20T14:52:30Z</time>
      </trkpt>
      <trkpt lat="48.99034" lon="0.87416">
        <ele>151</ele>
        <time>2017-12-20T14:52:32Z</time>
      </trkpt>
      <trkpt lat="48.99038" lon="0.87406">
        <ele>151</ele>
        <time>2017-12-20T14:52:34Z</time>
      </trkpt>
      <trkpt lat="48.99043" lon="0.87395">
        <ele>151</ele>
        <time>2017-12-20T14:52:36Z</time>
      </trkpt>
      <trkpt lat="48.99047" lon="0.87384">
        <ele>151</ele>
        <time>2017-12-20T14:52:38Z</time>
      </trkpt>
      <trkpt lat="48.9905" lon="0.87372">
        <ele>151</ele>
        <time>2017-12-20T14:52:40Z</time>
      </trkpt>
      <trkpt lat="48.99052" lon="0.87365">
        <ele>151</ele>
        <time>2017-12-20T14:52:41Z</time>
      </trkpt>
      <trkpt lat="48.99057" lon="0.87354">
        <ele>151</ele>
        <time>2017-12-20T14:52:43Z</time>
      </trkpt>
      <trkpt lat="48.99061" lon="0.87342">
        <ele>151</ele>
        <time>2017-12-20T14:52:45Z</time>
      </trkpt>
      <trkpt lat="48.99064" lon="0.87336">
        <ele>151</ele>
        <time>2017-12-20T14:52:46Z</time>
      </trkpt>
      <trkpt lat="48.99067" lon="0.87329">
        <ele>151</ele>
        <time>2017-12-20T14:52:47Z</time>
      </trkpt>
      <trkpt lat="48.99069" lon="0.87323">
        <ele>151</ele>
        <time>2017-12-20T14:52:48Z</time>
      </trkpt>
      <trkpt lat="48.99071" lon="0.87317">
        <ele>151</ele>
        <time>2017-12-20T14:52:49Z</time>
      </trkpt>
      <trkpt lat="48.99073" lon="0.8731">
        <ele>151</ele>
        <time>2017-12-20T14:52:50Z</time>
      </trkpt>
      <trkpt lat="48.99076" lon="0.87304">
        <ele>151</ele>
        <time>2017-12-20T14:52:51Z</time>
      </trkpt>
      <trkpt lat="48.9908" lon="0.87292">
        <ele>151</ele>
        <time>2017-12-20T14:52:53Z</time>
      </trkpt>
      <trkpt lat="48.99087" lon="0.87275">
        <ele>151</ele>
        <time>2017-12-20T14:52:56Z</time>
      </trkpt>
      <trkpt lat="48.99091" lon="0.87263">
        <ele>151</ele>
        <time>2017-12-20T14:52:58Z</time>
      </trkpt>
      <trkpt lat="48.99097" lon="0.87244">
        <ele>151</ele>
        <time>2017-12-20T14:53:01Z</time>
      </trkpt>
      <trkpt lat="48.99101" lon="0.87232">
        <ele>151</ele>
        <time>2017-12-20T14:53:03Z</time>
      </trkpt>
      <trkpt lat="48.99104" lon="0.8722">
        <ele>151</ele>
        <time>2017-12-20T14:53:05Z</time>
      </trkpt>
      <trkpt lat="48.99107" lon="0.87207">
        <ele>151</ele>
        <time>2017-12-20T14:53:07Z</time>
      </trkpt>
      <trkpt lat="48.9911" lon="0.87194">
        <ele>151</ele>
        <time>2017-12-20T14:53:09Z</time>
      </trkpt>
      <trkpt lat="48.99114" lon="0.87182">
        <ele>151</ele>
        <time>2017-12-20T14:53:11Z</time>
      </trkpt>
      <trkpt lat="48.99115" lon="0.87175">
        <ele>151</ele>
        <time>2017-12-20T14:53:12Z</time>
      </trkpt>
      <trkpt lat="48.99116" lon="0.87168">
        <ele>151</ele>
        <time>2017-12-20T14:53:13Z</time>
      </trkpt>
      <trkpt lat="48.99118" lon="0.87162">
        <ele>151</ele>
        <time>2017-12-20T14:53:14Z</time>
      </trkpt>
      <trkpt lat="48.9912" lon="0.87149">
        <ele>151</ele>
        <time>2017-12-20T14:53:16Z</time>
      </trkpt>
      <trkpt lat="48.99123" lon="0.87136">
        <ele>151</ele>
        <time>2017-12-20T14:53:18Z</time>
      </trkpt>
      <trkpt lat="48.99125" lon="0.8713">
        <ele>151</ele>
        <time>2017-12-20T14:53:19Z</time>
      </trkpt>
      <trkpt lat="48.99128" lon="0.87118">
        <ele>151</ele>
        <time>2017-12-20T14:53:21Z</time>
      </trkpt>
      <trkpt lat="48.99131" lon="0.87105">
        <ele>151</ele>
        <time>2017-12-20T14:53:23Z</time>
      </trkpt>
      <trkpt lat="48.99133" lon="0.87098">
        <ele>151</ele>
        <time>2017-12-20T14:53:24Z</time>
      </trkpt>
      <trkpt lat="48.99134" lon="0.87091">
        <ele>152</ele>
        <time>2017-12-20T14:53:25Z</time>
      </trkpt>
      <trkpt lat="48.99136" lon="0.87084">
        <ele>152</ele>
        <time>2017-12-20T14:53:26Z</time>
      </trkpt>
      <trkpt lat="48.99138" lon="0.87077">
        <ele>152</ele>
        <time>2017-12-20T14:53:27Z</time>
      </trkpt>
      <trkpt lat="48.9914" lon="0.87071">
        <ele>152</ele>
        <time>2017-12-20T14:53:28Z</time>
      </trkpt>
      <trkpt lat="48.99141" lon="0.87064">
        <ele>152</ele>
        <time>2017-12-20T14:53:29Z</time>
      </trkpt>
      <trkpt lat="48.99143" lon="0.87057">
        <ele>152</ele>
        <time>2017-12-20T14:53:30Z</time>
      </trkpt>
      <trkpt lat="48.99145" lon="0.8705">
        <ele>152</ele>
        <time>2017-12-20T14:53:31Z</time>
      </trkpt>
      <trkpt lat="48.99147" lon="0.87043">
        <ele>152</ele>
        <time>2017-12-20T14:53:32Z</time>
      </trkpt>
      <trkpt lat="48.99149" lon="0.87035">
        <ele>152</ele>
        <time>2017-12-20T14:53:33Z</time>
      </trkpt>
      <trkpt lat="48.99151" lon="0.87029">
        <ele>152</ele>
        <time>2017-12-20T14:53:34Z</time>
      </trkpt>
      <trkpt lat="48.99153" lon="0.87021">
        <ele>152</ele>
        <time>2017-12-20T14:53:35Z</time>
      </trkpt>
      <trkpt lat="48.99155" lon="0.87015">
        <ele>152</ele>
        <time>2017-12-20T14:53:36Z</time>
      </trkpt>
      <trkpt lat="48.99157" lon="0.87009">
        <ele>152</ele>
        <time>2017-12-20T14:53:37Z</time>
      </trkpt>
      <trkpt lat="48.9916" lon="0.87003">
        <ele>152</ele>
        <time>2017-12-20T14:53:38Z</time>
      </trkpt>
      <trkpt lat="48.99162" lon="0.86996">
        <ele>152</ele>
        <time>2017-12-20T14:53:39Z</time>
      </trkpt>
      <trkpt lat="48.99165" lon="0.8699">
        <ele>152</ele>
        <time>2017-12-20T14:53:40Z</time>
      </trkpt>
      <trkpt lat="48.99167" lon="0.86983">
        <ele>152</ele>
        <time>2017-12-20T14:53:41Z</time>
      </trkpt>
      <trkpt lat="48.99172" lon="0.86972">
        <ele>152</ele>
        <time>2017-12-20T14:53:43Z</time>
      </trkpt>
      <trkpt lat="48.99175" lon="0.86966">
        <ele>152</ele>
        <time>2017-12-20T14:53:44Z</time>
      </trkpt>
      <trkpt lat="48.99178" lon="0.8696">
        <ele>152</ele>
        <time>2017-12-20T14:53:45Z</time>
      </trkpt>
      <trkpt lat="48.99181" lon="0.86954">
        <ele>152</ele>
        <time>2017-12-20T14:53:46Z</time>
      </trkpt>
      <trkpt lat="48.99184" lon="0.86949">
        <ele>152</ele>
        <time>2017-12-20T14:53:47Z</time>
      </trkpt>
      <trkpt lat="48.99188" lon="0.86943">
        <ele>152</ele>
        <time>2017-12-20T14:53:48Z</time>
      </trkpt>
      <trkpt lat="48.99191" lon="0.86938">
        <ele>152</ele>
        <time>2017-12-20T14:53:49Z</time>
      </trkpt>
      <trkpt lat="48.99194" lon="0.86932">
        <ele>152</ele>
        <time>2017-12-20T14:53:50Z</time>
      </trkpt>
      <trkpt lat="48.99198" lon="0.86926">
        <ele>152</ele>
        <time>2017-12-20T14:53:51Z</time>
      </trkpt>
      <trkpt lat="48.99201" lon="0.86921">
        <ele>152</ele>
        <time>2017-12-20T14:53:52Z</time>
      </trkpt>
      <trkpt lat="48.99205" lon="0.86915">
        <ele>151</ele>
        <time>2017-12-20T14:53:53Z</time>
      </trkpt>
      <trkpt lat="48.99208" lon="0.8691">
        <ele>151</ele>
        <time>2017-12-20T14:53:54Z</time>
      </trkpt>
      <trkpt lat="48.99212" lon="0.86905">
        <ele>151</ele>
        <time>2017-12-20T14:53:55Z</time>
      </trkpt>
      <trkpt lat="48.99215" lon="0.869">
        <ele>151</ele>
        <time>2017-12-20T14:53:56Z</time>
      </trkpt>
      <trkpt lat="48.99218" lon="0.86894">
        <ele>151</ele>
        <time>2017-12-20T14:53:57Z</time>
      </trkpt>
      <trkpt lat="48.99222" lon="0.8689">
        <ele>151</ele>
        <time>2017-12-20T14:53:58Z</time>
      </trkpt>
      <trkpt lat="48.99225" lon="0.86884">
        <ele>151</ele>
        <time>2017-12-20T14:53:59Z</time>
      </trkpt>
      <trkpt lat="48.99228" lon="0.86879">
        <ele>151</ele>
        <time>2017-12-20T14:54:00Z</time>
      </trkpt>
      <trkpt lat="48.99232" lon="0.86873">
        <ele>152</ele>
        <time>2017-12-20T14:54:01Z</time>
      </trkpt>
      <trkpt lat="48.99236" lon="0.86867">
        <ele>152</ele>
        <time>2017-12-20T14:54:02Z</time>
      </trkpt>
      <trkpt lat="48.99239" lon="0.86862">
        <ele>152</ele>
        <time>2017-12-20T14:54:03Z</time>
      </trkpt>
      <trkpt lat="48.99246" lon="0.86852">
        <ele>152</ele>
        <time>2017-12-20T14:54:05Z</time>
      </trkpt>
      <trkpt lat="48.99249" lon="0.86847">
        <ele>152</ele>
        <time>2017-12-20T14:54:06Z</time>
      </trkpt>
      <trkpt lat="48.99252" lon="0.86841">
        <ele>152</ele>
        <time>2017-12-20T14:54:07Z</time>
      </trkpt>
      <trkpt lat="48.99255" lon="0.86836">
        <ele>152</ele>
        <time>2017-12-20T14:54:08Z</time>
      </trkpt>
      <trkpt lat="48.99259" lon="0.8683">
        <ele>152</ele>
        <time>2017-12-20T14:54:09Z</time>
      </trkpt>
      <trkpt lat="48.99262" lon="0.86825">
        <ele>152</ele>
        <time>2017-12-20T14:54:10Z</time>
      </trkpt>
      <trkpt lat="48.99266" lon="0.8682">
        <ele>152</ele>
        <time>2017-12-20T14:54:11Z</time>
      </trkpt>
      <trkpt lat="48.99269" lon="0.86815">
        <ele>151</ele>
        <time>2017-12-20T14:54:12Z</time>
      </trkpt>
      <trkpt lat="48.99276" lon="0.86805">
        <ele>151</ele>
        <time>2017-12-20T14:54:14Z</time>
      </trkpt>
      <trkpt lat="48.99279" lon="0.868">
        <ele>152</ele>
        <time>2017-12-20T14:54:15Z</time>
      </trkpt>
      <trkpt lat="48.99285" lon="0.8679">
        <ele>152</ele>
        <time>2017-12-20T14:54:17Z</time>
      </trkpt>
      <trkpt lat="48.99289" lon="0.86785">
        <ele>152</ele>
        <time>2017-12-20T14:54:18Z</time>
      </trkpt>
      <trkpt lat="48.99292" lon="0.8678">
        <ele>152</ele>
        <time>2017-12-20T14:54:19Z</time>
      </trkpt>
      <trkpt lat="48.99295" lon="0.86774">
        <ele>152</ele>
        <time>2017-12-20T14:54:20Z</time>
      </trkpt>
      <trkpt lat="48.99299" lon="0.86769">
        <ele>152</ele>
        <time>2017-12-20T14:54:21Z</time>
      </trkpt>
      <trkpt lat="48.99302" lon="0.86764">
        <ele>152</ele>
        <time>2017-12-20T14:54:22Z</time>
      </trkpt>
      <trkpt lat="48.99308" lon="0.86754">
        <ele>151</ele>
        <time>2017-12-20T14:54:24Z</time>
      </trkpt>
      <trkpt lat="48.99312" lon="0.86748">
        <ele>151</ele>
        <time>2017-12-20T14:54:25Z</time>
      </trkpt>
      <trkpt lat="48.99315" lon="0.86743">
        <ele>151</ele>
        <time>2017-12-20T14:54:26Z</time>
      </trkpt>
      <trkpt lat="48.99319" lon="0.86737">
        <ele>151</ele>
        <time>2017-12-20T14:54:27Z</time>
      </trkpt>
      <trkpt lat="48.99322" lon="0.86732">
        <ele>151</ele>
        <time>2017-12-20T14:54:28Z</time>
      </trkpt>
      <trkpt lat="48.99326" lon="0.86726">
        <ele>151</ele>
        <time>2017-12-20T14:54:29Z</time>
      </trkpt>
      <trkpt lat="48.99329" lon="0.86721">
        <ele>151</ele>
        <time>2017-12-20T14:54:30Z</time>
      </trkpt>
      <trkpt lat="48.99334" lon="0.86712">
        <ele>151</ele>
        <time>2017-12-20T14:54:32Z</time>
      </trkpt>
      <trkpt lat="48.99337" lon="0.86706">
        <ele>152</ele>
        <time>2017-12-20T14:54:33Z</time>
      </trkpt>
      <trkpt lat="48.99341" lon="0.86701">
        <ele>151</ele>
        <time>2017-12-20T14:54:34Z</time>
      </trkpt>
      <trkpt lat="48.99345" lon="0.86695">
        <ele>151</ele>
        <time>2017-12-20T14:54:35Z</time>
      </trkpt>
      <trkpt lat="48.99349" lon="0.86689">
        <ele>151</ele>
        <time>2017-12-20T14:54:36Z</time>
      </trkpt>
      <trkpt lat="48.99352" lon="0.86684">
        <ele>151</ele>
        <time>2017-12-20T14:54:37Z</time>
      </trkpt>
      <trkpt lat="48.99355" lon="0.86678">
        <ele>150</ele>
        <time>2017-12-20T14:54:38Z</time>
      </trkpt>
      <trkpt lat="48.99358" lon="0.86673">
        <ele>150</ele>
        <time>2017-12-20T14:54:39Z</time>
      </trkpt>
      <trkpt lat="48.99362" lon="0.86668">
        <ele>150</ele>
        <time>2017-12-20T14:54:40Z</time>
      </trkpt>
      <trkpt lat="48.99365" lon="0.86663">
        <ele>150</ele>
        <time>2017-12-20T14:54:41Z</time>
      </trkpt>
      <trkpt lat="48.99369" lon="0.86658">
        <ele>150</ele>
        <time>2017-12-20T14:54:42Z</time>
      </trkpt>
      <trkpt lat="48.99373" lon="0.86652">
        <ele>150</ele>
        <time>2017-12-20T14:54:43Z</time>
      </trkpt>
      <trkpt lat="48.99376" lon="0.86646">
        <ele>151</ele>
        <time>2017-12-20T14:54:44Z</time>
      </trkpt>
      <trkpt lat="48.99379" lon="0.86641">
        <ele>151</ele>
        <time>2017-12-20T14:54:45Z</time>
      </trkpt>
      <trkpt lat="48.99382" lon="0.86635">
        <ele>150</ele>
        <time>2017-12-20T14:54:46Z</time>
      </trkpt>
      <trkpt lat="48.99385" lon="0.86629">
        <ele>150</ele>
        <time>2017-12-20T14:54:47Z</time>
      </trkpt>
      <trkpt lat="48.99388" lon="0.86624">
        <ele>150</ele>
        <time>2017-12-20T14:54:48Z</time>
      </trkpt>
      <trkpt lat="48.99391" lon="0.86618">
        <ele>150</ele>
        <time>2017-12-20T14:54:49Z</time>
      </trkpt>
      <trkpt lat="48.99394" lon="0.86612">
        <ele>150</ele>
        <time>2017-12-20T14:54:50Z</time>
      </trkpt>
      <trkpt lat="48.99397" lon="0.86606">
        <ele>150</ele>
        <time>2017-12-20T14:54:51Z</time>
      </trkpt>
      <trkpt lat="48.994" lon="0.866">
        <ele>150</ele>
        <time>2017-12-20T14:54:52Z</time>
      </trkpt>
      <trkpt lat="48.99403" lon="0.86594">
        <ele>150</ele>
        <time>2017-12-20T14:54:53Z</time>
      </trkpt>
      <trkpt lat="48.99406" lon="0.86588">
        <ele>150</ele>
        <time>2017-12-20T14:54:54Z</time>
      </trkpt>
      <trkpt lat="48.9941" lon="0.86582">
        <ele>150</ele>
        <time>2017-12-20T14:54:55Z</time>
      </trkpt>
      <trkpt lat="48.99413" lon="0.86575">
        <ele>150</ele>
        <time>2017-12-20T14:54:56Z</time>
      </trkpt>
      <trkpt lat="48.99416" lon="0.86569">
        <ele>150</ele>
        <time>2017-12-20T14:54:57Z</time>
      </trkpt>
      <trkpt lat="48.99419" lon="0.86563">
        <ele>150</ele>
        <time>2017-12-20T14:54:58Z</time>
      </trkpt>
      <trkpt lat="48.99422" lon="0.86557">
        <ele>150</ele>
        <time>2017-12-20T14:54:59Z</time>
      </trkpt>
      <trkpt lat="48.99425" lon="0.86551">
        <ele>150</ele>
        <time>2017-12-20T14:55:00Z</time>
      </trkpt>
      <trkpt lat="48.99428" lon="0.86544">
        <ele>150</ele>
        <time>2017-12-20T14:55:01Z</time>
      </trkpt>
      <trkpt lat="48.99431" lon="0.86538">
        <ele>150</ele>
        <time>2017-12-20T14:55:02Z</time>
      </trkpt>
      <trkpt lat="48.99434" lon="0.86531">
        <ele>150</ele>
        <time>2017-12-20T14:55:03Z</time>
      </trkpt>
      <trkpt lat="48.99436" lon="0.86525">
        <ele>150</ele>
        <time>2017-12-20T14:55:04Z</time>
      </trkpt>
      <trkpt lat="48.99439" lon="0.8652">
        <ele>150</ele>
        <time>2017-12-20T14:55:05Z</time>
      </trkpt>
      <trkpt lat="48.99442" lon="0.86513">
        <ele>151</ele>
        <time>2017-12-20T14:55:06Z</time>
      </trkpt>
      <trkpt lat="48.99445" lon="0.86507">
        <ele>151</ele>
        <time>2017-12-20T14:55:07Z</time>
      </trkpt>
      <trkpt lat="48.99448" lon="0.86501">
        <ele>151</ele>
        <time>2017-12-20T14:55:08Z</time>
      </trkpt>
      <trkpt lat="48.99451" lon="0.86495">
        <ele>151</ele>
        <time>2017-12-20T14:55:09Z</time>
      </trkpt>
      <trkpt lat="48.99454" lon="0.86489">
        <ele>151</ele>
        <time>2017-12-20T14:55:10Z</time>
      </trkpt>
      <trkpt lat="48.99456" lon="0.86483">
        <ele>151</ele>
        <time>2017-12-20T14:55:11Z</time>
      </trkpt>
      <trkpt lat="48.9946" lon="0.86477">
        <ele>151</ele>
        <time>2017-12-20T14:55:12Z</time>
      </trkpt>
      <trkpt lat="48.99462" lon="0.86471">
        <ele>151</ele>
        <time>2017-12-20T14:55:13Z</time>
      </trkpt>
      <trkpt lat="48.99464" lon="0.86465">
        <ele>151</ele>
        <time>2017-12-20T14:55:14Z</time>
      </trkpt>
      <trkpt lat="48.99467" lon="0.86459">
        <ele>151</ele>
        <time>2017-12-20T14:55:15Z</time>
      </trkpt>
      <trkpt lat="48.9947" lon="0.86454">
        <ele>151</ele>
        <time>2017-12-20T14:55:16Z</time>
      </trkpt>
      <trkpt lat="48.99472" lon="0.86448">
        <ele>151</ele>
        <time>2017-12-20T14:55:17Z</time>
      </trkpt>
      <trkpt lat="48.99478" lon="0.86437">
        <ele>151</ele>
        <time>2017-12-20T14:55:19Z</time>
      </trkpt>
      <trkpt lat="48.99481" lon="0.86431">
        <ele>151</ele>
        <time>2017-12-20T14:55:20Z</time>
      </trkpt>
      <trkpt lat="48.99484" lon="0.86425">
        <ele>151</ele>
        <time>2017-12-20T14:55:21Z</time>
      </trkpt>
      <trkpt lat="48.99487" lon="0.86419">
        <ele>151</ele>
        <time>2017-12-20T14:55:22Z</time>
      </trkpt>
      <trkpt lat="48.99489" lon="0.86413">
        <ele>151</ele>
        <time>2017-12-20T14:55:23Z</time>
      </trkpt>
      <trkpt lat="48.99492" lon="0.86407">
        <ele>151</ele>
        <time>2017-12-20T14:55:24Z</time>
      </trkpt>
      <trkpt lat="48.99495" lon="0.86401">
        <ele>151</ele>
        <time>2017-12-20T14:55:25Z</time>
      </trkpt>
      <trkpt lat="48.99498" lon="0.86395">
        <ele>151</ele>
        <time>2017-12-20T14:55:26Z</time>
      </trkpt>
      <trkpt lat="48.995" lon="0.86389">
        <ele>151</ele>
        <time>2017-12-20T14:55:27Z</time>
      </trkpt>
      <trkpt lat="48.99503" lon="0.86383">
        <ele>151</ele>
        <time>2017-12-20T14:55:28Z</time>
      </trkpt>
      <trkpt lat="48.99506" lon="0.86377">
        <ele>151</ele>
        <time>2017-12-20T14:55:29Z</time>
      </trkpt>
      <trkpt lat="48.99508" lon="0.86371">
        <ele>151</ele>
        <time>2017-12-20T14:55:30Z</time>
      </trkpt>
      <trkpt lat="48.99511" lon="0.86365">
        <ele>151</ele>
        <time>2017-12-20T14:55:31Z</time>
      </trkpt>
      <trkpt lat="48.99514" lon="0.8636">
        <ele>151</ele>
        <time>2017-12-20T14:55:32Z</time>
      </trkpt>
      <trkpt lat="48.99516" lon="0.86354">
        <ele>151</ele>
        <time>2017-12-20T14:55:33Z</time>
      </trkpt>
      <trkpt lat="48.99522" lon="0.86343">
        <ele>151</ele>
        <time>2017-12-20T14:55:35Z</time>
      </trkpt>
      <trkpt lat="48.99524" lon="0.86337">
        <ele>151</ele>
        <time>2017-12-20T14:55:36Z</time>
      </trkpt>
      <trkpt lat="48.99527" lon="0.86331">
        <ele>151</ele>
        <time>2017-12-20T14:55:37Z</time>
      </trkpt>
      <trkpt lat="48.99532" lon="0.8632">
        <ele>151</ele>
        <time>2017-12-20T14:55:39Z</time>
      </trkpt>
      <trkpt lat="48.99535" lon="0.86314">
        <ele>151</ele>
        <time>2017-12-20T14:55:40Z</time>
      </trkpt>
      <trkpt lat="48.99537" lon="0.86308">
        <ele>151</ele>
        <time>2017-12-20T14:55:41Z</time>
      </trkpt>
      <trkpt lat="48.99543" lon="0.86297">
        <ele>151</ele>
        <time>2017-12-20T14:55:43Z</time>
      </trkpt>
      <trkpt lat="48.99548" lon="0.86286">
        <ele>151</ele>
        <time>2017-12-20T14:55:45Z</time>
      </trkpt>
      <trkpt lat="48.99552" lon="0.86275">
        <ele>151</ele>
        <time>2017-12-20T14:55:47Z</time>
      </trkpt>
      <trkpt lat="48.99557" lon="0.86265">
        <ele>151</ele>
        <time>2017-12-20T14:55:49Z</time>
      </trkpt>
      <trkpt lat="48.99562" lon="0.86255">
        <ele>151</ele>
        <time>2017-12-20T14:55:51Z</time>
      </trkpt>
      <trkpt lat="48.99567" lon="0.86244">
        <ele>151</ele>
        <time>2017-12-20T14:55:53Z</time>
      </trkpt>
      <trkpt lat="48.99571" lon="0.86234">
        <ele>152</ele>
        <time>2017-12-20T14:55:55Z</time>
      </trkpt>
      <trkpt lat="48.99576" lon="0.86224">
        <ele>151</ele>
        <time>2017-12-20T14:55:57Z</time>
      </trkpt>
      <trkpt lat="48.9958" lon="0.86213">
        <ele>152</ele>
        <time>2017-12-20T14:55:59Z</time>
      </trkpt>
      <trkpt lat="48.99585" lon="0.86203">
        <ele>151</ele>
        <time>2017-12-20T14:56:01Z</time>
      </trkpt>
      <trkpt lat="48.9959" lon="0.86193">
        <ele>152</ele>
        <time>2017-12-20T14:56:03Z</time>
      </trkpt>
      <trkpt lat="48.99595" lon="0.86183">
        <ele>151</ele>
        <time>2017-12-20T14:56:05Z</time>
      </trkpt>
      <trkpt lat="48.996" lon="0.86175">
        <ele>152</ele>
        <time>2017-12-20T14:56:07Z</time>
      </trkpt>
      <trkpt lat="48.99604" lon="0.86165">
        <ele>152</ele>
        <time>2017-12-20T14:56:09Z</time>
      </trkpt>
      <trkpt lat="48.99609" lon="0.86156">
        <ele>152</ele>
        <time>2017-12-20T14:56:11Z</time>
      </trkpt>
      <trkpt lat="48.99616" lon="0.86146">
        <ele>152</ele>
        <time>2017-12-20T14:56:13Z</time>
      </trkpt>
      <trkpt lat="48.99622" lon="0.86138">
        <ele>152</ele>
        <time>2017-12-20T14:56:15Z</time>
      </trkpt>
      <trkpt lat="48.99626" lon="0.86136">
        <ele>152</ele>
        <time>2017-12-20T14:56:16Z</time>
      </trkpt>
      <trkpt lat="48.99631" lon="0.86133">
        <ele>152</ele>
        <time>2017-12-20T14:56:17Z</time>
      </trkpt>
      <trkpt lat="48.99635" lon="0.86131">
        <ele>152</ele>
        <time>2017-12-20T14:56:18Z</time>
      </trkpt>
      <trkpt lat="48.9964" lon="0.86129">
        <ele>152</ele>
        <time>2017-12-20T14:56:19Z</time>
      </trkpt>
      <trkpt lat="48.99645" lon="0.86129">
        <ele>152</ele>
        <time>2017-12-20T14:56:20Z</time>
      </trkpt>
      <trkpt lat="48.99653" lon="0.86128">
        <ele>152</ele>
        <time>2017-12-20T14:56:22Z</time>
      </trkpt>
      <trkpt lat="48.99659" lon="0.86121">
        <ele>152</ele>
        <time>2017-12-20T14:56:24Z</time>
      </trkpt>
      <trkpt lat="48.99664" lon="0.86112">
        <ele>152</ele>
        <time>2017-12-20T14:56:26Z</time>
      </trkpt>
      <trkpt lat="48.99667" lon="0.86101">
        <ele>152</ele>
        <time>2017-12-20T14:56:28Z</time>
      </trkpt>
      <trkpt lat="48.99669" lon="0.86091">
        <ele>152</ele>
        <time>2017-12-20T14:56:30Z</time>
      </trkpt>
      <trkpt lat="48.99671" lon="0.86079">
        <ele>152</ele>
        <time>2017-12-20T14:56:32Z</time>
      </trkpt>
      <trkpt lat="48.99673" lon="0.86069">
        <ele>152</ele>
        <time>2017-12-20T14:56:34Z</time>
      </trkpt>
      <trkpt lat="48.99674" lon="0.86056">
        <ele>152</ele>
        <time>2017-12-20T14:56:36Z</time>
      </trkpt>
      <trkpt lat="48.99675" lon="0.86043">
        <ele>153</ele>
        <time>2017-12-20T14:56:38Z</time>
      </trkpt>
      <trkpt lat="48.99676" lon="0.8603">
        <ele>153</ele>
        <time>2017-12-20T14:56:40Z</time>
      </trkpt>
      <trkpt lat="48.99677" lon="0.86018">
        <ele>152</ele>
        <time>2017-12-20T14:56:42Z</time>
      </trkpt>
      <trkpt lat="48.99678" lon="0.86005">
        <ele>152</ele>
        <time>2017-12-20T14:56:44Z</time>
      </trkpt>
      <trkpt lat="48.99678" lon="0.85992">
        <ele>152</ele>
        <time>2017-12-20T14:56:46Z</time>
      </trkpt>
      <trkpt lat="48.99679" lon="0.85981">
        <ele>152</ele>
        <time>2017-12-20T14:56:48Z</time>
      </trkpt>
      <trkpt lat="48.9968" lon="0.85971">
        <ele>152</ele>
        <time>2017-12-20T14:56:50Z</time>
      </trkpt>
      <trkpt lat="48.99679" lon="0.85959">
        <ele>152</ele>
        <time>2017-12-20T14:56:52Z</time>
      </trkpt>
      <trkpt lat="48.9968" lon="0.8595">
        <ele>152</ele>
        <time>2017-12-20T14:56:54Z</time>
      </trkpt>
      <trkpt lat="48.99682" lon="0.85942">
        <ele>152</ele>
        <time>2017-12-20T14:56:56Z</time>
      </trkpt>
      <trkpt lat="48.99687" lon="0.8594">
        <ele>152</ele>
        <time>2017-12-20T14:56:59Z</time>
      </trkpt>
      <trkpt lat="48.99692" lon="0.85944">
        <ele>152</ele>
        <time>2017-12-20T14:57:01Z</time>
      </trkpt>
    </trkseg>
  </trk>
</gpx>